GFSSGP_con_mucape_000.txt.gz
CAPE
0 0 0 0 0 0 0 0 0 0 0 24 317 482 661 773 801 838 1515 1562 1540 1477 1259 1095 1232 1194 1352 1665 1970 2274 2208 2273 2241 2037 1873 2094 2051 1524 1021 1470 1874 2147 1825 1848 2006 1943 2121 1909 2078
0 0 0 0 0 0 1 0 0 0 0 0 63 703 561 818 1062 1315 1447 1641 1645 1695 1407 1196 1342 1481 1457 1726 1849 2004 2023 1921 1978 1992 1904 1598 1399 710 0 1160 1475 1557 1834 1966 2006 1878 1853 1783 2045
0 0 0 0 0 0 5 0 0 0 0 0 336 659 873 1073 1468 1611 1722 1741 1872 1741 1526 1266 1500 1615 1719 1769 1899 1942 2006 1799 1785 1831 1826 1686 1866 1091 364 1564 2123 2141 2257 1945 1897 1793 1961 1844 1633
0 0 0 0 0 0 0 0 0 0 0 50 469 910 1119 1194 1603 1958 1740 1791 1855 1848 1721 1430 1444 1635 1652 1512 1622 1911 1921 1693 1580 1589 1753 1829 1729 1676 1739 1538 1800 1535 1719 1426 1494 1543 1498 1231 1280
0 0 0 0 0 0 0 0 0 0 112 281 471 955 1225 1546 1901 2085 2032 1716 1777 1817 1797 1953 1540 1610 1560 1407 1351 1535 1623 1370 1351 1581 1700 1755 1774 1767 1897 1772 1440 1662 1568 1531 1450 1714 1129 890 997
0 0 0 0 0 0 0 0 0 15 89 222 883 1006 992 1340 1684 2226 2238 2040 1823 1829 1832 2013 1609 1525 1599 1511 1401 1406 1452 1439 1337 1439 1556 1626 1691 1656 1580 1836 1867 1860 1766 1566 1502 1373 1035 739 816
0 0 0 0 0 0 0 0 0 0 43 226 270 770 1223 1103 1786 2001 1861 1692 1441 1169 1331 1618 1730 1547 1261 1084 1117 1022 1090 1231 1319 1340 1383 1539 1559 1579 1577 1386 1325 1275 1246 1155 1213 975 709 436 337
0 0 0 0 0 0 0 0 0 0 0 0 128 552 1047 1094 2123 1895 1828 1891 1597 1154 1018 1452 1697 1614 1602 1418 395 355 692 736 936 1282 1085 889 1048 1222 1023 779 812 1112 1077 1062 1050 756 539 347 249
0 0 0 0 0 0 0 0 0 0 0 0 0 77 434 1335 1434 1498 1600 767 586 555 656 1012 1545 1444 1097 656 199 544 547 430 487 703 612 673 969 702 602 380 261 249 629 686 837 680 386 238 70
0 0 0 0 0 0 0 0 0 0 0 2 33 516 788 941 719 741 439 186 0 8 9 77 778 771 752 159 266 1351 1430 1322 1118 1036 900 732 648 329 126 173 195 169 161 220 342 296 148 33 120
0 0 0 0 0 0 0 0 0 0 0 0 18 9 223 192 146 80 25 0 0 0 0 0 81 468 763 597 693 1065 792 667 431 491 445 443 5 3 122 1 2 4 40 4 46 136 266 260 268
0 0 0 0 0 0 0 0 0 0 0 0 0 0 16 9 0 0 0 0 0 0 0 0 2 55 138 112 158 156 28 0 4 198 426 409 282 145 13 23 4 20 8 10 7 119 93 227 366
0 0 0 0 0 0 0 0 0 0 0 0 0 0 0 0 0 0 0 0 0 0 0 0 0 0 4 3 0 0 0 0 0 0 0 19 126 135 21 0 0 0 4 19 1 0 90 135 143
0 0 0 0 0 0 0 0 0 0 0 0 0 0 0 0 0 0 0 0 0 0 0 0 0 0 0 0 0 0 0 0 0 0 0 0 1 103 214 3 1 83 120 165 66 148 36 116 85
0 0 0 0 0 0 0 0 0 0 0 0 0 0 0 0 0 0 0 0 0 0 0 0 0 0 0 0 0 0 0 0 0 0 0 0 0 8 4 0 0 0 9 65 191 151 177 303 217
0 0 0 0 0 0 0 0 0 0 0 0 0 0 0 0 0 0 0 0 0 0 0 0 0 0 0 0 0 0 0 0 0 0 0 0 0 0 0 0 0 0 0 0 34 27 47 83 113
0 0 0 0 0 0 0 0 0 0 0 0 0 0 0 0 0 0 0 0 0 0 0 0 0 0 0 0 0 0 0 0 0 0 0 0 0 0 0 0 0 0 0 0 0 0 2 3 0
0 0 0 0 0 0 0 0 0 0 0 0 0 0 0 0 0 0 0 0 0 0 0 0 0 0 0 0 0 0 0 0 0 0 0 0 0 0 0 0 0 0 0 0 0 0 0 0 0
0 0 0 0 0 0 0 0 0 0 0 0 0 0 0 0 0 0 0 0 0 0 0 0 0 0 0 0 0 0 0 0 0 0 0 0 0 0 0 0 0 0 0 0 0 0 0 0 0
0 0 0 0 0 0 0 0 0 0 0 0 0 0 0 0 0 0 0 0 0 0 0 0 0 0 0 0 0 0 0 0 0 0 0 0 0 0 0 0 0 0 0 0 0 0 0 0 0
0 0 0 0 0 0 0 0 0 0 0 0 0 0 0 0 0 0 0 0 0 0 0 0 0 0 0 0 0 0 0 0 0 0 0 0 0 0 0 0 0 0 0 0 0 0 0 0 0
0 0 0 0 0 0 0 0 0 0 0 0 0 0 0 0 0 0 0 0 0 0 0 0 0 0 0 0 0 0 0 0 0 0 0 0 0 0 0 0 0 7 9 0 0 0 0 0 0
0 0 0 0 0 0 0 0 0 0 0 0 0 0 0 0 0 0 0 0 0 0 0 0 0 0 0 0 0 0 0 0 0 0 0 0 0 0 0 0 16 48 55 39 44 40 14 6 4
0 0 0 0 0 0 0 0 0 0 0 0 0 0 0 0 0 0 0 0 0 0 0 0 0 0 0 0 0 0 0 0 0 0 0 0 0 0 0 0 0 0 18 35 48 57 62 58 38
0 0 0 0 0 0 0 0 0 0 0 0 0 0 0 0 0 0 0 0 0 0 0 0 0 0 0 0 0 0 0 0 0 0 0 0 0 0 0 0 0 0 0 0 1 8 23 43 34
0 0 0 0 0 0 0 0 0 0 0 0 0 0 0 0 0 0 0 0 0 0 0 0 0 0 0 0 0 1 1 0 0 0 0 0 0 0 0 0 0 0 0 0 0 0 0 14 82
0 0 0 0 0 0 0 0 0 0 0 0 0 0 0 0 0 0 0 0 0 0 0 0 0 0 0 0 2 0 0 0 0 0 0 0 0 0 0 0 0 0 0 0 0 0 5 40 107
0 0 0 0 0 0 0 0 0 0 0 0 0 0 0 0 0 0 0 0 0 0 0 0 0 0 0 0 0 0 0 0 0 0 0 0 0 0 0 0 0 0 0 0 0 1 6 12 89
0 0 0 0 0 0 0 0 0 0 0 0 0 0 0 0 0 0 0 0 0 0 0 0 0 0 0 0 0 0 0 0 0 0 0 0 0 0 0 0 0 0 0 0 3 3 3 6 8
0 0 0 0 0 0 0 0 0 0 0 0 0 0 0 0 0 0 0 0 0 0 0 0 0 0 0 0 0 0 0 0 0 0 0 0 0 0 0 0 0 0 0 0 0 0 2 6 6

GFSSGP_con_mucape_003.txt.gz
CAPE
0 0 0 0 0 0 0 0 0 0 6 120 148 303 545 585 824 818 879 1392 1540 1359 1131 911 841 886 1318 1700 1994 2112 2252 2459 2293 2212 2219 1969 1321 614 956 883 738 659 928 1165 1754 1731 1643 1663 1813
0 0 0 0 0 1 5 0 0 0 0 0 307 304 473 922 871 1107 1239 1602 1595 1468 1231 1062 938 1038 1109 1508 1717 2021 2138 2085 2328 2274 2112 1570 1124 373 393 111 49 651 867 1077 1206 1355 1583 1624 1761
0 0 0 0 0 12 5 0 0 0 0 0 265 698 908 1179 1198 1211 1403 1610 1877 1604 1332 1096 1362 1372 1254 1305 1545 1757 1854 1882 1942 2179 2202 1702 1450 849 676 221 269 680 1302 1373 1390 1273 1671 1587 1451
0 0 0 0 1 0 0 0 0 0 0 2 273 873 1048 1236 1453 1379 1549 1634 1794 1664 1586 1200 1487 1476 1193 805 1119 1580 1608 1493 1697 1943 2105 1909 1661 1225 828 356 820 1247 1236 1000 1175 1271 1288 1142 1020
0 0 0 0 0 0 0 0 0 1 115 211 325 785 1111 1479 1764 1796 1634 1750 1760 1845 1813 1703 1585 1642 1413 1142 867 1189 1597 1462 1411 1591 1872 1725 1430 1409 1301 1148 1077 1080 630 389 927 1119 751 744 861
0 0 0 0 0 0 0 0 0 34 110 387 665 1002 1197 1520 1936 2081 1758 1646 1644 1806 1796 1991 1556 1481 1364 1243 1220 1129 1216 1391 1439 1398 1474 1492 1454 1208 989 1072 1385 1300 1184 1287 1589 1223 768 558 534
0 0 0 0 0 0 0 0 0 0 43 111 417 615 1402 1274 1663 1855 1922 1810 1465 1318 1585 1767 1861 1618 1395 1006 533 597 874 875 1152 1366 1351 1310 1391 1264 926 410 350 545 740 797 804 892 567 250 376
0 0 0 0 0 0 0 0 0 0 0 0 0 448 975 1306 1777 1720 1745 1938 1917 1665 1460 1573 1642 1594 1614 1522 605 337 551 695 825 1014 824 775 985 901 669 482 502 113 307 369 329 474 484 297 250
0 0 0 0 0 0 0 0 0 0 0 0 0 22 839 1406 1645 1662 1720 1677 1459 983 994 1696 1885 1818 1316 791 300 824 965 616 695 713 396 476 1257 858 651 288 469 437 87 27 37 71 100 180 126
0 0 0 0 0 0 0 0 0 0 0 0 0 238 835 1113 1084 1212 1226 967 351 197 122 314 1187 1542 1290 609 323 1283 1388 1076 1041 1036 1010 747 785 802 576 292 244 171 178 158 191 66 50 82 311
0 0 0 0 0 0 0 0 0 0 0 0 0 71 523 771 806 814 503 142 0 0 0 9 448 1000 1429 1069 1075 1370 1089 1037 735 743 564 610 182 140 351 371 316 85 0 5 1 41 42 21 41
0 0 0 0 0 0 0 0 0 0 0 0 0 1 176 313 272 144 3 0 0 0 0 0 216 518 569 512 590 717 422 235 207 469 447 357 193 211 175 166 65 63 17 5 0 0 0 1 2
0 0 0 0 0 0 0 0 0 0 0 0 0 0 12 14 0 0 0 0 0 0 0 0 0 80 269 154 78 14 0 0 0 0 0 3 0 49 23 2 1 1 0 7 22 0 0 56 25
0 0 0 0 0 0 0 0 0 0 0 0 0 0 0 0 0 0 0 0 0 0 0 0 0 0 0 2 0 0 0 0 0 0 0 0 0 1 10 3 2 2 11 57 246 188 169 137 103
0 0 0 0 0 0 0 0 0 0 0 0 0 0 0 0 0 0 0 0 0 0 0 0 0 0 0 0 0 0 0 0 0 0 0 0 0 0 0 0 0 0 0 1 0 0 15 269 299
0 0 0 0 0 0 0 0 0 0 0 0 0 0 0 0 0 0 0 0 0 0 0 0 0 0 0 0 0 0 0 0 0 0 0 0 0 0 0 0 0 0 0 0 0 0 0 0 30
0 0 0 0 0 0 0 0 0 0 0 0 0 0 0 0 0 0 0 0 0 0 0 0 0 0 0 0 0 0 0 0 0 0 0 0 0 0 0 0 0 0 0 0 0 0 0 0 0
0 0 0 0 0 0 0 0 0 0 0 0 0 0 0 0 0 0 0 0 0 0 0 0 0 0 0 0 0 0 0 0 0 0 0 0 0 0 0 0 0 0 0 0 0 0 0 0 0
0 0 0 0 0 0 0 0 0 0 0 0 0 0 0 0 0 0 0 0 0 0 0 0 0 0 0 0 0 0 0 0 0 0 0 0 0 0 0 0 0 0 0 0 0 0 0 0 0
0 0 0 0 0 0 0 0 0 0 0 0 0 0 0 0 0 0 0 0 0 0 0 0 0 0 0 0 0 0 0 0 0 0 0 0 0 0 0 0 0 0 0 0 0 0 0 0 0
0 0 0 0 0 0 0 0 0 0 0 0 0 0 0 0 0 0 0 0 0 0 0 0 0 0 0 0 0 0 0 0 0 0 0 0 0 0 0 0 0 0 2 1 6 0 0 0 2
0 0 0 0 0 0 0 0 0 0 0 0 0 0 0 0 0 0 0 0 0 0 0 0 0 0 0 0 0 0 0 0 0 0 0 0 0 6 14 7 4 7 7 17 39 21 33 53 0
0 0 0 0 0 0 0 0 2 0 0 0 0 0 0 0 0 0 0 0 0 0 0 0 0 0 0 0 0 0 0 0 0 0 0 0 0 0 0 0 5 11 11 38 91 111 125 78 88
0 0 0 0 0 1 0 0 0 0 0 0 0 0 0 0 0 0 0 0 0 0 0 0 0 0 0 0 0 0 0 0 0 0 0 0 0 0 0 0 0 0 0 0 62 101 92 118 108
0 0 1 7 13 9 0 0 0 0 0 0 0 0 0 0 0 0 0 0 0 0 0 0 0 0 0 0 0 0 0 0 0 0 0 0 0 0 0 0 0 0 0 0 0 8 32 24 32
0 0 0 0 0 0 0 0 0 0 0 0 0 0 0 0 0 0 0 0 0 0 0 0 0 0 0 0 0 0 0 0 0 0 0 0 0 0 0 0 0 0 0 0 0 0 8 18 26
0 2 0 0 0 0 0 0 0 0 0 0 0 0 2 0 0 8 5 0 0 0 0 0 0 0 0 0 0 0 0 0 0 0 0 0 0 0 0 0 0 0 0 0 0 0 16 42 67
0 0 0 0 0 0 0 0 0 0 13 1 0 0 0 3 8 7 7 7 3 0 0 7 0 0 0 0 0 0 0 0 0 0 0 0 0 0 0 0 0 0 0 0 0 1 1 36 55
0 4 0 0 0 0 0 0 0 0 0 0 3 0 3 2 2 1 1 5 10 13 0 0 0 0 0 0 0 0 0 0 0 0 0 0 0 0 0 0 0 0 0 0 0 0 8 45 53
0 0 0 0 0 0 0 0 0 0 0 0 1 14 8 2 4 9 4 13 11 13 0 0 0 0 0 0 0 0 0 0 0 0 0 0 0 0 0 0 0 0 0 0 0 0 1 6 13

GFSSGP_con_mucape_006.txt.gz
CAPE
0 0 0 0 0 0 0 0 0 0 0 28 26 364 381 453 553 630 919 1160 1250 1144 990 221 886 828 1072 1531 2018 2251 2433 2158 2389 2439 1943 1852 1311 1318 1313 1000 656 677 89 36 500 979 1196 1425 1588
0 0 0 0 0 0 0 0 0 0 0 0 37 388 477 600 886 861 1307 1449 1298 1170 1020 818 1180 1104 852 1076 1397 1981 2209 2171 2187 2275 1989 1660 1271 933 1059 434 94 113 296 219 641 707 778 1191 913
0 0 0 0 0 1 0 0 0 0 0 0 51 579 533 862 815 994 1483 1433 1387 1350 1156 917 1285 1216 1065 1208 1485 1683 1851 2033 2189 2194 2001 1864 1627 1055 792 805 417 596 1057 1394 753 366 523 735 694
0 0 0 0 0 0 0 0 0 0 0 0 93 708 986 1161 1033 1248 1347 1528 1554 1555 1397 1135 1417 1401 1209 937 1341 1734 1727 1817 2117 2182 2233 2304 1454 1121 902 460 271 894 912 545 504 219 355 643 548
0 0 0 0 0 0 0 0 0 0 31 28 161 541 892 1524 1544 1335 1364 1381 1564 1642 1780 1363 1494 1642 1576 1388 1470 1573 1752 1669 1668 1989 2010 1917 1830 1689 1312 1259 1258 959 512 341 140 47 70 233 743
0 0 0 0 0 0 0 0 0 17 47 107 297 187 1081 1510 1692 1725 1403 1318 1569 1783 1955 1744 1555 1629 1507 1362 1227 1152 1323 1445 1592 1623 1594 1800 1676 1497 1288 1206 1228 994 687 426 253 463 762 871 547
0 0 0 0 0 0 0 0 0 0 33 38 168 436 472 979 1846 1768 1426 1291 1190 1278 1547 1972 1948 1607 1526 1243 866 887 932 1103 1372 1440 1351 1446 1548 1006 659 654 496 467 393 341 624 697 752 631 709
0 0 0 0 0 0 0 0 0 0 0 0 0 205 489 994 1703 1679 1547 1556 1574 1547 1478 1624 1711 2056 1731 1324 840 617 912 988 1127 1345 1180 1412 1186 510 427 347 112 172 214 245 289 342 433 452 406
0 0 0 0 0 0 0 0 0 0 0 0 0 67 1116 1443 1544 1439 1399 1316 1387 920 1184 1805 1768 2042 1668 1424 700 1060 1020 1068 974 790 853 604 1272 789 621 386 261 288 103 12 4 1 0 51 58
0 0 0 0 0 0 0 0 0 0 0 0 0 1 447 1037 1195 1016 865 982 629 297 172 426 1060 1541 1670 1180 642 1833 1497 1300 1145 1159 1061 1010 890 510 358 237 204 66 119 153 86 80 38 13 0
0 0 0 0 0 0 0 0 0 0 0 0 0 1 54 274 419 550 353 241 113 31 41 52 738 1332 1788 1623 1551 1436 1200 1204 1070 990 849 534 284 249 273 284 248 116 0 0 0 5 28 0 23
0 0 0 0 0 0 0 0 0 0 0 0 0 0 3 84 200 212 158 9 0 0 0 9 555 922 980 855 757 882 540 539 440 435 492 458 339 186 162 41 13 0 2 2 2 0 0 0 0
0 0 0 0 0 0 0 0 0 0 0 0 0 0 0 7 42 12 0 0 0 0 0 0 110 469 727 463 357 214 100 0 0 5 0 85 79 109 38 0 0 0 1 0 0 0 0 0 0
0 0 0 0 0 0 0 0 0 0 0 0 0 0 0 0 0 0 0 0 0 0 0 0 0 49 46 252 79 3 0 0 0 0 0 0 2 11 3 0 0 0 0 0 4 20 19 11 0
0 0 0 0 0 0 0 0 0 0 0 0 0 0 0 0 0 0 0 0 0 0 0 0 0 0 0 0 0 0 0 0 0 0 0 0 0 0 0 0 0 0 0 0 0 0 0 0 12
0 0 0 0 0 0 0 0 0 0 0 0 0 0 0 0 0 0 0 0 0 0 0 0 0 0 0 0 0 0 0 0 0 0 0 0 0 0 0 0 0 0 0 0 0 0 0 0 0
0 0 0 0 0 0 0 0 0 0 0 0 0 0 0 0 0 0 0 0 0 0 0 0 0 0 0 0 0 0 0 0 0 0 0 0 0 0 0 0 0 0 0 0 0 0 0 0 0
0 0 0 0 0 0 0 0 0 0 0 0 0 0 0 0 0 0 0 0 0 0 0 0 0 0 0 0 0 0 0 0 0 0 0 0 0 0 0 0 0 0 0 0 0 0 0 0 0
0 0 0 0 0 0 0 0 0 0 0 0 0 0 0 0 0 0 0 0 0 0 0 0 0 0 0 0 0 0 0 0 0 0 0 0 0 0 0 0 0 0 0 0 0 0 0 0 0
0 0 0 0 0 0 0 0 0 0 0 0 0 0 0 0 0 0 0 0 0 0 0 0 0 0 0 0 0 0 0 0 0 0 0 0 0 0 0 0 0 0 0 0 0 2 0 0 0
0 0 0 0 0 0 0 0 0 0 0 0 0 0 0 0 0 0 0 0 0 0 0 0 0 0 0 0 0 0 0 0 0 0 0 0 0 0 0 0 0 0 0 0 0 0 0 0 0
0 0 0 0 0 0 0 0 0 0 0 0 0 0 0 0 0 0 0 0 0 0 0 0 0 0 0 0 0 0 0 0 0 0 0 0 6 7 13 23 41 43 26 0 3 2 22 13 0
0 0 0 0 0 0 0 0 0 0 0 0 0 0 0 0 0 0 0 0 0 0 0 0 0 0 0 0 0 0 0 0 0 0 0 0 0 0 0 0 2 0 30 23 0 0 0 0 9
0 0 0 0 0 76 10 0 0 0 0 0 0 0 0 0 0 0 0 0 0 0 0 0 0 0 0 0 0 0 0 0 0 0 0 0 0 0 0 0 0 0 0 0 0 0 0 0 0
0 0 12 213 355 153 0 0 0 0 0 0 0 0 0 0 0 0 0 0 0 0 0 0 0 0 0 0 0 0 0 0 0 0 0 0 0 0 0 0 0 2 0 0 0 0 0 0 0
0 0 6 0 0 0 0 0 0 0 0 0 0 0 0 0 0 0 1 14 3 0 0 0 0 0 0 0 0 0 0 0 0 0 0 0 0 0 0 0 0 0 0 0 0 0 0 0 0
0 1 0 0 0 0 0 0 0 0 3 1 0 0 0 0 0 0 5 10 6 5 0 0 0 0 0 0 0 0 0 0 0 0 0 0 0 0 0 0 0 0 0 0 0 0 0 0 0
0 0 0 14 0 0 0 0 0 46 31 4 16 6 0 0 0 1 0 4 0 0 0 0 0 0 0 0 0 0 0 0 0 3 0 0 0 0 0 0 0 0 0 0 0 0 0 0 0
0 0 16 3 27 0 0 0 0 0 0 6 2 0 0 1 0 2 0 0 0 0 0 0 0 0 0 0 0 0 0 0 0 0 0 0 0 0 0 0 0 0 0 0 0 0 0 0 0
0 0 0 1 0 2 0 0 0 4 39 9 33 14 7 10 0 0 0 0 0 0 0 0 0 0 0 0 0 0 0 0 0 0 0 0 0 0 0 0 0 0 0 0 0 0 0 0 0

GFSSGP_con_mucape_009.txt.gz
CAPE
0 0 0 0 0 0 0 0 0 0 2 272 316 372 402 421 567 725 1089 1154 974 902 732 594 852 984 1210 1564 1989 2139 2025 2269 2426 2334 2129 2112 2003 1816 1478 1344 1424 1637 593 439 472 1032 831 791 793
0 0 0 0 0 0 0 0 0 0 0 332 437 264 412 605 1054 1077 1144 1167 1022 1007 991 749 976 1093 1298 1500 1780 2000 2005 2020 2126 2326 2375 1779 1676 1607 1403 972 488 394 420 527 947 982 398 450 609
0 0 0 0 0 0 0 0 0 0 0 4 479 555 653 645 902 1393 1531 1337 1191 1102 779 1005 1047 955 1069 1569 1756 1864 2007 1961 1946 2223 2283 2124 1260 1210 1129 1094 696 749 834 1044 505 327 687 647 682
0 0 0 0 0 0 0 0 0 0 0 354 624 699 865 967 1075 1499 1510 1371 1332 1233 850 1047 1167 1167 1131 1674 1867 1842 1808 1939 1930 2053 2439 1923 1429 1133 1038 828 581 842 1129 1326 735 566 328 616 281
0 0 0 0 0 0 0 0 0 1 118 332 363 526 798 1231 1215 1115 1490 1444 1519 1504 967 1108 1257 1340 1519 1391 1447 1642 1631 1593 1900 2018 2023 2110 1869 1374 1199 1075 1159 1352 847 543 481 436 270 66 340
0 0 0 0 0 0 0 0 0 3 25 128 383 539 894 1461 1555 1340 1398 1569 1643 1657 1471 1432 1357 1356 1370 1260 1091 1157 1330 1445 1446 1579 1945 1848 1787 1747 1518 1587 1308 1393 594 194 23 23 36 4 7
0 0 0 0 0 0 0 0 0 0 16 16 103 266 433 1380 1704 1660 1170 994 1563 1836 1985 1711 1510 1465 1266 993 891 824 908 1252 1477 1442 1348 1451 1043 913 890 785 669 721 633 697 533 523 547 516 423
0 0 0 0 0 0 0 0 0 0 0 0 74 475 370 1128 1750 1669 1397 1331 1261 1236 1250 1677 1732 1555 1259 989 624 785 768 885 1321 1420 1347 955 604 527 492 336 450 316 312 422 377 355 340 266 194
0 0 0 0 0 0 0 0 0 0 0 0 194 742 453 927 1661 1574 1263 1396 1214 1016 959 797 1539 1456 1236 1079 512 1039 913 909 975 1016 901 974 893 596 358 291 248 269 164 100 117 146 122 72 4
0 0 0 0 0 0 0 0 0 0 0 0 103 1125 1218 1375 1429 1413 1208 1059 1030 709 235 246 391 929 1012 1071 620 1088 1013 955 989 999 811 814 898 376 205 171 192 201 51 85 78 76 41 56 45
0 0 0 0 0 0 0 0 0 0 0 0 0 486 1102 1288 1189 948 400 842 476 245 11 50 560 888 1020 920 1206 1039 808 815 674 692 654 702 663 314 252 156 207 138 0 0 0 0 0 10 25
0 0 0 0 0 0 0 0 0 0 0 0 0 0 49 149 211 218 91 26 31 17 0 0 280 438 672 473 941 724 694 520 575 465 303 79 271 90 155 99 31 0 0 0 0 0 0 0 0
0 0 0 0 0 0 0 0 0 0 0 0 0 0 0 0 0 1 0 0 0 0 0 0 41 239 265 351 348 320 305 156 125 74 5 0 27 16 12 0 0 0 0 0 0 0 0 0 0
0 0 0 0 0 0 0 0 0 0 0 0 0 0 0 0 0 0 0 0 0 0 0 0 0 0 7 0 0 11 18 0 0 0 0 0 0 0 0 0 0 0 0 0 0 0 0 0 1
0 0 0 0 0 0 0 0 0 0 0 0 0 0 0 0 0 0 0 0 0 0 0 0 0 0 0 0 0 0 0 0 0 0 0 0 0 0 0 0 0 0 0 0 0 0 0 0 0
0 0 0 0 0 0 0 0 0 0 0 0 0 0 0 0 0 0 0 0 0 0 0 0 0 0 0 0 0 0 0 0 0 0 0 0 0 0 0 0 0 0 0 0 0 0 0 0 0
0 0 0 0 0 0 0 0 0 0 0 0 0 0 0 0 0 0 0 0 0 0 0 0 0 0 0 0 0 0 0 0 0 0 0 0 0 0 0 0 0 0 0 0 0 0 0 0 0
0 0 0 0 0 0 0 0 0 0 0 0 0 0 0 0 0 0 0 0 0 0 0 0 0 0 0 0 0 0 0 0 0 0 0 0 0 0 0 0 0 0 0 0 0 0 0 0 0
0 0 0 0 0 0 0 0 0 0 0 0 0 0 0 0 0 0 0 0 0 0 0 0 0 0 0 0 0 0 0 0 0 0 0 0 0 0 0 0 0 0 0 0 0 0 0 0 0
0 0 0 0 0 0 0 0 0 0 0 0 0 0 0 0 0 0 0 0 0 0 0 0 0 0 0 0 0 0 0 0 0 0 0 0 0 0 0 0 0 0 0 0 0 0 0 0 0
0 0 0 0 0 0 0 0 0 0 0 0 0 0 0 0 0 0 0 0 0 0 0 0 0 0 0 0 0 0 0 0 0 0 0 0 0 0 0 0 0 0 0 0 0 0 0 0 0
0 0 0 0 0 0 0 0 0 0 0 0 0 0 0 0 0 0 0 0 0 0 0 0 0 0 0 0 0 0 0 0 0 0 0 0 0 0 0 0 1 2 0 0 0 0 0 0 0
0 0 0 0 0 0 0 0 0 0 0 0 0 0 0 0 0 0 0 0 0 0 0 0 0 0 0 0 0 0 0 0 0 0 0 0 0 0 0 0 5 8 5 1 0 0 0 0 0
0 0 0 0 0 0 0 0 0 0 0 0 0 0 0 0 0 0 0 0 0 0 0 0 0 0 0 0 0 0 0 0 0 0 0 0 0 0 0 0 0 0 0 0 0 5 0 0 0
0 0 0 0 0 0 0 0 0 0 0 0 0 0 0 0 0 0 0 0 0 0 0 0 0 0 0 0 0 0 1 1 0 0 1 1 0 0 0 0 0 0 0 0 0 0 0 0 0
0 0 0 0 0 0 0 0 0 0 0 0 0 0 0 0 0 0 0 0 0 0 0 0 0 0 0 0 0 0 0 0 2 8 9 2 6 2 0 0 0 0 0 0 0 0 0 0 0
0 0 0 0 0 0 0 0 0 0 1 7 1 1 3 0 0 0 0 0 0 0 0 0 0 0 0 0 0 0 0 0 0 0 2 14 16 11 7 4 0 0 0 0 0 0 0 0 0
0 0 0 0 0 0 0 0 0 0 0 3 3 0 0 0 0 0 0 0 0 0 0 0 0 0 0 0 0 0 0 0 0 0 15 18 7 2 0 0 0 0 0 0 0 0 0 0 0
0 0 0 1 0 0 0 0 0 0 0 2 11 38 4 0 0 0 0 0 0 1 0 0 0 0 0 0 0 0 0 0 0 0 0 1 0 0 0 0 0 0 0 0 0 0 0 0 0
0 0 0 0 0 0 0 0 0 0 0 0 12 6 2 0 0 0 1 13 13 3 0 0 0 0 0 0 0 0 0 0 0 0 0 0 0 0 0 0 0 0 0 0 0 0 0 0 0

GFSSGP_con_mucape_012.txt.gz
CAPE
0 0 0 0 0 0 0 0 0 0 180 245 317 274 342 459 430 301 953 891 895 780 337 543 944 1312 1593 1942 2097 2084 2241 2490 2421 2139 2069 2154 2247 2116 1908 1742 1626 947 817 898 1316 1345 1393 1109 986
0 0 0 0 0 0 0 0 0 186 213 126 250 405 544 876 928 962 975 957 942 858 730 623 961 1360 1626 1756 1879 1923 1998 2112 2244 2405 2487 2306 2320 2138 1768 1135 789 489 584 1382 1475 1369 932 971 844
0 0 0 0 0 0 0 0 0 162 96 127 491 626 700 914 1136 1175 1110 1100 1005 746 843 707 797 1207 1659 1732 1826 1862 1835 1880 2153 2364 2247 2015 1941 1759 1551 1215 1065 987 1174 1145 1149 1304 1176 887 482
0 0 0 0 0 0 0 0 0 10 283 421 538 775 801 934 1164 1312 1218 1189 1195 698 671 740 843 1124 1771 1909 1866 1838 1793 1736 1835 2246 2388 1973 1664 1402 1350 1223 1093 1170 1479 1816 1213 1203 1065 629 269
0 0 0 0 0 0 0 0 46 67 166 247 311 512 961 1221 1362 1297 1273 1253 1226 614 805 901 982 1222 1478 1655 1704 1633 1618 1721 1857 1991 2093 2174 1849 1635 1564 1361 1106 1439 1197 1138 1127 1037 922 693 183
0 0 0 0 0 0 0 0 0 6 167 232 220 432 683 1090 1394 1504 1428 1485 1292 890 1127 1194 1262 1243 1213 1309 1339 1315 1413 1512 1609 1885 1898 1805 1631 1547 1586 1416 1631 1353 686 340 203 175 280 220 313
0 0 0 0 0 0 0 0 0 0 0 29 127 117 944 1351 1216 1363 1555 1596 1638 1487 1481 1395 1427 1237 1085 907 787 794 1076 1333 1419 1542 1584 1302 1156 1141 1029 1053 1113 1064 1069 1036 1029 333 189 473 362
0 0 0 0 0 0 0 0 0 0 0 111 182 90 271 1460 1586 1282 1637 1714 1711 1807 1824 1616 1529 1281 1182 742 719 663 720 998 1251 1285 1072 841 771 749 684 792 702 652 524 503 543 690 571 364 271
0 0 0 0 0 0 0 0 0 0 0 0 432 201 238 1490 1464 1241 1171 1141 1267 1700 1745 1604 1586 1395 1140 947 862 814 799 874 998 1045 1030 641 612 450 239 297 401 247 187 256 348 426 440 335 198
0 0 0 0 0 0 0 0 0 0 0 510 402 582 610 1541 1376 1257 1058 1269 1225 898 577 325 673 1229 1316 1020 821 898 883 856 841 669 842 738 740 423 245 147 167 191 149 33 37 12 15 37 44
0 0 0 0 0 0 0 0 0 0 0 420 381 814 1109 1320 902 1066 1182 1129 1280 903 411 132 318 830 993 854 654 960 843 822 935 922 745 790 827 507 374 252 109 76 9 0 0 0 0 0 0
0 0 0 0 0 0 0 0 0 0 0 0 667 972 941 847 779 984 830 972 837 111 0 12 237 712 717 825 1138 931 702 701 591 527 468 415 237 320 111 90 0 0 0 0 0 0 0 0 0
0 0 0 0 0 0 0 0 0 0 0 0 318 857 845 880 908 717 57 27 0 0 0 0 37 131 344 176 785 544 484 381 315 198 24 0 10 0 9 23 0 0 0 0 0 1 2 0 0
0 0 0 0 0 0 0 0 0 0 0 0 0 0 26 12 3 0 0 0 0 0 0 0 0 4 11 21 62 98 104 76 19 1 0 0 0 0 0 0 0 0 0 0 0 0 0 0 0
0 0 0 0 0 0 0 0 0 0 0 0 0 0 0 0 0 0 0 0 0 0 0 0 0 0 0 0 0 0 0 0 0 0 0 0 0 0 0 0 0 0 0 0 0 0 0 0 0
0 0 0 0 0 0 0 0 0 0 0 0 0 0 0 0 0 0 0 0 0 0 0 0 0 0 0 0 0 0 0 0 0 0 0 0 0 0 0 0 0 0 0 0 0 0 0 0 0
0 0 0 0 0 0 0 0 0 0 0 0 0 0 0 0 0 0 0 0 0 0 0 0 0 0 0 0 0 0 0 0 0 0 0 0 0 0 0 0 0 0 0 0 0 0 0 0 0
0 0 0 0 0 0 0 0 0 0 0 0 0 0 0 0 0 0 0 0 0 0 0 0 0 0 0 0 0 0 0 0 0 0 0 0 0 0 0 0 0 0 0 0 0 0 0 0 0
0 0 0 0 0 0 0 0 0 0 0 0 0 0 0 0 0 0 0 0 0 0 0 0 0 0 0 0 0 0 0 0 0 0 0 0 0 0 0 0 0 0 0 0 0 0 0 0 0
0 0 0 0 0 0 0 0 0 0 0 0 0 0 0 0 0 0 0 0 0 0 0 0 0 0 0 0 0 0 0 0 0 0 0 0 0 0 0 0 0 0 0 0 0 0 0 0 0
0 0 0 0 0 0 0 0 0 0 0 0 0 0 0 0 0 0 0 0 0 0 0 0 0 0 0 0 0 0 0 0 0 0 0 0 0 0 0 0 0 0 0 0 0 0 0 0 0
0 0 0 0 0 0 0 0 0 0 0 0 0 0 0 0 0 0 0 0 0 0 0 0 0 0 0 0 0 0 0 0 0 0 0 0 0 0 0 0 0 0 0 0 0 0 0 0 0
0 0 0 0 0 0 0 0 0 0 0 0 0 0 0 0 0 0 0 0 0 0 0 0 0 0 0 0 0 0 0 0 0 0 0 0 0 0 0 0 0 0 0 0 3 0 1 0 0
0 0 0 0 0 0 0 0 0 0 0 0 0 0 0 0 0 0 0 0 0 0 0 0 0 0 0 0 0 0 0 0 0 0 0 0 0 0 0 1 9 0 0 0 0 0 0 0 0
0 0 0 0 0 0 0 0 0 0 0 0 0 0 1 0 0 0 0 0 0 0 0 0 0 0 0 0 0 0 0 0 0 0 0 1 26 25 16 13 9 0 0 0 0 0 0 0 0
0 0 0 0 0 0 0 0 0 0 0 0 0 0 0 0 0 0 0 0 0 1 0 0 0 0 0 0 0 0 0 0 0 0 0 0 1 30 26 29 18 12 0 0 0 0 0 0 0
0 0 0 0 0 0 0 0 0 0 0 0 0 0 0 0 0 0 0 0 7 0 5 0 1 0 2 0 0 0 0 0 0 0 0 0 0 14 25 34 33 1 0 0 0 0 0 0 0
0 0 0 0 0 0 0 0 0 0 0 0 0 0 0 0 0 1 2 2 0 0 0 1 0 0 0 0 0 0 0 0 0 0 0 0 6 9 16 13 3 0 0 0 0 0 0 0 0
0 0 0 0 0 0 0 0 0 0 0 11 1 0 0 0 1 5 6 4 1 9 12 2 0 0 0 0 0 0 0 0 0 0 0 0 4 8 4 0 0 0 0 0 0 0 0 0 0
0 0 0 0 0 0 0 0 0 0 2 0 0 0 0 2 2 8 1 0 0 0 0 0 0 0 0 0 0 0 0 0 0 0 0 0 0 0 0 0 0 0 0 0 0 0 0 0 0

GFSSGP_con_mucape_015.txt.gz
CAPE
0 0 0 0 0 0 0 0 0 23 162 202 187 158 243 345 141 91 737 782 583 162 341 661 1131 1569 1771 1860 1943 2150 2485 2593 2406 2220 2306 2406 2408 2328 2218 1813 1506 1057 1088 1106 1565 1705 1769 1548 1366
0 0 0 0 0 0 0 0 34 141 322 352 432 502 526 647 713 780 661 800 752 434 337 650 1129 1473 1662 1698 1752 2018 2012 2167 2469 2565 2432 2240 2190 2337 1791 1114 875 638 967 1448 1543 1668 1639 1553 1282
0 0 0 0 0 0 0 0 141 201 163 148 535 655 671 868 900 943 889 937 759 794 449 599 1077 1396 1572 1665 1644 1758 1760 2093 2367 2391 2308 2221 2079 1873 1703 1245 1106 1233 1276 1255 1439 1526 1222 1320 1158
0 0 0 0 0 0 0 0 113 162 198 476 609 699 752 832 1055 1046 1040 1014 934 371 385 526 976 1391 1583 1716 1605 1634 1636 1741 2068 2373 2301 2051 1823 1630 1567 1323 1208 1413 1585 1735 1255 1520 1529 1088 510
0 0 0 0 0 0 0 0 0 14 138 258 246 661 843 1056 1137 1077 1150 1111 448 492 554 551 857 1298 1673 1663 1508 1535 1621 1700 1810 2008 2245 2011 1876 1921 1822 1624 1095 1588 1411 1299 1477 1181 1353 1076 361
0 0 0 0 0 0 0 0 0 31 52 130 451 382 743 1172 1188 1196 1228 1126 500 576 758 845 976 992 1083 1306 1390 1359 1427 1448 1663 1748 1861 1932 1790 1783 1633 1725 1843 1374 755 355 290 341 827 562 542
0 0 0 0 0 0 0 0 0 0 9 3 70 225 915 1293 1330 1369 1381 1194 963 1185 1061 1190 1109 1013 946 842 875 1007 1272 1332 1506 1519 1508 1259 1226 1277 1331 1431 1406 1371 1328 1232 756 285 269 352 424
0 0 0 0 0 0 0 0 0 0 1 30 55 92 1035 1144 1384 1550 1579 1366 1329 1399 1302 1357 1245 1102 870 531 621 554 878 1114 1196 1243 1086 847 806 788 988 975 913 836 600 583 636 671 547 427 357
0 0 0 0 0 0 0 0 0 0 0 0 189 27 200 1330 1324 1465 1625 1533 1602 1660 1611 1454 1438 1232 1083 666 544 603 625 838 1037 1119 830 620 536 427 292 430 477 250 233 262 332 398 413 386 331
0 0 0 0 0 0 0 0 0 0 15 200 89 171 893 1406 1260 1188 1578 1535 1581 1708 1699 1524 1474 1407 1134 887 609 701 631 611 663 719 756 712 643 368 215 116 131 134 125 59 14 11 0 0 0
0 0 0 0 0 0 0 0 0 0 0 117 0 294 1320 1356 1181 1096 1037 1074 1156 1291 900 1044 816 854 868 813 786 766 781 752 746 703 560 585 885 487 306 219 127 50 44 1 0 0 0 0 0
0 0 0 0 0 0 0 0 0 0 0 0 0 105 1124 1401 1178 978 845 1058 1130 1104 727 1 71 510 550 609 673 685 749 623 719 667 512 582 598 393 252 63 11 0 0 0 0 0 0 0 0
0 0 0 0 0 0 0 0 0 0 0 0 47 362 764 945 610 399 813 925 911 837 9 0 21 340 247 574 765 946 623 565 458 309 197 80 4 1 0 0 0 0 0 0 0 0 0 0 0
0 0 0 0 0 0 0 0 0 0 0 0 184 502 465 201 179 375 663 212 708 58 0 0 0 20 79 32 216 324 330 269 248 98 8 0 0 0 0 0 0 0 0 0 0 0 0 0 0
0 0 0 0 0 0 0 0 0 0 0 0 1 321 312 119 161 497 236 103 10 0 0 0 0 0 0 0 0 0 0 0 0 0 0 0 0 0 0 0 0 0 0 0 0 0 0 0 0
0 0 0 0 0 0 0 0 0 0 0 0 0 2 88 202 29 0 0 0 0 0 0 0 0 0 0 0 0 0 0 0 0 0 0 0 0 0 0 0 0 0 0 0 0 0 0 0 0
0 0 0 0 0 0 0 0 0 0 0 0 0 0 0 0 0 0 0 0 0 0 0 0 0 0 0 0 0 0 0 0 0 0 0 0 0 0 0 0 0 0 0 0 0 0 0 0 0
0 0 0 0 0 0 0 0 0 0 0 0 0 0 0 0 0 0 0 0 0 0 0 0 0 0 0 0 0 0 0 0 0 0 0 0 0 0 0 0 0 0 0 0 0 0 0 0 0
0 0 0 0 0 0 0 0 0 0 0 0 0 0 0 0 0 0 0 0 0 0 0 0 0 0 0 0 0 0 0 0 0 0 0 0 0 0 0 0 0 0 0 0 0 0 0 0 0
0 0 0 0 0 0 0 0 0 0 0 0 0 0 0 0 0 0 0 0 0 0 0 0 0 0 0 0 0 0 0 0 0 0 0 0 0 0 0 0 0 0 0 0 0 0 0 0 0
0 0 0 0 0 0 0 0 0 0 0 0 0 0 0 0 0 0 0 0 0 0 0 0 0 0 0 0 0 0 0 0 0 0 0 0 0 0 0 0 0 0 0 0 0 0 0 0 0
0 0 0 0 0 0 0 0 0 0 0 0 0 0 0 0 0 0 0 0 0 0 0 0 0 0 0 0 0 0 0 0 0 0 0 0 0 0 0 0 0 1 10 8 0 0 0 0 0
0 0 0 0 0 0 0 0 0 0 0 0 0 0 0 0 0 0 0 0 0 0 0 0 0 0 0 0 0 0 0 0 0 0 0 0 0 0 0 0 2 14 11 0 0 0 0 0 0
0 0 0 0 0 0 0 0 0 0 0 0 0 0 0 0 0 0 0 0 0 0 0 0 0 0 0 0 0 0 0 0 0 0 0 0 0 0 0 0 0 14 14 5 0 0 0 0 2
0 0 0 0 0 0 0 0 0 0 0 0 0 0 0 0 0 0 0 0 0 0 0 0 0 0 1 1 6 3 0 0 0 0 0 0 0 0 0 0 0 7 23 23 44 0 0 0 0
0 0 0 0 0 0 0 0 0 0 0 0 0 0 0 0 0 0 0 0 0 0 0 0 0 0 1 0 0 0 0 0 0 0 0 0 0 0 0 0 0 26 22 58 3 0 8 0 0
0 0 0 0 0 0 0 0 0 0 0 0 0 0 0 0 0 0 0 0 0 0 0 0 0 0 0 0 0 0 0 0 0 0 0 0 0 0 0 0 1 14 17 20 1 0 0 0 0
0 0 0 0 0 0 0 0 0 0 0 0 0 0 0 0 0 0 0 0 0 0 0 0 0 0 0 0 0 0 0 0 0 0 0 0 0 0 0 8 13 23 4 13 0 0 0 0 0
0 0 0 0 0 0 0 0 0 0 0 0 0 0 0 0 0 0 0 0 0 0 0 0 0 0 0 0 0 0 0 0 0 0 0 0 0 0 6 7 6 4 0 0 0 0 0 0 0
0 0 0 0 0 0 0 0 0 0 0 0 0 0 0 0 0 0 0 6 0 0 3 0 0 0 0 0 0 0 0 0 0 0 0 0 0 0 0 0 0 0 0 0 0 0 0 0 0

GFSSGP_con_mucape_018.txt.gz
CAPE
0 0 0 0 0 0 0 0 0 15 58 71 94 61 156 290 132 53 619 772 432 203 485 824 1178 1467 1585 1861 2130 2258 2466 2511 2331 2326 2274 2212 2306 2369 1999 1701 1074 850 1293 1475 1728 1750 1912 1728 1618
0 0 0 0 0 0 0 0 0 56 238 209 231 230 389 356 616 544 617 611 597 177 334 750 1178 1360 1519 1636 1836 2024 2033 2338 2603 2470 2349 2359 2419 2301 1794 1074 668 638 1314 1399 1551 1752 1860 1662 1528
0 0 0 0 0 0 0 19 104 225 89 213 363 464 498 692 736 602 655 815 679 626 343 833 1106 1249 1475 1525 1627 1766 1950 2246 2381 2439 2401 2301 2054 2106 1590 1339 1116 1364 1515 1393 1544 1720 1488 1580 1374
0 0 0 0 0 0 0 62 221 211 134 346 522 491 610 684 899 906 832 745 481 320 281 773 996 1214 1453 1560 1578 1575 1617 1889 2230 2308 2238 2040 1700 1584 1476 1423 1165 1450 1663 1689 1475 1674 1697 1426 939
0 0 0 0 0 0 0 117 129 99 152 351 313 511 756 873 921 871 945 891 316 221 216 548 1016 1306 1542 1466 1334 1518 1602 1681 1790 2051 2165 1945 1998 1954 1795 1342 1061 1648 1457 1349 1884 1382 1580 1381 785
0 0 0 0 0 0 0 0 1 18 53 227 432 405 705 1000 901 946 993 469 271 300 405 454 850 930 1151 1314 1225 1210 1297 1486 1507 1590 1984 1883 1782 1700 1585 1723 1736 1256 783 645 495 369 1082 628 373
0 0 0 0 0 0 0 0 0 0 1 0 55 350 807 1036 1006 1058 1009 331 401 613 717 743 715 698 656 623 722 873 1077 1155 1338 1310 1201 1072 1112 1219 1324 1329 1327 1170 1199 1232 938 595 736 673 516
0 0 0 0 0 0 0 0 0 0 0 0 7 379 651 1179 1171 1180 1153 731 954 874 928 1045 913 789 559 260 430 446 762 1019 1105 1108 802 657 553 676 855 561 678 443 445 514 618 641 607 516 415
0 0 0 0 0 0 0 0 0 0 0 0 86 115 152 1154 1365 1325 1267 1167 1045 1124 1095 1163 1112 962 821 437 350 398 441 686 915 901 615 455 379 260 139 379 284 121 117 144 168 185 176 183 182
0 0 0 0 0 0 0 0 0 0 0 15 6 15 612 1128 1363 1459 1422 1295 1356 1320 1398 1243 1250 1168 964 685 380 446 395 401 505 662 539 478 447 239 59 3 34 17 28 38 9 3 1 0 0
0 0 0 0 0 0 0 0 0 0 0 0 0 91 1071 1193 1199 1414 1442 1324 1331 1401 1472 1310 1204 1115 1043 825 519 368 477 494 468 454 491 427 569 467 174 92 62 4 0 0 0 0 0 0 0
0 0 0 0 0 0 0 0 0 0 0 0 0 330 1156 1287 1043 1199 1218 1290 1099 1178 1205 966 663 159 303 509 536 490 440 537 432 513 508 401 387 465 240 107 13 0 0 0 0 0 0 0 0
0 0 0 0 0 0 0 0 0 0 0 0 0 451 1036 1140 900 879 885 809 873 918 859 371 0 52 104 240 280 329 364 532 356 345 226 191 185 30 2 0 0 0 0 0 0 0 0 0 0
0 0 0 0 0 0 0 0 0 0 0 0 0 39 899 1063 1007 991 906 714 703 748 645 4 0 20 14 66 259 400 604 396 263 295 183 37 0 0 0 0 0 0 0 0 0 0 0 0 0
0 0 0 0 0 0 0 0 0 0 0 0 0 0 29 321 452 149 124 273 650 542 411 0 0 0 0 0 0 2 3 3 6 5 0 0 0 0 0 0 0 0 0 0 0 0 0 0 0
0 0 0 0 0 0 0 0 0 0 0 0 0 0 65 149 0 0 1 248 105 132 177 0 0 0 0 0 0 0 0 0 0 0 0 0 0 0 0 0 0 0 0 0 0 0 0 0 0
0 0 0 0 0 0 0 0 0 0 0 0 0 0 0 33 0 0 17 116 29 59 1 0 0 0 0 0 0 0 0 0 0 0 0 0 0 0 0 0 0 0 0 0 0 0 0 0 0
0 0 0 0 0 0 0 0 0 0 0 0 0 0 0 0 0 0 0 0 0 0 0 0 0 0 0 0 0 0 0 0 0 0 0 0 0 0 0 0 0 0 0 0 0 0 0 0 0
0 0 0 0 0 0 0 0 0 0 0 0 0 0 0 0 0 0 0 0 0 0 0 0 0 0 0 0 0 0 0 0 0 0 0 0 0 0 0 0 0 0 0 0 0 0 0 0 0
0 0 0 0 0 0 0 0 0 0 0 0 0 0 0 0 0 0 0 0 0 0 0 0 0 0 0 0 0 0 0 0 0 0 0 0 0 0 0 0 0 0 0 0 0 0 0 0 0
0 0 0 0 0 0 0 0 0 0 0 0 0 0 0 0 0 0 0 0 0 0 0 0 0 0 0 0 0 0 0 0 0 0 0 0 0 0 0 0 0 0 0 0 0 0 0 0 0
0 0 0 0 0 0 0 0 0 0 0 0 0 0 0 0 0 0 0 0 0 0 0 0 0 0 0 0 0 0 0 0 0 0 0 0 0 0 0 0 0 0 0 0 0 11 4 3 0
0 0 0 0 0 0 0 0 0 0 0 0 0 0 0 0 0 0 0 0 0 0 0 0 0 0 0 0 0 0 0 0 0 0 0 0 0 0 0 0 0 0 0 0 7 15 15 8 8
0 0 0 0 0 0 0 0 0 0 0 0 0 0 0 0 0 0 0 0 0 0 0 0 0 0 0 1 4 8 0 0 0 0 0 0 0 0 0 0 0 0 0 0 0 16 13 12 1
0 0 0 0 0 0 0 0 0 0 0 0 0 0 0 0 0 0 0 0 0 5 13 4 2 6 3 7 18 15 0 0 0 0 0 0 0 0 0 0 0 0 0 0 0 0 6 15 8
0 0 0 0 0 0 0 0 0 0 0 0 0 0 0 0 0 0 0 0 7 17 5 0 1 1 0 0 0 0 0 0 0 0 0 0 0 0 0 0 0 0 0 0 2 5 39 11 11
0 0 0 0 0 0 0 0 0 0 0 0 0 0 0 0 0 0 0 0 5 0 0 0 0 0 0 0 0 0 0 0 0 0 0 0 0 0 0 0 0 0 0 6 10 11 19 22 0
0 0 0 0 0 0 0 0 0 0 0 0 0 0 0 0 0 0 0 0 2 3 1 0 0 0 0 0 0 0 0 0 0 0 0 0 0 0 0 0 2 2 1 0 0 4 8 0 0
0 0 0 0 0 0 0 0 0 0 0 0 0 0 0 0 0 0 0 0 0 0 0 0 0 0 0 0 0 0 0 0 0 0 0 0 0 0 0 0 1 0 0 0 0 0 0 0 0
0 0 0 0 0 0 0 0 0 0 0 0 0 0 0 0 0 0 0 0 0 0 0 0 0 0 0 0 0 0 0 0 0 0 0 0 0 0 0 0 0 0 0 0 0 0 0 0 0

GFSSGP_con_mucape_021.txt.gz
CAPE
0 0 0 0 0 0 0 0 0 50 79 84 74 23 114 247 78 43 539 470 183 401 671 911 1129 1288 1434 1756 2013 2103 2245 2249 2225 2125 2212 2288 2266 2156 1836 1310 852 1019 1357 1676 1717 1822 2005 1830 1531
0 0 0 0 0 0 0 0 0 54 170 148 173 265 304 249 505 427 588 507 165 283 540 953 1113 1260 1418 1518 1757 2021 2136 2450 2514 2489 2391 2403 2270 2097 1634 1016 906 1078 1389 1356 1493 1714 1847 1882 1596
0 0 0 0 0 0 0 0 111 191 67 134 348 364 428 486 560 567 481 591 321 234 481 973 1074 1177 1271 1367 1548 1837 1927 2213 2336 2467 2485 2381 2263 2000 1555 1090 973 1178 1591 1566 1623 1905 1754 1632 1416
0 0 0 0 0 0 0 56 180 173 166 346 370 307 456 504 665 707 704 581 625 262 502 838 936 1053 1203 1374 1393 1371 1476 1891 2070 2168 2163 1947 1627 1609 1437 1342 1138 1169 1769 1899 1634 1714 1726 1216 759
0 0 0 0 0 7 45 103 184 128 140 300 212 402 582 710 797 723 741 462 237 174 347 738 842 1080 1350 1222 1166 1355 1463 1488 1635 1837 1970 1965 1944 1841 1605 1164 1162 1597 1172 1031 1606 1179 1466 986 596
0 0 0 0 0 0 48 100 80 41 112 130 269 296 492 677 759 823 730 441 213 132 303 562 847 1073 1185 1172 1145 1162 1280 1314 1304 1624 1571 1527 1472 1422 1427 1466 1346 1238 1182 1060 512 672 602 624 666
0 0 0 0 0 0 0 0 0 14 43 30 103 328 558 881 771 811 683 313 279 322 408 538 638 688 603 602 688 842 969 1118 1105 1092 940 909 978 1130 1096 1180 1028 1011 1033 1046 897 652 498 437 383
0 0 0 0 0 0 0 0 0 0 0 0 1 248 686 850 908 926 759 386 456 576 545 668 790 636 532 558 331 470 746 878 976 882 604 434 463 623 534 684 485 385 350 382 468 493 470 420 337
0 0 0 0 0 0 0 0 0 0 0 0 0 72 104 988 992 1014 876 687 611 600 758 779 845 807 567 281 319 354 455 687 791 741 396 407 605 432 393 272 185 75 17 24 34 17 18 11 15
0 0 0 0 0 0 0 0 0 0 0 0 0 0 246 1033 1080 1164 1125 1151 1047 1030 1003 848 977 1053 758 474 251 481 555 739 870 963 772 615 454 262 95 45 34 1 0 0 0 0 0 0 0
0 0 0 0 0 0 0 0 0 0 0 0 0 40 713 1100 1250 1341 1290 1233 1332 1296 1240 1079 1007 1003 1009 929 442 286 423 626 661 628 793 659 423 330 208 93 80 64 0 0 0 0 0 0 0
0 0 0 0 0 0 0 0 0 0 0 0 0 301 885 974 1244 1396 1450 1352 1090 1173 1455 1252 1033 824 613 594 706 358 409 533 664 641 513 590 639 613 365 137 88 49 0 0 0 0 0 0 0
0 0 0 0 0 0 0 0 0 0 0 0 0 444 995 1058 1104 1192 1365 1263 953 968 1086 1050 506 29 41 34 247 381 420 609 614 448 319 322 432 443 214 114 13 0 0 0 0 0 0 0 0
0 0 0 0 0 0 0 0 0 0 0 0 0 416 1018 1152 974 873 1038 909 813 750 873 737 184 22 19 32 110 291 302 373 429 255 260 185 92 65 16 0 0 0 0 0 0 0 0 0 0
0 0 0 0 0 0 0 0 0 0 0 0 0 3 616 870 820 673 755 700 683 598 682 696 188 0 0 0 0 2 26 40 9 24 69 52 1 0 5 10 15 0 0 0 0 0 0 0 0
0 0 0 0 0 0 0 0 0 0 0 0 0 0 0 435 614 637 748 640 627 353 508 436 98 0 0 0 0 0 0 0 0 0 0 0 0 0 0 0 8 30 0 0 0 0 0 0 0
0 0 0 0 0 0 0 0 0 0 0 0 0 0 0 0 5 84 1 0 1 150 117 209 4 0 0 0 0 0 0 0 0 0 0 0 0 0 0 0 0 25 16 0 0 0 0 0 0
0 0 0 0 0 0 0 0 0 0 0 0 0 0 0 0 0 15 0 0 0 2 8 78 0 0 0 0 0 0 0 0 0 0 0 0 0 0 0 0 0 0 0 0 0 0 0 0 0
0 0 0 0 0 0 0 0 0 0 0 0 0 0 0 0 0 0 0 0 0 0 0 0 0 0 0 0 0 0 0 0 0 0 0 0 0 0 0 0 0 0 0 0 0 0 0 0 0
0 0 0 0 0 0 0 0 0 0 0 0 0 0 0 0 0 0 0 0 0 0 0 0 0 0 0 0 0 0 0 0 0 3 0 0 0 0 0 0 0 0 0 0 0 0 0 0 0
0 0 0 0 0 0 0 0 0 0 0 0 0 0 0 0 0 0 0 0 0 0 0 0 0 0 0 0 0 0 0 2 3 0 0 0 0 0 0 0 0 0 0 0 0 0 0 0 0
0 0 0 0 0 0 0 0 0 0 0 0 0 0 0 0 0 0 0 0 0 0 0 0 0 0 0 0 0 0 0 0 0 0 0 0 0 0 0 0 0 0 0 0 0 0 0 0 1
0 0 0 0 0 0 0 0 0 0 0 0 0 0 0 0 0 0 0 0 0 0 0 0 0 0 0 0 0 0 0 0 1 1 0 0 0 0 0 0 0 0 0 0 0 0 0 0 9
0 0 0 0 0 0 0 0 0 0 0 0 0 0 0 0 0 0 0 0 0 0 0 0 1 4 0 1 1 0 0 2 0 0 0 0 0 0 0 0 0 0 0 0 0 0 0 0 0
0 0 0 0 0 0 0 0 0 0 0 0 0 0 0 0 0 1 0 0 0 1 8 12 11 11 16 26 14 1 0 0 0 0 0 0 0 0 0 0 0 0 0 0 0 0 0 0 0
0 0 0 0 0 0 0 0 0 0 0 0 0 0 0 0 0 0 0 0 0 1 9 13 40 33 12 7 0 0 0 0 0 0 0 0 0 0 0 0 0 0 0 0 0 0 1 7 10
0 0 0 0 0 0 0 0 0 0 0 0 0 0 0 0 0 0 0 0 0 8 21 17 8 2 0 0 0 0 0 0 0 0 0 0 0 0 0 0 0 0 0 0 0 0 1 3 0
0 0 0 0 0 0 0 0 0 0 0 0 0 0 0 0 0 0 0 0 3 5 2 0 0 0 0 0 0 0 0 0 0 0 0 0 0 0 0 0 0 0 0 0 0 0 0 0 0
0 0 0 0 0 0 0 0 0 0 0 0 0 0 0 0 0 0 0 2 3 0 0 0 0 0 0 0 0 0 0 0 0 0 0 0 0 0 0 0 0 1 0 0 0 0 0 0 0
0 0 0 0 0 0 0 0 0 0 0 0 0 0 0 0 0 0 0 0 0 0 0 0 0 0 0 0 0 0 0 0 0 0 0 0 0 0 0 0 1 2 0 0 0 0 0 0 0

GFSSGP_con_mucape_024.txt.gz
CAPE
0 0 0 0 0 0 0 0 30 82 76 147 136 56 209 296 199 379 570 383 230 436 783 1019 1072 1327 1654 1851 1827 2039 1923 1816 1845 1897 2081 2036 2310 2129 1802 1360 1182 1493 1449 1593 1491 1741 1800 1850 1590
0 0 0 0 0 0 0 0 36 63 121 144 135 98 73 225 469 622 718 322 230 383 672 1006 1009 1221 1419 1665 1892 2124 2052 2073 2011 1900 1908 1960 1980 1873 1451 1148 1367 1346 1455 1487 1585 1771 1997 1951 1549
0 0 0 0 0 0 0 0 80 124 118 157 142 231 242 197 463 622 692 215 126 251 591 981 929 1049 1278 1362 1542 1661 1857 2034 2088 2300 2203 2210 2138 1795 1614 1186 1267 1297 1751 1708 1719 2087 1705 1360 1040
0 0 0 0 0 0 0 41 128 119 169 149 130 179 381 563 596 665 515 280 140 167 385 648 789 936 1164 1128 1057 1306 1650 1871 2039 2115 1970 1803 1632 1539 1457 1338 1184 1640 1704 1759 1727 1728 1474 912 719
0 0 0 0 0 0 10 72 100 88 130 197 179 246 413 777 901 640 617 529 149 100 214 353 736 946 1116 877 998 1121 1280 1461 1769 1870 1906 1909 1890 1751 1591 1054 1460 1230 914 843 1137 1088 1030 713 574
0 0 0 0 0 0 29 85 21 4 44 126 121 93 380 883 831 835 632 394 86 96 303 303 636 940 925 966 975 1068 1169 1192 1433 1435 1446 1419 1391 1376 1455 1405 1283 1164 1174 658 639 639 764 768 714
0 0 0 0 0 0 0 0 0 0 2 2 36 32 408 769 864 837 650 276 127 144 318 537 632 537 537 579 690 776 959 1015 1042 957 936 934 1006 1074 1145 1062 1025 1017 990 893 720 449 351 325 290
0 0 0 0 0 0 0 0 0 0 0 19 37 7 183 524 880 782 448 266 393 554 682 897 951 897 882 731 282 586 709 811 848 661 544 452 633 580 673 600 448 372 337 269 238 235 225 186 139
0 0 0 0 0 0 0 0 0 0 0 0 0 62 283 799 941 726 457 451 698 848 1171 1229 1134 1290 1093 665 607 230 510 674 695 662 332 474 868 757 653 151 96 18 0 0 0 0 0 0 0
0 0 0 0 0 0 0 0 0 0 0 0 7 67 535 1112 1096 891 591 657 735 1049 1270 1491 1673 1652 1451 553 805 951 852 891 1048 1078 1058 804 1051 840 326 133 12 2 0 0 0 0 0 0 0
0 0 0 0 0 0 0 0 0 0 0 0 0 11 738 1158 1266 1182 796 485 517 1051 1315 1569 1882 1959 1631 712 620 463 626 799 1058 1306 1310 1143 1024 990 940 801 661 615 17 71 0 0 0 0 0
0 0 0 0 0 0 0 0 0 0 0 0 0 0 523 843 919 950 597 292 519 775 1181 1827 1928 1782 1317 452 299 435 526 659 866 1011 1460 1308 983 838 905 702 528 427 119 118 1 0 0 0 0
0 0 0 0 0 0 0 0 0 0 0 0 0 67 308 397 416 498 426 138 275 483 911 1805 1973 1424 332 563 467 722 875 679 925 1078 991 1295 761 604 552 337 218 66 4 5 5 4 6 0 0
0 0 0 0 0 0 0 0 0 0 0 0 0 2 192 317 234 450 704 633 712 915 1247 1837 1546 621 309 357 595 485 661 520 744 472 425 1080 994 461 184 8 0 0 0 0 0 0 0 0 0
0 0 0 0 0 0 0 0 0 0 0 0 0 0 55 220 353 378 327 489 485 778 1160 1638 1228 464 364 321 252 191 90 289 72 16 189 344 462 100 76 8 0 0 0 25 65 6 0 0 0
0 0 0 0 0 0 0 0 0 0 0 0 0 0 15 219 404 394 525 712 915 1070 945 1033 601 545 263 162 110 11 0 0 0 0 7 31 64 80 49 8 0 0 5 0 0 0 0 0 0
0 0 0 0 0 0 0 0 0 0 0 0 0 0 0 0 315 607 499 617 481 530 665 787 794 454 173 93 36 24 31 24 0 8 2 1 12 24 53 34 22 37 40 21 33 9 0 0 0
0 0 0 0 0 0 0 0 0 0 0 0 0 0 0 0 8 173 2 0 0 23 134 278 415 223 61 39 9 2 9 3 0 0 0 0 0 0 4 2 17 47 57 37 42 69 42 0 0
0 0 0 0 0 0 0 0 0 0 0 0 0 0 0 0 0 0 0 0 0 0 0 21 38 16 0 0 0 0 0 0 0 0 0 0 0 0 0 0 0 14 32 54 57 49 81 77 13
0 0 0 0 0 0 0 0 0 0 0 0 0 0 0 0 0 0 0 0 0 0 0 0 0 0 0 0 0 0 0 0 0 0 1 0 0 0 0 0 0 0 0 8 23 69 74 52 23
0 0 0 0 0 0 0 0 0 0 0 0 0 0 0 0 0 0 0 0 0 0 0 0 0 0 0 0 0 0 0 0 0 0 0 0 0 1 0 0 0 0 0 0 0 5 25 43 48
0 0 0 0 0 0 0 0 0 0 0 0 0 0 0 0 0 0 0 0 0 0 0 0 0 0 0 0 0 0 0 2 0 0 0 1 0 0 0 0 0 0 0 0 0 2 11 38 30
0 0 0 0 0 0 0 0 0 0 0 0 0 0 0 0 0 0 0 0 0 0 0 0 0 0 0 0 0 0 0 0 10 0 0 0 0 0 0 0 0 0 0 0 1 8 21 28 46
0 0 0 0 0 0 0 0 0 0 0 0 0 0 0 0 0 0 0 0 0 0 0 0 0 0 0 0 0 1 0 0 0 0 0 0 0 0 0 0 0 0 0 0 2 7 11 14 14
0 0 0 0 0 0 0 0 0 0 0 0 0 0 0 0 0 0 0 0 0 0 0 0 0 1 1 13 13 0 0 0 0 0 0 0 0 0 0 0 3 5 9 10 6 0 0 0 0
0 0 0 0 0 0 0 0 0 0 0 0 0 0 0 0 0 0 0 0 0 0 0 0 8 10 13 4 0 0 0 0 0 0 0 0 0 0 3 9 15 15 12 0 0 0 0 0 0
0 0 0 0 0 0 0 0 0 0 0 0 0 0 0 0 0 0 0 0 0 0 0 0 0 0 0 0 0 0 0 0 0 0 0 0 0 0 8 15 16 27 0 0 0 0 0 0 0
0 0 0 0 14 0 0 0 0 0 0 0 0 0 0 0 0 0 0 0 0 0 0 0 0 0 8 10 11 0 0 4 2 0 0 0 4 17 14 11 0 2 0 0 0 0 0 0 0
0 0 0 0 0 0 0 0 0 0 0 0 0 0 0 0 0 0 0 1 3 4 5 0 0 9 18 22 14 13 18 5 1 0 3 14 22 7 1 0 1 0 0 0 0 0 0 0 0
0 0 0 0 0 0 0 0 0 0 0 0 0 0 2 4 5 4 2 3 0 0 0 0 0 0 0 0 5 10 19 12 4 7 8 17 12 0 0 1 0 0 0 0 0 0 0 0 0

GFSSGP_con_mucape_027.txt.gz
CAPE
0 0 0 0 0 0 8 44 40 32 25 25 0 52 56 224 408 490 465 262 492 685 804 870 1108 1551 1693 1746 1760 1862 1831 1762 1820 1941 1859 1768 1837 1785 1407 1182 1317 1377 1364 1387 1454 1636 1995 1921 1638
0 0 0 0 0 2 33 23 50 58 11 0 0 5 14 177 449 513 298 211 410 634 838 938 970 1230 1430 1597 1781 2017 1915 1880 1915 1848 1711 1764 1812 1549 1378 1324 1240 1439 1631 1684 1850 2028 1877 1742 1371
0 0 0 0 0 34 26 28 40 11 0 9 10 49 111 273 430 575 211 132 187 420 869 870 855 1018 1229 1444 1583 1740 1860 1963 2118 2313 2138 2075 1849 1673 1561 1276 1227 1286 1796 1742 1638 1826 1372 1051 923
0 0 0 0 6 0 5 51 39 17 19 15 1 56 314 356 484 411 156 108 194 388 559 579 703 863 1032 993 1170 1474 1654 1785 2023 2145 1945 1793 1645 1394 1363 1255 1424 1635 1398 1834 1843 1664 1181 787 696
0 0 0 1 0 5 45 40 35 78 62 21 2 27 342 562 549 412 371 132 115 119 229 390 666 895 978 741 827 932 1187 1516 1764 1848 1863 1869 1779 1668 1579 1264 1369 1094 1030 770 796 1130 853 537 473
0 0 2 10 11 17 30 21 0 43 27 0 0 49 418 586 553 542 453 116 11 41 91 75 548 865 910 814 838 974 1030 1100 1332 1323 1349 1316 1290 1344 1317 1276 1209 1170 947 769 728 770 730 680 589
0 2 14 5 2 8 5 0 0 1 0 0 0 9 308 438 556 462 228 4 0 13 109 242 381 350 646 613 679 808 884 893 812 691 719 783 909 990 991 925 911 846 652 608 430 283 211 201 200
0 0 0 1 2 0 0 0 0 0 0 0 0 0 195 521 516 363 69 0 3 107 258 411 484 649 811 714 400 595 720 740 663 475 389 503 605 633 628 615 454 405 362 233 105 94 91 60 26
0 0 0 0 0 0 0 0 0 0 0 0 0 23 114 508 482 276 102 75 206 361 503 622 584 743 551 366 387 293 569 721 613 540 308 636 986 765 687 156 108 25 0 0 0 0 0 0 0
0 0 0 0 0 0 0 0 0 0 0 0 0 0 291 458 396 190 109 137 299 427 616 783 947 1015 699 66 361 492 388 734 725 715 698 672 692 772 102 193 59 9 28 0 0 0 0 0 0
0 0 0 0 0 0 0 0 0 0 0 0 0 0 210 371 378 274 118 85 161 439 460 545 1290 1106 745 338 135 204 247 297 698 827 804 757 586 635 606 567 806 904 144 246 8 7 0 0 0
0 0 0 0 0 0 0 0 0 0 0 0 0 0 74 188 256 321 316 122 38 402 314 537 1069 1116 671 167 21 86 105 338 357 682 729 700 453 460 473 241 175 106 58 58 27 19 8 2 0
0 0 0 0 0 0 0 0 0 0 0 0 0 0 67 246 271 236 189 63 88 114 129 618 1332 1665 194 128 121 181 310 381 636 485 469 466 265 301 191 120 24 2 3 6 10 10 7 13 4
0 0 0 0 0 0 0 0 0 0 0 0 0 0 0 4 76 100 114 58 37 71 235 517 1385 1669 206 85 217 168 333 292 403 190 178 181 243 141 78 19 0 0 0 2 0 0 0 0 0
0 0 0 0 0 0 0 0 0 0 0 0 0 0 0 3 11 62 236 275 130 130 304 725 1473 1399 594 204 186 31 14 5 2 0 1 33 67 38 56 32 23 8 7 83 12 8 11 17 10
0 0 1 0 0 0 0 9 0 0 0 0 0 0 0 7 17 27 27 76 150 197 334 680 1004 1092 1015 161 85 10 2 8 0 0 0 4 28 51 67 53 54 43 99 41 40 38 40 41 28
0 22 0 0 0 0 0 5 0 0 0 0 0 0 0 0 38 92 155 337 302 346 462 666 969 1218 960 238 112 41 40 43 3 5 11 1 11 8 39 38 37 111 53 104 147 119 207 124 76
0 0 0 0 0 0 0 0 0 0 0 0 0 0 0 0 7 252 436 53 47 119 307 541 781 1025 699 281 100 31 24 20 2 2 0 0 0 0 0 7 51 81 60 157 219 346 201 231 240
0 0 0 0 0 0 0 0 0 0 0 0 0 0 0 0 0 0 4 0 0 0 20 281 491 338 149 104 44 11 3 0 0 0 0 0 0 0 1 1 1 42 38 139 260 277 287 294 354
0 0 0 0 0 0 0 0 0 0 0 0 0 0 0 0 0 0 0 0 0 0 0 0 0 3 0 0 0 0 0 0 0 3 0 0 0 0 0 0 0 0 0 20 88 206 212 274 358
0 0 0 0 0 0 0 0 0 0 0 0 0 0 0 0 0 0 0 0 0 0 0 0 0 0 0 0 0 0 0 0 2 0 2 0 0 3 0 0 0 0 0 0 55 87 135 148 155
0 0 0 0 0 6 0 61 0 0 0 0 0 0 0 0 0 0 0 0 0 0 0 0 0 0 0 0 0 0 3 5 8 5 2 0 0 0 0 0 0 0 0 5 12 21 137 175 111
0 0 0 0 0 0 0 0 8 0 0 0 0 0 0 0 0 0 0 0 0 0 0 0 0 0 0 0 0 0 0 0 0 1 0 0 0 0 0 0 0 0 0 8 12 22 29 26 50
0 0 0 0 2 19 1 8 50 0 0 0 0 0 0 0 0 0 0 0 0 0 0 0 0 0 0 0 0 0 0 0 6 3 0 0 0 0 0 0 0 1 4 22 29 31 14 8 10
0 0 107 131 118 136 2 0 45 0 0 0 0 0 0 0 0 0 0 0 0 0 0 0 0 0 0 0 0 0 0 0 0 0 0 0 0 0 0 0 4 15 27 27 16 24 8 0 0
0 0 30 0 31 74 0 0 20 0 0 0 0 0 0 0 0 0 0 0 0 3 8 1 0 0 0 0 0 0 2 3 4 8 0 0 0 1 2 13 22 33 5 8 6 7 9 0 0
5 12 0 0 3 0 0 5 0 0 0 0 0 0 0 0 0 0 0 0 0 0 0 0 0 0 0 0 7 12 15 14 18 17 12 3 2 2 17 1 4 5 10 9 11 3 0 0 0
0 0 5 17 0 0 11 9 59 0 0 0 0 0 0 0 0 3 2 1 0 0 0 1 0 0 10 15 9 6 5 7 7 9 7 10 22 14 7 11 15 8 4 5 0 0 0 0 0
0 3 0 0 0 11 0 0 7 3 5 32 3 3 3 7 13 12 13 15 16 14 14 0 0 0 0 0 0 0 1 4 14 13 23 36 25 7 18 20 3 0 14 0 20 26 0 0 0
0 0 0 1 0 0 0 0 0 0 0 0 0 2 9 23 20 13 24 22 9 4 0 0 0 0 0 0 0 0 5 11 17 15 6 23 23 33 30 23 31 30 37 24 2 31 0 0 0

GFSSGP_con_mucape_030.txt.gz
CAPE
0 0 0 0 0 0 0 25 21 17 24 0 0 0 37 157 449 284 226 430 710 572 687 873 1175 1414 1522 1665 1730 1705 1685 1882 1942 1917 1932 2011 1937 1530 1468 1570 1784 1778 1612 1703 1932 1961 2002 1812 1540
0 0 0 0 0 0 28 17 41 0 0 0 0 4 34 155 197 108 169 432 537 809 675 799 966 1237 1411 1571 1793 1834 1823 1943 1947 1920 1987 1980 1742 1523 1309 1241 1475 1443 1682 1680 1976 1881 1737 1507 1131
0 0 0 0 5 0 2 27 0 0 0 0 1 33 70 175 242 143 156 336 560 778 631 598 771 978 1244 1405 1601 1720 1831 1963 2129 2161 2059 1864 1703 1644 1390 1179 1513 1679 1584 1605 1802 1569 1041 862 733
0 0 0 1 0 2 1 6 0 0 0 11 39 66 107 160 161 131 78 181 398 475 446 389 557 748 937 1177 1381 1475 1559 1697 1830 1902 1860 1650 1540 1347 1107 1766 1386 1210 1191 1488 1613 1316 926 651 611
0 0 0 5 3 11 4 1 0 0 1 0 15 83 204 261 182 63 46 95 145 251 242 240 536 790 868 864 804 1055 1316 1535 1640 1680 1625 1528 1448 1444 1362 1257 1089 1036 763 705 792 766 608 471 520
0 0 0 0 0 3 0 0 7 42 8 0 27 131 273 266 209 219 24 7 0 6 2 70 580 766 814 873 863 857 998 1110 1221 1264 1218 1100 1121 1123 1062 1044 992 941 846 748 680 621 557 466 375
0 0 0 11 0 1 3 0 0 2 0 0 0 74 247 331 299 203 0 0 0 0 0 44 129 374 560 547 637 654 680 667 712 737 743 824 920 957 852 837 724 598 513 433 325 196 113 78 71
0 0 0 0 0 0 0 0 0 0 0 0 0 24 170 365 274 55 0 0 0 2 29 226 205 380 382 333 435 521 567 471 426 390 362 490 556 729 762 587 408 262 195 113 44 0 0 0 0
0 0 0 0 0 0 0 0 0 0 0 0 0 1 296 356 262 19 0 0 2 59 501 474 521 815 915 433 362 444 554 507 402 384 265 467 691 573 690 165 182 70 10 0 0 0 0 0 0
0 0 0 0 0 0 0 0 0 0 0 0 0 269 413 312 226 29 0 12 95 360 391 836 861 1020 614 46 266 652 627 619 654 708 640 823 591 548 120 237 125 115 100 29 10 0 0 0 0
0 0 0 0 0 0 0 0 0 0 0 0 0 150 322 325 189 50 6 17 183 393 495 576 1338 1160 844 597 343 581 641 850 1087 834 760 892 657 717 641 468 267 186 211 112 93 0 2 5 0
0 0 0 0 0 0 0 0 0 0 0 0 0 0 213 188 171 77 6 11 72 308 402 814 1101 1168 727 244 356 420 301 878 598 1097 870 961 673 685 339 308 99 131 115 159 41 15 38 12 10
0 0 0 0 0 0 0 0 0 0 0 0 0 0 69 54 37 63 173 169 53 393 273 769 1207 1349 843 205 635 678 549 902 718 624 819 611 353 564 336 148 63 9 0 0 1 0 0 0 6
0 0 0 0 0 0 0 0 0 0 0 0 0 0 32 162 161 235 252 130 117 154 405 1066 1490 1800 452 297 420 474 778 712 715 441 331 192 352 350 165 90 27 2 0 0 0 0 0 0 0
0 0 0 0 0 0 0 0 0 0 0 0 0 0 1 9 53 101 123 150 52 191 471 955 1537 1786 823 411 379 220 219 43 100 89 56 52 65 128 99 71 53 19 44 40 10 0 0 0 0
0 0 0 0 0 0 0 0 0 0 0 0 0 0 0 24 6 83 244 267 192 194 379 811 874 1649 1428 921 357 164 88 84 30 6 15 4 10 60 71 82 90 100 90 50 47 46 20 11 11
0 0 5 0 0 0 0 0 0 0 0 0 0 0 0 0 29 72 101 153 291 550 584 696 978 1310 1440 1025 311 225 78 48 66 54 33 46 6 59 32 30 50 95 55 50 60 36 52 47 43
0 0 0 0 0 0 0 0 0 0 0 0 0 0 0 0 37 163 127 172 76 294 459 582 778 1295 1153 595 231 97 60 56 71 31 2 0 0 8 9 0 13 73 31 25 41 75 95 100 99
0 0 0 0 0 0 0 0 0 0 0 0 0 0 0 0 19 117 243 233 53 127 185 255 469 425 369 198 76 36 7 3 0 0 5 3 16 0 0 0 0 0 0 0 0 0 0 0 73
0 0 0 0 0 0 0 0 0 0 0 0 0 0 0 0 0 92 223 197 46 0 0 0 53 72 14 0 0 0 0 0 4 16 0 7 5 0 0 0 0 0 0 0 0 0 0 0 7
0 0 0 0 0 0 0 0 0 0 0 0 0 0 0 0 0 0 0 0 0 0 0 0 0 0 0 0 0 0 0 5 2 5 3 0 0 0 0 0 0 0 0 0 0 0 0 1 0
0 0 0 0 0 0 7 0 0 0 0 0 0 0 0 0 0 0 0 0 0 0 0 0 0 0 0 0 0 0 0 0 0 0 0 0 0 0 0 0 0 0 0 0 0 0 3 7 0
0 0 0 0 0 0 0 4 54 0 0 0 0 0 0 0 0 0 0 0 0 0 0 0 0 0 0 0 0 0 0 0 0 0 0 0 0 0 0 0 0 0 0 0 8 1 0 3 16
0 0 0 0 0 105 49 15 17 13 0 0 0 0 0 0 0 0 0 0 0 0 0 0 0 0 1 0 0 0 0 0 0 0 0 0 0 0 0 0 0 0 0 0 0 4 3 5 1
0 0 316 306 357 350 88 69 84 10 1 0 0 0 0 0 0 0 0 0 0 3 6 0 0 0 0 0 0 0 0 0 0 0 0 0 0 0 0 0 0 0 1 3 9 8 9 9 6
0 0 456 27 240 208 7 16 5 9 26 12 0 0 0 0 0 0 0 2 1 1 0 0 0 0 0 0 0 2 0 0 0 6 2 1 0 0 0 0 1 1 9 18 21 1 1 0 0
3 81 0 0 55 98 0 38 21 1 0 0 0 0 1 0 0 0 6 7 0 0 0 0 0 0 0 0 0 0 0 0 2 8 1 0 0 0 0 0 0 0 7 10 4 4 0 0 0
0 0 0 240 17 0 0 3 28 2 0 0 0 2 3 0 1 11 4 2 0 2 0 7 0 0 0 0 0 0 0 0 0 1 1 0 0 0 1 6 4 4 1 0 0 4 4 14 5
0 1 0 0 4 13 0 0 0 1 17 32 55 31 1 1 0 0 0 0 0 0 3 11 4 0 0 0 0 0 0 0 0 0 0 0 0 1 7 19 1 7 21 17 15 20 17 24 28
0 0 0 47 0 20 49 0 0 0 3 2 0 0 3 7 10 0 5 6 14 15 19 12 3 0 0 0 0 0 0 0 0 0 0 0 8 14 24 21 24 27 17 19 16 15 20 30 19

GFSSGP_con_mucape_033.txt.gz
CAPE
0 0 0 0 0 7 49 11 26 49 18 18 35 107 147 193 103 189 496 519 421 597 731 872 976 1214 1350 1441 1399 1513 1698 1760 1769 1838 1851 1717 1518 1482 1416 1386 1656 1879 1594 1855 1966 1927 1870 1721 1389
0 0 0 0 3 34 33 6 0 0 25 58 45 73 37 69 185 347 484 505 497 577 675 772 881 1074 1285 1366 1455 1546 1696 1710 1736 1865 1832 1747 1524 1338 1244 1205 1581 1773 1534 1584 1836 1677 1419 1229 997
0 0 0 3 3 0 29 1 0 0 0 4 11 24 178 209 188 306 466 626 514 483 520 568 691 897 1147 1293 1389 1467 1613 1696 1770 1783 1823 1603 1411 1193 1112 1520 1568 1372 1655 1802 1740 1382 941 683 683
0 0 0 1 5 1 0 0 2 0 0 0 0 27 110 196 121 275 520 601 578 389 283 357 476 739 1030 1185 1297 1337 1411 1439 1505 1556 1633 1447 1396 1119 1315 1124 1111 925 942 1281 1398 988 646 445 395
0 0 0 19 14 2 9 0 0 0 4 35 56 144 48 129 68 120 247 280 193 97 95 198 396 623 773 820 831 1103 1230 1257 1368 1424 1401 1252 1190 1194 1038 991 879 678 573 523 526 488 431 461 457
0 1 10 15 0 1 1 1 12 0 0 57 89 183 140 60 17 44 145 86 36 0 23 190 515 583 636 658 638 676 773 867 958 1045 1091 936 995 1055 882 840 772 703 643 530 414 320 241 211 199
8 3 6 31 3 7 29 4 0 0 0 1 98 194 220 185 56 0 1 0 0 0 0 71 197 339 345 315 333 373 444 492 529 567 628 653 694 769 849 761 553 470 373 281 150 52 9 3 0
0 16 14 0 0 1 2 0 0 0 0 0 26 222 296 295 37 0 0 0 0 0 3 18 121 158 98 94 191 209 183 163 147 239 278 291 433 529 568 462 542 381 267 145 55 0 0 0 0
0 25 14 0 0 0 0 0 0 0 0 0 26 289 308 176 6 0 0 0 0 43 103 215 269 307 238 14 152 231 261 158 204 152 304 394 503 382 393 233 258 219 78 8 0 0 0 0 0
0 0 0 0 0 0 0 0 0 0 0 146 277 338 301 131 0 0 0 0 13 152 255 312 364 405 386 55 86 40 156 309 324 301 383 417 510 422 344 183 150 127 62 25 30 1 0 0 0
0 0 0 0 0 0 0 0 0 0 0 115 306 333 222 147 0 0 0 0 112 124 349 407 331 157 214 260 136 248 143 357 461 523 268 446 200 318 243 269 174 96 60 73 96 6 0 0 0
0 0 0 0 0 0 0 0 0 0 0 0 308 288 188 134 12 0 0 21 149 165 431 421 318 195 56 5 8 349 454 512 561 513 319 251 148 84 56 220 111 66 50 91 40 6 0 0 0
0 0 0 0 0 0 0 0 0 0 0 0 242 224 230 166 85 17 0 28 143 298 391 356 248 238 8 0 0 8 148 168 216 406 295 175 50 41 39 6 3 0 0 0 0 0 0 0 0
0 0 0 0 0 0 0 0 0 0 0 0 5 167 123 110 125 52 69 71 177 273 416 416 348 348 7 8 24 44 90 187 69 204 139 87 39 21 19 0 1 2 0 0 0 0 0 0 0
0 0 0 0 0 0 0 0 0 0 0 0 0 22 3 35 40 107 143 66 233 109 458 476 673 886 342 23 37 10 241 66 19 8 0 7 1 8 0 0 11 4 11 4 4 0 0 0 0
0 0 0 0 0 0 0 0 0 0 0 0 0 0 1 63 72 139 111 40 15 29 461 649 1128 699 437 201 171 11 8 0 0 0 0 0 0 0 0 3 0 0 0 0 0 0 0 0 0
1 0 0 0 0 0 0 0 0 0 0 0 0 0 0 12 53 66 86 126 119 159 285 700 1074 677 564 330 233 59 37 14 0 0 0 0 0 0 0 0 0 0 0 0 0 0 0 0 0
0 0 0 0 0 0 0 0 0 0 0 0 0 0 0 3 9 46 60 101 160 244 354 406 724 685 607 332 136 71 35 18 4 0 0 0 0 0 0 0 0 0 0 0 0 0 0 0 0
0 0 0 0 0 0 0 0 0 0 0 0 0 0 0 9 33 34 63 152 166 183 214 290 415 245 163 68 73 62 34 18 8 2 12 22 6 0 0 0 0 0 0 0 0 0 0 0 0
0 0 0 0 0 0 0 0 0 0 0 0 0 0 0 0 118 254 234 208 192 111 59 41 78 165 102 24 22 41 45 15 11 5 1 1 0 0 0 0 0 0 0 0 0 0 0 0 0
0 0 0 0 0 0 0 0 0 0 0 0 0 0 0 0 0 54 112 57 50 47 1 0 0 0 0 0 0 0 0 0 0 0 0 0 0 0 0 0 0 0 0 0 0 0 0 0 0
0 0 0 0 0 0 0 0 0 0 0 0 0 0 0 0 0 0 0 6 0 0 0 0 0 0 0 0 0 0 0 0 0 0 0 0 0 0 0 0 0 0 0 0 0 0 0 8 8
0 0 0 0 0 0 0 0 0 0 0 0 0 0 0 0 0 0 0 0 0 0 0 0 0 0 0 0 0 0 0 0 0 0 0 0 0 0 0 0 0 0 0 0 0 4 7 4 5
0 0 0 0 0 0 24 8 0 0 0 0 0 3 0 0 0 0 0 0 0 0 0 0 0 0 0 0 0 0 0 0 0 0 0 0 0 0 0 0 0 0 0 0 0 0 0 0 0
0 0 3 18 59 31 24 18 5 0 6 0 0 0 0 0 0 0 0 0 0 0 0 0 0 0 0 0 0 0 0 0 0 0 0 0 0 0 0 0 0 0 0 0 0 3 3 0 1
0 0 3 0 0 1 0 2 0 5 9 5 11 10 0 0 0 0 0 0 0 0 0 0 0 0 0 0 0 0 0 0 0 0 0 0 0 0 0 0 0 0 0 0 0 0 0 0 0
0 4 0 0 0 0 0 0 9 37 28 23 9 0 0 0 0 0 0 0 0 0 0 0 0 0 0 0 0 0 0 0 0 0 0 0 0 0 0 0 0 0 0 0 0 0 0 0 0
0 0 0 0 0 0 0 8 16 2 4 2 5 1 4 0 1 0 1 0 0 0 0 0 0 0 0 0 1 0 0 0 0 0 0 0 0 0 0 0 0 1 1 10 6 7 5 4 10
0 0 0 0 0 0 0 0 0 20 10 6 4 16 0 0 0 0 0 0 0 0 0 0 2 2 0 0 0 0 0 0 0 0 0 0 0 0 0 5 11 17 25 30 22 0 0 0 7
0 0 0 0 0 0 0 0 1 7 1 3 7 0 0 0 1 0 1 0 0 5 9 6 4 2 0 0 0 0 0 0 0 0 0 0 0 0 1 18 27 29 24 27 25 0 0 0 4

GFSSGP_con_mucape_036.txt.gz
CAPE
0 0 0 0 0 9 1 32 9 38 93 81 60 122 135 107 88 142 399 442 533 532 642 739 918 1110 1161 1302 1462 1547 1598 1658 1602 1470 1386 1375 1231 1043 996 1057 1486 1700 1496 1733 1705 1683 1571 1365 1061
0 0 0 0 0 0 6 28 0 8 68 30 36 80 162 248 320 589 519 403 510 632 685 763 924 1094 1185 1233 1397 1484 1548 1619 1661 1501 1270 1139 1084 1012 1054 1257 1497 1502 1363 1739 1636 1270 1074 872 703
0 0 0 0 0 0 31 37 9 4 8 6 71 112 154 307 426 512 364 417 465 523 595 697 818 981 1137 1192 1316 1412 1485 1520 1560 1542 1324 1201 1033 1166 1156 1024 1282 1239 1609 1604 1414 1158 770 466 402
0 0 0 0 17 1 38 21 0 13 0 9 53 153 133 130 377 471 364 388 390 414 417 516 657 836 1055 1156 1243 1281 1291 1313 1370 1455 1445 1189 1101 988 855 837 689 674 702 820 545 439 361 361 430
0 0 8 24 31 53 54 25 0 2 26 14 19 72 81 339 516 522 437 404 380 204 207 260 383 648 939 1023 1041 1147 1196 1239 1311 1345 1298 1051 894 795 745 666 557 501 467 442 416 388 315 255 258
0 16 0 35 61 33 9 0 19 60 28 9 64 57 34 516 549 352 266 102 70 4 50 142 384 466 552 667 671 680 780 847 915 1009 1066 872 813 776 658 641 590 535 447 338 233 134 91 64 51
0 0 0 1 32 0 0 1 68 92 103 156 182 23 2 54 201 125 49 0 0 1 27 65 136 234 260 245 282 296 416 490 584 639 682 656 609 641 730 613 467 385 287 200 80 17 1 0 0
2 0 0 0 0 0 0 0 0 2 104 179 167 96 0 22 72 0 0 0 0 0 0 0 6 6 6 32 103 101 117 177 230 300 269 293 313 390 454 420 508 372 240 125 44 1 0 0 0
0 2 2 0 2 0 0 0 0 3 63 17 92 107 76 87 0 0 0 0 4 36 55 83 51 45 0 0 48 141 150 109 96 236 195 189 137 207 274 128 247 319 170 61 2 0 0 0 0
0 0 3 4 0 0 2 0 0 29 176 222 245 247 214 96 0 0 0 0 41 75 154 172 147 106 21 21 69 54 54 144 91 231 328 316 306 230 253 171 167 143 31 0 0 0 0 0 0
0 4 0 0 0 0 5 0 0 6 173 276 318 302 190 4 0 0 0 0 46 112 239 266 244 233 193 54 78 98 242 321 304 273 327 337 416 477 370 187 107 13 5 0 0 0 0 0 0
0 0 0 0 0 0 0 0 0 0 98 271 347 298 134 3 0 0 0 0 161 276 291 315 337 415 231 315 89 299 203 326 421 501 326 327 247 271 221 146 32 23 0 1 7 0 4 0 0
0 0 0 0 0 0 0 0 0 0 129 366 344 222 126 21 0 0 1 0 190 336 356 319 113 166 0 6 99 287 442 423 556 542 352 310 117 25 36 5 0 0 0 0 0 0 0 0 0
0 0 0 0 0 0 0 0 0 0 294 391 307 188 157 54 15 3 16 25 221 428 438 363 57 5 2 0 1 16 134 397 418 476 359 186 73 15 0 0 0 0 0 0 0 0 0 0 0
0 0 0 0 0 0 0 0 0 0 222 365 277 209 177 134 106 59 53 31 166 313 487 451 146 234 81 19 29 34 102 87 129 248 169 66 31 15 0 0 0 0 0 0 0 0 0 0 0
0 0 0 1 0 0 0 0 0 0 3 186 220 179 199 192 210 151 130 109 51 330 494 427 421 479 369 39 85 64 176 81 3 58 7 30 7 1 0 0 0 0 0 0 0 0 0 0 0
4 2 0 0 0 0 0 0 0 0 0 0 0 8 84 37 63 96 140 75 85 337 416 686 541 478 510 307 96 117 37 17 43 9 4 0 0 0 0 0 0 0 0 0 0 0 0 0 0
0 0 0 0 0 0 0 0 0 0 0 0 0 0 0 0 11 60 66 77 204 322 597 822 527 531 521 228 131 124 122 60 39 24 3 5 11 11 3 0 8 1 0 0 0 0 0 0 0
0 0 0 0 0 0 0 0 0 0 0 0 0 0 0 0 1 109 56 113 209 374 404 249 266 217 215 106 126 90 74 42 46 38 27 8 13 16 30 45 1 0 0 0 0 0 0 0 0
0 0 0 0 0 0 0 0 0 0 0 0 0 0 0 9 21 70 109 123 195 111 67 48 22 16 0 0 0 15 16 25 56 39 29 41 27 13 10 5 1 5 9 0 0 0 0 0 0
0 0 0 0 0 0 0 0 0 0 0 0 0 0 0 31 74 107 113 98 72 25 9 7 0 0 0 0 0 0 0 0 0 0 0 0 0 0 0 2 0 0 0 0 0 0 0 0 0
0 0 0 0 0 0 0 0 0 0 0 0 0 0 0 0 0 2 12 32 42 36 0 0 0 0 0 0 0 0 0 0 0 0 0 0 0 0 0 0 0 0 0 0 0 0 0 0 0
0 0 0 0 0 0 0 0 0 0 0 0 0 0 0 0 0 0 0 0 0 0 0 0 0 0 0 0 0 0 0 0 0 0 0 0 0 0 0 0 0 0 0 0 0 0 0 0 0
0 0 0 0 0 0 1 0 0 0 0 0 0 0 0 2 2 0 0 0 0 0 0 0 0 0 0 0 0 0 0 0 0 0 0 0 0 0 0 0 0 0 0 0 0 0 0 0 0
0 0 2 2 0 12 0 0 0 0 0 0 0 0 0 0 0 0 0 0 0 0 0 0 0 0 0 0 0 0 0 0 0 0 0 0 0 0 0 0 0 0 0 0 0 0 0 0 0
0 0 0 0 0 0 0 0 0 0 2 0 0 0 0 0 0 0 0 0 0 0 0 0 0 0 0 0 0 0 0 0 0 0 0 0 0 0 0 0 0 0 0 0 0 0 0 0 0
0 0 0 0 0 0 0 0 0 0 6 21 15 9 7 0 5 8 1 1 0 1 0 0 0 0 0 0 0 0 0 0 0 0 0 0 0 0 0 0 0 0 2 3 6 3 0 5 0
0 0 0 0 0 0 0 0 0 0 1 0 0 0 1 0 1 2 7 8 1 0 1 0 1 1 3 2 6 3 0 4 0 0 0 0 0 0 0 0 0 2 12 18 18 8 3 1 6
0 0 0 0 0 0 0 0 0 12 13 9 7 13 10 11 9 6 0 0 10 27 11 6 7 2 5 16 3 0 0 0 0 0 0 0 0 0 0 0 0 0 0 1 5 0 1 0 0
0 0 0 0 0 0 0 0 0 0 4 9 6 4 12 3 5 5 5 8 1 0 4 4 0 9 1 0 0 0 0 0 0 0 0 0 0 0 1 0 0 0 0 0 0 0 0 0 1

GFSSGP_con_mucape_039.txt.gz
CAPE
0 0 0 0 0 0 0 0 1 14 63 70 82 101 151 116 102 114 265 299 400 353 398 516 757 1061 1221 1320 1371 1473 1544 1259 1083 988 1052 998 895 833 840 1111 1283 1442 1397 1426 1401 1233 1102 929 783
0 0 0 0 0 0 0 6 32 35 36 47 78 121 180 299 401 388 341 474 374 450 525 613 781 995 1235 1323 1416 1465 1447 1283 1214 1059 974 950 899 992 1090 1104 1379 1391 1432 1231 1121 967 700 454 382
0 0 0 0 0 0 0 37 76 44 35 47 77 64 180 755 543 351 347 457 465 476 555 657 711 868 1105 1212 1299 1395 1459 1383 1345 1266 1056 997 1114 1022 899 858 1018 1231 1069 914 806 493 294 202 233
0 0 0 0 0 0 15 48 131 82 28 45 34 89 114 365 455 364 404 436 417 467 534 614 684 809 1025 1160 1232 1265 1296 1287 1293 1289 1162 1117 990 822 733 656 623 628 635 439 347 253 231 188 170
0 0 0 5 33 1 15 78 82 92 52 73 21 57 141 352 427 353 413 379 382 414 469 539 622 782 1020 1076 1038 1086 1132 1161 1246 1278 1233 965 786 712 634 542 487 448 434 398 285 204 138 97 84
1 0 1 14 29 35 32 39 129 134 95 46 116 167 346 518 382 350 345 306 244 202 236 248 444 620 808 911 888 854 911 929 923 994 1026 827 758 674 569 548 511 456 334 219 135 71 35 20 18
1 7 27 80 99 63 12 121 135 57 109 124 64 162 512 563 407 252 212 115 55 0 0 20 83 201 291 286 328 392 505 543 583 678 700 688 622 570 650 582 499 382 239 145 56 15 0 0 0
0 11 15 7 103 31 6 83 184 198 232 135 53 120 394 541 305 128 23 0 0 0 0 0 0 0 0 10 98 130 181 224 257 307 302 260 297 356 404 322 401 330 235 115 56 2 0 0 0
0 0 0 8 53 1 0 2 123 192 210 112 110 49 213 275 39 0 0 0 0 0 0 0 0 0 0 0 7 68 107 88 108 160 159 82 87 167 229 135 235 328 207 107 48 0 0 0 0
0 1 0 42 7 0 0 2 14 192 185 150 41 47 153 104 10 0 0 0 0 0 0 21 0 0 0 0 0 0 0 0 156 194 156 166 156 172 188 214 227 230 135 74 54 39 5 0 0
0 0 0 2 0 0 1 5 0 141 174 152 118 104 114 30 0 0 0 0 14 41 98 117 9 8 0 0 2 23 55 57 106 179 320 294 248 298 301 272 129 16 4 0 0 0 0 0 0
0 0 12 4 0 0 0 0 41 0 177 223 194 154 93 19 0 0 0 7 61 95 174 198 41 118 139 28 68 111 158 211 238 278 321 326 320 298 321 372 117 13 0 0 0 0 0 0 0
0 0 0 0 0 0 0 0 0 0 247 324 238 215 138 22 0 0 0 12 67 159 254 250 181 253 175 196 102 227 204 237 340 391 470 302 221 99 35 61 0 0 0 0 0 0 0 0 0
0 0 0 0 0 0 0 0 0 0 326 381 325 239 123 27 0 0 12 50 78 229 322 351 308 336 186 198 150 191 293 387 411 533 525 336 241 39 20 0 0 0 0 0 0 0 0 0 0
0 0 0 0 0 0 0 0 0 23 374 412 353 244 131 44 18 62 30 37 71 270 384 402 297 161 70 23 0 19 166 372 506 483 568 412 184 10 5 0 0 0 0 0 0 0 0 0 0
0 0 0 0 0 0 0 0 0 96 394 399 348 247 190 81 51 107 82 88 103 372 479 481 313 104 109 27 19 9 45 74 53 179 335 205 45 8 0 0 0 7 6 1 0 0 0 0 0
0 1 2 0 0 0 0 0 0 18 317 318 311 246 174 176 134 123 119 130 154 206 532 466 215 130 162 157 55 45 41 107 22 24 44 14 10 2 1 1 6 8 6 3 6 1 0 0 0
0 0 0 0 0 0 0 0 0 0 122 146 125 212 224 212 181 161 150 166 205 269 395 417 260 211 285 189 99 93 67 50 63 60 34 21 35 31 49 53 47 17 16 5 1 0 0 0 0
0 0 0 0 0 0 0 0 0 0 0 0 0 0 0 44 66 90 144 187 364 565 550 443 259 174 165 123 131 84 112 81 61 68 76 47 46 51 39 30 24 7 6 2 4 0 0 0 0
0 0 0 0 0 0 0 0 0 0 0 0 0 0 0 29 68 80 122 287 351 273 142 59 52 51 28 0 0 0 0 0 0 0 0 0 0 0 1 4 9 17 18 16 5 0 0 0 0
0 0 0 0 0 0 0 0 0 0 0 0 0 0 17 34 51 78 115 92 76 58 31 20 6 0 0 0 0 0 0 0 0 0 0 0 0 0 0 0 0 0 0 0 0 0 0 0 0
0 0 0 0 0 0 0 0 0 0 0 0 0 12 26 45 47 33 17 6 3 1 0 0 0 0 0 0 0 0 0 0 0 0 0 0 0 0 0 0 0 0 0 0 0 0 0 0 0
0 0 0 0 0 0 0 0 0 0 0 0 0 0 0 0 0 0 0 0 0 0 0 0 0 0 0 0 0 0 0 0 0 0 0 0 0 0 0 0 0 0 0 0 0 0 0 0 0
0 0 0 0 0 0 0 0 0 0 0 0 0 0 0 0 0 0 0 0 0 0 0 0 0 0 0 0 0 0 0 0 0 0 0 0 0 0 0 0 0 0 0 0 0 0 0 0 0
0 0 0 0 0 0 0 0 0 0 0 0 0 0 0 0 0 0 0 0 0 0 0 0 0 0 0 0 0 0 0 0 0 0 0 0 0 0 0 0 0 0 0 0 0 0 0 0 0
0 0 0 0 0 0 0 0 0 0 0 0 0 0 0 0 0 0 0 0 0 0 0 0 0 0 0 0 0 0 0 1 0 0 1 0 0 0 0 0 0 0 0 0 0 1 0 0 0
0 0 0 0 0 0 0 0 0 0 0 0 0 2 8 0 0 0 0 0 1 7 0 1 1 0 0 0 0 0 0 0 0 0 0 0 0 0 0 0 0 0 0 1 5 5 1 0 0
0 0 0 0 0 0 0 0 0 0 0 0 0 0 0 0 0 0 1 0 5 1 1 3 1 0 2 1 2 4 1 0 0 0 0 0 0 0 0 0 0 0 0 0 2 0 0 0 0
0 0 0 0 0 0 0 0 0 0 0 0 0 0 0 1 2 5 0 0 3 0 1 0 2 2 0 0 0 0 0 0 0 0 0 0 0 0 0 0 0 0 0 0 0 0 0 0 0
0 0 0 0 0 0 0 0 0 0 0 0 0 11 12 18 10 10 20 7 11 0 1 0 0 0 0 0 0 0 0 0 0 0 0 0 1 9 4 7 2 2 1 0 0 0 0 0 0

GFSSGP_con_mucape_042.txt.gz
CAPE
0 0 0 0 0 0 0 0 0 44 108 85 43 68 115 163 115 76 270 308 347 260 381 607 859 1069 1149 1214 1395 1410 1308 1075 908 900 960 895 752 760 922 988 1271 1276 1079 983 1018 869 670 503 411
0 0 0 0 0 0 0 0 5 57 73 91 61 71 118 358 391 336 320 465 307 318 453 644 927 1137 1288 1355 1416 1369 1263 1014 1047 886 838 784 801 904 926 1057 1304 1386 759 652 814 631 333 189 171
0 0 0 0 0 1 0 22 107 85 50 43 62 37 121 545 385 295 547 437 409 419 529 693 818 1024 1207 1292 1395 1423 1344 1232 1141 1039 867 927 997 874 767 840 1250 1059 769 652 382 178 144 122 142
0 0 0 0 0 0 43 83 164 98 67 45 23 23 32 211 343 448 559 438 398 442 496 593 722 878 1089 1235 1319 1278 1201 1136 1154 1120 1076 1068 844 658 540 570 721 623 439 315 232 174 123 94 99
0 0 0 0 0 0 40 147 171 111 34 2 0 0 11 423 495 540 461 445 437 480 501 522 629 806 1021 1095 1065 1092 1067 1062 1168 1184 1182 875 615 550 477 448 426 424 343 201 150 111 61 27 31
0 0 0 0 13 2 36 189 105 119 56 64 53 50 199 314 451 473 494 464 451 493 509 533 649 764 897 982 935 875 919 964 989 1023 992 772 690 611 454 429 408 318 205 134 86 45 6 6 1
0 0 0 27 29 31 91 134 155 164 148 116 117 248 376 498 388 520 501 433 403 335 296 329 429 545 608 624 633 682 692 641 667 699 685 624 496 506 551 497 355 218 141 72 44 30 1 0 0
1 0 22 95 84 57 75 57 88 92 146 128 178 331 461 516 406 468 417 296 178 12 0 0 3 29 50 145 245 301 307 305 370 395 328 262 266 327 235 190 239 167 125 111 109 20 0 0 0
0 0 1 12 12 66 88 52 72 43 188 76 102 312 462 544 394 349 201 40 0 0 0 0 0 0 0 0 22 137 192 160 152 168 188 106 31 92 129 56 84 142 83 105 163 134 30 4 0
0 0 5 48 27 9 9 8 44 272 145 106 96 176 642 551 321 146 4 0 0 0 0 0 0 0 0 0 0 0 0 0 0 12 54 55 57 91 101 127 109 143 122 104 75 63 26 5 0
0 0 12 46 14 0 3 1 85 254 186 96 63 443 585 300 142 1 0 0 0 0 0 0 0 0 0 0 0 0 0 11 150 194 178 173 169 183 201 182 127 15 0 0 0 0 0 0 0
2 0 0 17 49 5 7 0 134 140 57 126 134 471 389 91 0 0 0 0 0 0 27 62 0 0 0 0 0 23 59 71 100 165 252 270 264 257 241 255 177 2 0 0 0 0 0 0 0
0 2 2 16 26 1 0 0 85 0 187 154 151 345 223 56 0 0 0 0 2 39 101 158 2 0 1 0 1 92 118 205 247 320 354 398 342 196 99 80 14 0 0 0 0 0 0 0 0
0 0 0 0 0 0 0 0 0 5 269 178 175 228 149 45 7 0 0 1 8 85 181 240 126 41 177 65 100 74 186 216 324 434 524 574 338 243 60 12 0 0 0 0 0 0 0 0 0
0 0 0 0 0 0 0 0 0 85 343 211 235 184 145 71 27 6 5 9 14 75 207 327 326 189 270 84 55 32 133 253 518 558 591 662 438 222 4 0 0 0 0 1 2 2 0 0 0
0 0 0 0 0 0 0 0 0 173 368 354 307 237 190 95 46 73 67 75 84 91 190 362 424 352 40 25 4 6 5 205 135 145 272 490 337 115 0 4 10 14 2 10 12 16 19 14 5
0 0 0 0 0 0 0 0 0 221 401 408 409 350 294 139 56 81 112 136 177 165 145 266 346 243 150 21 5 13 75 46 72 74 51 134 86 41 34 41 30 30 22 7 50 32 2 1 1
0 0 0 0 0 0 0 0 0 206 386 382 392 380 340 263 181 143 117 139 162 199 232 320 258 133 28 93 65 63 69 46 45 50 51 30 36 42 49 55 42 15 7 7 6 4 7 1 0
0 0 0 0 0 0 0 0 0 0 353 301 262 292 262 248 250 260 243 217 195 174 298 308 285 203 160 91 35 23 51 38 3 0 0 0 0 0 0 0 0 0 0 0 0 0 0 0 0
0 0 0 0 0 0 0 0 0 0 0 10 9 0 0 29 127 164 202 312 333 371 262 68 26 22 0 0 0 0 0 0 0 0 0 0 0 0 0 0 0 0 0 0 0 0 0 0 0
0 0 0 0 0 0 0 0 0 0 0 0 0 0 0 32 69 114 163 151 57 15 15 2 0 0 0 0 0 0 0 0 0 0 0 0 0 0 0 0 0 0 0 0 0 0 0 0 0
0 0 0 0 0 0 0 0 0 0 0 0 0 0 0 1 11 5 1 0 0 0 0 0 0 0 0 0 0 0 0 0 0 0 0 0 0 0 0 0 0 0 0 0 0 0 0 0 0
0 0 0 0 0 0 0 0 0 0 0 0 0 0 0 0 0 0 0 0 0 0 0 0 0 0 0 0 0 0 0 0 0 0 0 0 0 0 0 0 0 0 0 0 0 0 0 0 0
0 0 0 0 0 0 0 0 0 0 0 0 0 0 0 0 0 0 0 0 0 0 0 0 0 0 0 0 0 0 0 0 0 0 0 0 0 0 0 0 0 0 0 0 0 0 0 0 0
0 0 0 0 0 0 0 0 0 0 0 0 0 0 0 0 0 0 0 0 0 13 0 0 0 0 0 0 0 0 0 0 0 0 0 0 0 0 0 0 0 0 0 0 0 0 0 0 0
0 0 0 0 0 0 0 0 0 0 0 0 0 0 0 0 0 2 6 24 0 0 0 0 0 0 0 0 0 0 0 0 0 0 0 0 0 0 0 0 0 0 0 0 0 0 0 0 0
0 0 0 0 0 0 0 0 0 0 0 0 0 0 0 1 2 0 0 0 0 0 0 2 3 3 0 1 0 0 0 0 0 0 0 0 0 0 0 0 0 0 0 0 0 0 0 1 1
0 0 0 0 0 0 0 0 0 0 0 0 0 0 0 0 0 0 0 2 0 2 5 2 0 1 1 0 0 0 0 0 0 0 0 0 0 0 0 0 1 2 5 10 1 0 0 0 0
0 0 0 0 0 0 0 0 0 0 0 0 0 0 5 7 17 17 7 10 0 2 13 2 0 3 0 0 0 0 0 0 0 0 0 0 0 0 6 22 13 8 8 1 0 0 0 0 0
0 0 0 0 0 0 0 0 0 0 0 0 0 2 6 9 20 21 22 21 16 18 26 1 0 0 0 0 0 0 0 0 0 0 0 0 0 19 38 33 29 15 7 4 0 0 0 0 0

GFSSGP_con_mucape_048.txt.gz
CAPE
0 0 0 0 0 0 0 0 59 465 405 303 174 242 463 546 377 359 540 503 612 496 889 964 913 978 1098 1181 1251 1356 1388 1117 960 913 993 971 890 903 952 960 1039 700 678 518 309 137 111 112 126
0 0 0 0 0 0 0 0 92 480 420 264 114 207 384 598 586 496 571 570 549 596 828 1048 811 1033 1303 1309 1312 1371 1285 1104 1088 855 739 737 725 723 761 969 902 627 495 227 125 130 121 63 9
0 0 0 0 0 0 5 0 707 419 54 23 45 53 96 378 492 474 664 539 588 842 1006 1204 932 1145 1420 1381 1426 1379 1286 1187 1103 994 840 858 839 909 1017 883 931 405 186 85 45 17 2 0 0
0 0 0 0 0 0 64 655 739 378 130 33 1 25 165 405 320 585 494 528 733 997 1159 853 1005 1182 1312 1524 1426 1345 1199 1064 1033 1130 993 827 591 496 606 635 564 219 57 17 0 0 0 0 0
0 0 0 0 0 0 374 617 419 163 69 24 27 18 75 708 609 542 464 498 754 1005 1262 1433 1008 1205 1397 1533 1361 1210 1054 1010 1115 1205 976 609 434 396 430 416 298 80 21 0 0 0 0 0 0
0 0 0 0 0 0 40 685 380 151 91 32 54 12 407 797 954 789 526 493 665 971 1025 1124 966 1146 1276 1266 1046 906 919 953 1030 1000 852 566 464 416 352 254 134 38 0 0 0 0 0 0 0
0 0 0 0 30 105 559 475 235 33 93 106 99 159 561 884 1030 742 718 685 663 807 1017 1100 1197 1042 887 779 712 736 817 840 804 730 685 564 522 552 435 338 122 39 25 9 0 0 0 0 0
0 0 16 46 113 206 683 467 167 62 227 294 301 263 628 722 646 838 842 870 879 782 801 785 737 703 727 798 627 649 613 504 484 487 337 304 283 254 256 223 169 66 65 33 22 23 0 0 0
0 0 62 141 253 412 274 96 93 171 289 310 224 701 911 423 843 939 971 893 806 700 718 547 432 483 445 334 476 362 304 302 266 267 175 118 373 441 306 28 102 111 93 59 28 1 0 0 0
0 0 16 57 434 238 75 32 5 156 306 277 582 1088 1079 715 1051 917 742 672 560 466 236 224 225 193 115 5 154 188 74 39 340 421 499 505 718 795 583 321 75 82 8 0 0 0 0 9 0
0 0 0 82 325 124 75 10 29 105 122 403 523 1235 1098 1096 1091 946 744 574 354 52 2 45 128 122 35 20 31 5 16 184 582 775 785 865 804 945 965 1025 842 789 35 124 0 8 0 24 23
0 0 13 146 139 67 31 51 96 196 182 246 608 1262 1172 1188 984 780 573 217 0 0 3 38 73 128 105 20 16 105 223 516 617 784 929 1073 1300 1129 1060 974 1005 833 210 101 39 28 52 9 0
0 0 14 54 62 46 164 78 175 352 318 482 1143 1283 1169 773 469 551 159 0 0 0 18 127 159 103 146 265 357 429 578 673 888 902 1067 1237 1326 1292 1028 967 674 328 167 101 83 28 0 0 0
0 0 0 17 62 98 85 132 140 216 417 797 1159 941 666 406 211 190 0 0 0 0 29 308 342 367 371 488 590 661 701 727 956 1047 1251 1134 951 551 356 241 202 128 18 0 0 0 0 0 0
0 0 0 1 69 121 54 27 6 268 398 690 559 546 468 350 106 0 0 2 3 39 101 381 501 586 587 375 131 90 82 65 136 260 287 470 499 339 212 161 93 49 8 3 3 0 0 2 0
0 0 1 1 79 86 3 7 0 434 391 522 539 521 447 265 99 39 8 8 34 63 257 408 419 434 193 146 80 10 20 5 10 57 75 56 45 41 69 37 46 49 36 0 0 0 0 0 0
0 0 0 5 72 12 0 0 0 316 427 494 550 513 468 234 109 74 117 183 97 171 459 514 501 238 111 80 54 19 4 16 11 22 30 64 45 25 0 0 0 0 0 0 0 0 0 0 0
1 0 0 0 0 0 0 0 0 346 554 461 449 471 387 301 127 127 295 359 360 538 642 619 477 96 172 77 11 0 3 37 23 16 0 0 0 0 0 0 0 0 0 0 0 0 0 0 0
1 0 0 0 0 0 0 0 0 254 501 451 472 465 380 322 233 353 475 559 608 644 586 665 306 174 53 0 0 7 0 0 0 0 0 0 0 0 0 0 0 0 0 0 0 0 0 0 0
2 19 25 0 0 17 50 78 0 106 328 463 482 471 397 403 390 393 611 709 764 725 687 654 499 285 440 190 22 0 0 0 0 0 0 0 0 0 0 0 0 0 0 0 0 0 0 0 0
45 88 32 12 0 0 34 60 54 0 53 156 257 300 383 450 416 410 519 767 829 859 763 601 597 545 135 0 0 0 0 0 0 0 0 0 0 0 0 0 0 0 0 0 0 0 0 0 0
117 1 10 9 48 94 2 94 96 59 15 8 30 188 254 169 147 133 52 5 33 97 69 29 67 29 1 0 0 0 0 11 0 0 0 0 0 0 0 0 0 0 0 0 0 0 0 1 0
48 8 10 9 38 49 25 41 139 46 55 37 54 175 230 119 57 0 0 0 0 0 0 0 0 0 0 0 0 0 0 0 0 0 0 0 0 0 0 0 0 0 0 0 2 3 12 11 23
22 77 78 77 76 63 28 59 1 20 16 75 81 104 90 29 0 0 0 0 0 0 0 0 0 0 0 0 0 0 0 0 0 0 0 0 0 0 0 0 0 5 24 32 41 45 46 62 69
75 68 21 28 18 1 3 13 0 0 0 37 75 54 9 0 0 0 0 0 0 0 0 0 0 0 0 0 0 0 0 0 0 0 0 0 0 0 4 18 41 53 69 81 67 82 66 65 73
37 11 0 0 0 3 0 25 118 0 0 0 13 19 0 0 0 0 0 0 0 0 0 0 0 0 0 0 5 0 0 0 0 0 0 0 0 7 9 28 58 78 75 68 65 78 78 81 97
16 12 0 10 0 1 0 0 0 0 0 0 14 0 0 0 0 0 0 0 0 0 0 0 8 9 5 8 9 14 16 5 0 0 0 3 7 13 25 47 72 87 68 75 78 85 94 85 101
10 0 0 0 0 0 0 0 0 0 0 0 1 0 0 0 0 0 0 0 0 0 4 6 15 12 15 3 5 6 0 0 0 0 0 0 0 1 7 18 31 50 61 59 78 76 77 90 104
0 0 0 0 0 0 0 0 0 0 0 0 0 0 0 0 0 0 0 0 4 11 14 15 19 3 1 5 1 0 0 0 0 0 0 0 0 0 0 0 7 23 44 57 79 95 68 55 51
0 0 0 0 0 0 0 0 0 0 0 0 0 0 0 0 0 0 5 7 7 11 20 29 32 26 20 0 0 0 0 0 0 0 0 0 0 0 0 0 6 22 55 71 56 40 46 15 2

GFSSGP_con_mucape_051.txt.gz
CAPE
0 0 0 0 0 0 0 2 10 589 627 498 384 501 722 883 636 632 366 336 584 748 637 434 852 1000 1078 1193 1287 1347 1264 990 930 874 900 886 875 863 858 688 637 657 510 251 158 157 107 28 0
0 0 0 0 0 0 6 15 8 647 500 578 313 582 489 772 679 724 577 387 530 774 596 432 793 1044 1218 1203 1274 1255 1109 957 894 752 704 644 630 681 876 606 694 437 235 166 106 32 0 0 0
0 0 0 0 0 0 39 24 902 636 434 230 48 102 152 365 431 314 498 472 565 729 783 759 864 1102 1262 1283 1253 1203 1065 1100 1042 922 721 752 814 877 768 607 610 225 76 12 0 0 0 0 0
0 0 0 0 0 0 0 555 525 415 263 25 128 84 42 306 73 322 363 517 758 798 927 619 950 1124 1281 1355 1291 1072 1074 1049 1093 1097 793 601 477 563 575 420 387 47 0 0 0 0 0 0 0
0 0 0 0 0 1 19 803 582 233 97 41 60 20 41 230 86 383 455 607 684 820 998 975 993 1123 1374 1313 1078 1094 1004 1056 1198 940 679 361 357 372 387 275 91 4 0 0 0 0 0 0 0
0 0 0 20 22 5 65 420 414 69 7 96 71 28 90 107 184 219 515 640 507 724 1070 971 949 944 1032 983 997 844 854 984 966 803 656 374 340 341 183 95 29 7 0 0 0 0 0 0 0
0 0 0 28 28 40 113 546 484 151 154 23 3 92 680 461 496 692 440 669 838 899 947 980 909 886 886 698 634 652 750 773 693 662 570 461 489 475 358 278 42 21 16 0 0 0 0 0 0
0 0 2 48 54 133 333 395 286 376 20 30 232 211 520 879 900 53 253 401 812 792 886 944 942 839 853 733 540 572 565 486 432 361 251 225 209 227 254 310 156 47 29 41 43 42 0 0 0
0 0 16 286 82 253 220 289 22 72 60 366 359 537 437 1233 1081 338 472 843 791 853 665 506 445 470 511 540 573 394 402 342 233 114 136 51 219 317 267 61 120 63 31 31 23 2 0 2 5
0 8 22 46 282 339 170 136 0 45 198 300 891 1504 1316 1139 1258 962 874 937 768 690 401 358 374 333 184 32 201 139 45 2 136 186 278 636 574 748 552 306 144 135 37 69 9 4 47 69 74
0 2 17 27 481 331 88 79 7 1 5 63 401 1470 1252 1186 959 933 705 926 679 244 112 174 212 159 67 151 85 47 12 310 589 787 820 888 637 870 862 763 1021 970 224 285 56 92 88 98 78
0 0 0 83 3 9 9 3 0 0 102 49 1321 1205 1329 1100 1035 1027 1055 641 87 12 36 57 131 150 93 14 3 9 86 411 644 853 1054 1148 1069 1117 1087 914 799 1119 445 229 168 134 209 90 52
5 2 81 1 7 38 55 8 0 128 98 209 943 932 1161 1002 907 823 558 56 0 0 70 164 111 201 346 279 511 650 676 949 1144 1083 1102 1571 1671 1122 1029 1171 758 439 350 235 201 152 103 49 27
0 8 4 48 80 48 180 128 136 193 216 625 796 899 792 508 511 304 11 0 0 32 301 321 297 333 522 777 781 864 646 708 653 863 1065 1181 1173 1090 811 546 448 344 109 56 13 6 1 1 18
0 3 3 19 146 130 104 112 100 243 290 398 507 471 372 220 175 30 0 0 3 127 505 585 541 629 697 523 294 169 97 92 52 103 328 621 787 636 493 330 91 24 10 1 0 0 0 0 2
0 0 0 8 29 150 27 71 94 287 345 326 302 298 263 133 15 6 1 3 27 212 522 738 623 758 422 192 34 52 59 42 44 17 36 67 93 61 41 9 2 0 0 0 0 0 0 0 0
0 0 0 2 34 45 13 4 109 312 390 417 342 311 290 197 83 162 140 74 15 176 612 790 857 390 147 77 31 17 2 10 14 0 0 6 26 9 0 0 0 0 0 0 0 0 0 0 0
2 12 33 35 44 13 7 28 226 357 324 502 532 486 437 287 290 364 401 425 341 376 733 929 665 203 176 123 42 40 0 6 5 11 21 4 0 0 0 0 0 0 0 1 0 0 0 0 0
3 13 21 14 0 1 9 48 83 332 362 451 525 543 545 505 443 570 703 695 664 806 982 873 445 393 434 386 153 17 0 0 0 0 0 0 0 0 0 0 0 0 0 0 0 0 0 0 0
32 7 1 32 0 20 8 40 42 294 413 441 472 568 624 644 710 803 930 955 971 958 895 756 580 534 602 281 255 99 25 0 0 0 0 0 0 0 0 0 0 0 0 0 0 0 0 0 0
50 20 19 71 17 1 108 162 156 233 380 478 546 594 672 789 896 970 1027 890 756 726 780 872 694 599 326 45 11 22 2 0 0 1 0 0 0 0 0 0 0 0 0 0 0 0 0 0 0
42 66 54 100 88 49 51 41 152 166 317 386 516 618 707 783 767 775 830 929 919 685 461 199 153 117 7 0 0 0 2 21 53 24 7 1 0 0 0 0 0 1 3 6 12 9 20 22 10
15 79 101 77 92 4 118 57 154 283 258 244 412 538 607 522 511 153 129 138 95 106 50 36 13 0 0 0 1 2 14 15 15 5 0 0 0 8 5 1 3 11 14 22 32 47 50 42 42
105 132 133 135 136 189 77 141 149 298 228 277 252 366 444 497 186 0 0 0 0 0 0 0 0 0 0 0 0 0 3 3 0 0 0 0 0 0 1 3 12 23 39 50 52 86 73 79 77
134 185 286 205 177 168 186 152 81 138 102 188 322 338 473 465 7 0 0 0 0 0 0 0 0 0 0 0 0 0 0 13 13 0 0 0 0 0 0 0 5 9 24 43 72 98 83 75 79
170 169 154 46 82 100 149 0 136 158 28 126 307 349 417 175 0 0 0 0 0 0 0 0 5 4 0 0 0 0 1 5 0 0 0 0 0 0 2 6 10 18 34 101 70 94 98 70 111
185 63 106 95 114 97 0 113 173 66 36 103 262 310 316 14 0 0 0 0 0 2 5 1 9 0 0 1 2 5 7 2 0 0 0 0 0 0 0 0 4 6 10 22 83 107 75 96 90
45 93 51 21 5 0 21 0 142 17 19 38 200 292 88 7 3 3 5 3 18 16 12 14 2 1 6 11 1 3 5 0 0 0 0 0 0 0 0 0 0 0 2 14 42 99 80 77 105
60 0 0 38 38 4 0 19 5 0 1 0 70 115 34 19 17 14 15 15 20 13 2 6 7 11 11 1 1 3 0 0 0 0 0 0 0 0 0 0 0 0 5 17 47 81 64 45 70
0 0 19 19 0 0 1 0 0 0 0 0 3 25 21 40 41 19 6 0 0 5 10 11 10 14 6 4 13 13 0 0 0 0 0 0 0 0 0 0 1 6 13 24 31 34 47 30 14

GFSSGP_con_mucape_054.txt.gz
CAPE
0 0 0 0 0 0 0 0 0 162 497 617 519 775 733 681 936 547 340 475 511 151 246 385 748 1022 1141 1225 1275 1217 1216 1133 1081 1151 1133 1099 1024 966 740 763 695 377 189 141 57 0 0 0 0
0 0 0 0 0 0 0 53 587 988 692 433 377 598 739 748 796 514 487 673 606 231 117 355 769 1076 1307 1279 1241 1198 1148 1092 1009 907 805 758 784 732 520 476 484 399 80 0 0 0 0 0 0
0 0 0 0 0 0 0 953 561 810 218 354 130 287 420 662 528 601 522 554 772 217 254 559 802 988 1240 1169 1227 1176 1085 985 939 866 776 776 751 580 392 523 349 224 0 0 0 0 0 0 0
0 0 0 0 0 0 0 736 447 184 319 394 78 128 154 169 467 547 545 456 602 598 470 567 752 818 1073 1297 1162 1086 986 977 1016 903 694 461 481 405 313 394 264 15 0 0 0 0 0 0 25
0 0 0 0 0 0 11 717 387 443 172 167 322 179 86 354 589 573 430 418 405 386 452 692 606 795 1314 1280 1115 932 967 1095 913 658 507 449 325 296 285 300 191 53 0 0 0 0 0 0 0
0 0 0 0 0 8 6 683 197 45 92 10 4 116 94 20 270 506 556 347 443 479 639 705 709 820 915 958 816 728 908 830 677 572 491 456 414 333 282 241 177 84 12 0 0 0 0 0 0
0 0 0 0 0 11 459 410 172 46 12 147 21 295 126 158 75 97 699 161 135 490 603 670 674 723 568 501 493 542 612 552 546 488 448 429 388 350 293 231 165 109 73 25 7 0 0 0 0
0 0 0 0 1 415 427 226 117 306 140 29 159 276 253 349 563 556 403 41 247 597 659 684 663 707 574 459 413 434 370 328 271 209 201 166 151 227 281 200 172 136 81 75 54 0 0 1 1
0 0 0 8 208 551 163 86 52 97 57 99 189 130 53 706 154 58 76 208 177 414 767 692 670 706 534 471 444 324 308 215 122 86 92 37 142 150 175 66 161 171 94 77 59 30 29 41 59
0 0 0 24 161 184 24 0 25 20 16 135 642 258 494 757 101 2 31 101 205 206 372 454 454 508 521 209 345 202 71 29 35 27 162 446 649 303 386 84 155 229 218 211 182 140 64 55 21
0 0 0 496 175 105 39 8 9 87 48 0 828 1153 1145 997 141 0 5 192 205 292 266 256 389 310 184 65 197 46 5 238 433 689 771 907 806 803 372 548 341 403 249 326 122 43 49 138 95
0 1 79 116 122 6 145 109 64 22 36 218 1213 964 814 756 537 252 141 390 157 26 43 126 189 270 147 54 90 42 141 624 708 864 804 811 715 838 538 513 626 543 404 338 255 145 146 107 42
0 0 74 50 3 3 11 0 10 70 96 808 909 704 761 851 752 641 373 129 3 0 43 113 141 293 221 377 618 483 799 722 698 880 1021 988 848 504 475 605 543 437 211 51 36 16 18 6 0
0 2 21 11 0 10 102 5 52 141 240 306 284 656 666 649 57 204 56 0 0 10 130 92 205 472 688 711 735 436 278 173 167 291 419 759 754 793 600 499 303 193 84 22 1 0 0 0 0
13 0 15 4 53 1 96 144 111 187 347 231 257 352 142 256 427 24 0 1 8 189 244 244 357 664 549 341 261 204 199 59 23 48 92 113 203 249 130 194 57 2 0 0 0 0 0 0 0
1 0 0 0 14 16 4 17 134 179 244 283 276 195 183 138 53 11 3 6 38 311 408 373 450 559 340 214 167 103 53 5 0 0 4 10 0 0 0 0 0 0 0 0 0 0 0 0 0
0 0 0 4 0 4 14 19 151 225 219 216 216 178 91 30 17 9 4 4 63 465 641 640 502 437 273 92 44 7 18 0 0 0 0 0 0 0 0 0 0 0 0 0 0 0 0 0 0
0 0 0 0 1 22 2 6 113 218 242 167 158 189 139 17 30 119 126 185 66 534 866 674 599 295 238 77 49 41 14 15 8 0 0 0 6 1 0 0 0 0 0 0 0 0 0 0 0
1 5 46 4 0 0 3 0 50 89 169 75 239 278 273 225 342 375 459 545 483 689 979 665 563 335 121 94 95 4 0 0 0 0 0 0 0 0 0 0 0 0 0 0 0 0 0 0 0
2 19 2 0 0 0 6 20 6 52 55 272 412 433 464 395 447 528 737 868 930 1163 827 563 455 233 221 325 303 52 0 0 0 0 0 0 0 0 0 0 0 0 0 0 0 0 0 0 0
27 18 54 27 0 0 27 0 19 33 96 225 320 429 522 594 648 800 999 1120 1184 867 820 665 543 399 497 307 25 4 0 0 0 0 0 0 0 0 0 0 0 0 0 0 0 0 0 0 0
34 0 8 12 29 0 17 24 36 64 170 265 392 409 542 682 831 989 1119 872 818 751 674 690 738 613 345 6 0 0 0 0 3 7 7 0 0 0 0 0 0 0 0 0 0 0 0 0 0
25 1 109 36 32 62 0 1 23 23 88 244 402 550 716 775 845 877 1010 882 894 863 852 520 172 44 0 1 5 0 47 33 23 14 32 3 0 0 0 0 0 0 0 5 17 30 17 3 7
143 103 112 80 130 60 2 33 13 0 109 277 326 488 626 678 663 453 543 451 282 461 368 261 4 0 0 0 0 7 10 0 0 1 1 1 4 0 0 0 3 1 0 0 10 13 9 4 4
51 106 175 41 119 231 58 99 129 22 90 175 310 440 597 500 318 91 46 7 7 2 4 0 0 0 0 0 0 0 0 0 0 4 7 1 0 0 0 0 0 0 0 0 8 32 51 24 14
131 27 129 164 163 237 79 42 239 96 93 353 306 362 508 520 186 1 0 0 0 0 0 0 0 0 0 0 0 0 0 0 6 12 7 0 0 0 0 0 0 0 0 0 1 20 41 57 28
17 105 116 39 62 201 14 0 245 83 34 182 336 416 539 509 123 0 0 3 0 0 0 0 3 4 0 0 0 1 3 11 19 18 8 0 0 0 0 0 0 0 0 0 1 5 42 41 13
1 1 157 32 30 37 0 17 247 60 20 83 305 438 526 377 70 0 0 4 8 5 5 2 9 4 0 0 6 12 17 13 4 11 0 0 0 0 0 0 0 0 0 0 0 1 23 17 25
42 24 0 0 193 225 253 54 164 22 44 47 178 375 479 198 43 15 3 10 18 5 5 0 1 0 6 13 12 24 15 0 1 0 0 0 0 0 0 0 0 0 0 0 7 13 8 12 2
0 13 8 344 4 178 183 25 0 0 24 14 4 210 280 107 42 31 34 8 13 4 1 0 2 12 13 18 27 23 12 8 0 0 0 0 0 0 0 0 0 0 6 1 0 0 0 0 0

GFSSGP_con_mucape_057.txt.gz
CAPE
0 0 0 0 0 0 0 0 0 878 818 720 815 700 673 810 774 292 419 489 324 392 753 960 1032 1113 1118 1195 1187 1146 1121 1155 1160 1123 1003 905 773 648 427 434 373 192 5 0 0 0 0 0 0
0 0 0 0 0 0 0 1 865 817 608 508 565 576 519 772 643 910 676 623 257 259 603 840 974 1113 1199 1144 1183 1124 1055 1030 946 882 900 914 562 361 196 244 270 120 0 0 0 0 0 0 0
0 0 0 0 0 0 0 1137 620 551 409 431 320 504 703 669 852 809 849 683 174 222 493 895 958 1045 1185 1222 1139 1015 894 808 821 860 914 657 373 229 120 240 149 17 0 0 0 0 0 0 0
0 0 0 0 0 0 0 874 851 624 489 263 266 213 479 626 742 735 764 506 346 485 577 663 764 940 1132 1160 1057 919 862 733 653 611 659 406 253 149 83 214 127 0 0 0 0 0 0 0 0
0 0 0 0 0 8 182 567 410 405 385 336 438 212 273 708 704 683 662 424 396 416 476 428 590 898 1062 935 934 879 749 547 424 447 455 407 193 66 36 199 105 38 1 0 0 0 0 0 0
0 0 0 0 0 785 706 398 489 135 123 141 166 91 165 830 698 601 510 410 233 132 186 265 652 727 624 596 673 597 488 380 356 380 387 341 268 229 237 218 154 114 39 19 5 1 0 0 0
0 0 0 0 0 819 528 312 128 96 63 41 197 213 67 612 578 584 394 263 214 126 201 354 415 438 384 387 456 398 351 308 313 281 246 218 211 175 190 199 190 123 68 55 18 0 0 0 0
0 0 5 0 10 455 397 366 226 196 156 54 270 276 253 55 169 293 296 265 153 298 270 258 461 433 377 398 374 263 190 170 153 131 109 95 68 58 79 75 135 125 64 28 0 0 0 0 10
0 0 0 0 250 308 78 73 267 81 66 44 117 199 376 350 325 6 9 27 93 158 265 314 567 416 349 329 302 206 184 114 81 79 48 65 100 39 25 7 70 105 56 25 3 2 0 0 0
0 0 0 194 288 104 27 50 5 10 36 1 6 75 639 724 329 283 40 6 112 109 302 489 626 397 347 322 148 83 66 8 0 165 208 231 255 180 133 62 30 69 64 27 46 25 12 9 3
0 0 75 311 142 73 31 40 105 31 0 0 0 93 653 298 171 123 145 38 105 116 210 437 549 379 165 150 43 2 10 82 48 272 343 327 250 194 227 332 227 247 176 81 113 34 5 6 2
0 19 405 427 233 71 50 0 0 0 0 83 41 367 625 313 37 56 125 137 199 150 165 294 205 158 25 82 73 7 125 214 321 440 328 408 306 264 164 214 107 94 58 16 20 28 7 5 2
0 181 145 94 27 20 0 0 0 2 186 394 515 1003 702 135 34 23 119 234 148 131 148 179 4 0 19 75 189 228 323 390 449 431 476 320 254 182 264 118 69 49 50 27 14 22 20 0 0
10 119 82 65 29 22 10 0 15 45 38 144 951 878 429 222 57 163 355 199 93 53 16 0 3 0 251 231 237 221 290 349 320 227 257 307 250 275 203 129 109 96 59 16 0 0 0 0 0
36 37 112 64 9 0 0 0 44 170 154 193 476 559 268 51 0 46 119 52 15 12 11 14 100 344 254 263 219 196 203 138 139 27 28 83 33 67 72 55 4 0 0 0 0 0 0 0 0
0 3 12 7 11 0 1 1 181 184 226 439 210 499 138 199 4 57 62 0 30 71 16 112 328 451 249 274 216 173 143 11 0 0 0 0 0 0 0 0 0 0 0 0 0 0 0 0 0
0 0 0 1 6 1 0 0 159 219 248 245 218 244 252 129 66 1 3 57 110 201 139 254 440 408 226 183 169 73 51 20 8 4 0 0 0 0 0 0 0 0 0 0 0 0 0 0 0
0 1 0 0 1 13 1 6 122 202 217 182 121 81 80 39 9 1 8 141 241 392 314 377 381 378 308 167 49 23 28 33 9 0 0 0 1 0 0 0 0 0 0 0 0 0 0 0 0
0 0 8 2 1 7 1 12 149 152 149 121 85 56 39 13 13 6 31 177 462 491 440 389 387 306 273 136 53 46 21 3 5 16 0 0 0 0 0 0 0 0 0 0 0 0 0 0 0
0 0 0 7 7 12 0 24 130 159 189 101 129 122 72 177 189 273 276 258 600 593 563 552 476 276 152 57 67 4 0 0 0 0 0 0 0 0 0 0 0 0 0 0 0 0 0 0 0
7 3 1 1 1 0 0 1 20 52 252 181 138 132 176 223 240 349 460 801 653 644 633 611 494 391 92 105 80 7 0 0 0 0 0 0 0 0 0 0 0 0 0 0 0 0 0 0 0
1 4 19 4 3 0 9 5 1 7 67 133 244 193 235 306 408 621 741 790 841 807 681 487 401 83 68 283 181 0 0 0 0 0 0 0 0 0 0 0 0 0 0 0 0 0 0 0 0
5 0 23 21 27 24 3 0 2 0 13 52 285 387 439 464 548 768 873 849 789 744 583 425 216 167 284 232 1 0 0 0 0 0 1 11 22 13 18 0 0 0 0 0 0 0 0 0 0
53 5 27 26 10 0 10 3 2 5 0 99 220 310 322 534 625 908 931 741 504 406 370 465 456 285 0 1 0 0 0 0 0 1 19 26 30 15 4 0 0 0 0 0 0 0 0 0 0
17 29 27 5 0 13 35 0 19 2 42 61 106 361 574 645 681 839 682 587 553 514 489 390 145 5 0 0 0 0 0 0 2 12 16 14 1 12 1 0 0 0 0 0 0 0 0 1 12
24 25 7 6 0 4 15 9 35 7 10 55 73 344 509 568 500 478 492 408 301 140 43 6 0 0 0 0 0 0 2 10 20 25 20 9 0 5 0 0 0 0 0 0 0 0 0 0 17
6 53 72 7 13 0 12 7 116 73 135 151 124 408 493 517 494 389 259 174 76 38 13 0 0 0 0 0 0 1 9 17 21 21 16 0 0 0 0 0 0 0 0 0 0 0 0 1 3
21 2 38 13 0 0 0 2 50 19 190 244 237 406 408 391 349 313 90 0 0 0 0 0 0 2 0 0 1 27 36 35 33 32 15 0 0 0 0 0 0 0 0 0 0 0 0 0 0
1 8 2 0 0 0 12 0 78 32 10 255 304 365 433 441 396 268 8 0 1 6 3 1 0 1 1 0 23 35 43 42 35 25 1 0 0 0 0 0 0 0 0 0 0 0 0 2 8
0 2 32 0 0 0 0 0 0 0 6 25 214 336 441 445 367 202 0 0 6 17 21 6 8 3 3 44 45 33 41 39 7 2 0 0 0 0 0 0 0 0 0 0 0 0 0 0 0

GFSSGP_con_mucape_060.txt.gz
CAPE
0 0 0 0 0 0 0 0 0 29 662 911 877 804 890 940 746 323 550 550 561 846 909 945 942 1129 1197 1213 1211 1183 1188 1054 878 929 790 727 437 221 114 137 133 3 0 0 0 0 0 0 0
0 0 0 0 0 0 0 0 328 782 546 750 690 901 868 985 1023 973 636 486 691 858 874 921 883 1025 1181 1222 1149 1024 1074 996 1009 955 603 429 208 142 62 29 35 7 0 0 0 0 0 0 0
0 0 0 0 0 0 0 784 714 603 526 492 688 714 751 1051 991 862 782 574 650 805 822 930 854 962 1163 1178 1078 1025 1018 922 907 856 511 228 159 90 26 50 36 24 0 0 0 0 0 0 0
0 0 0 0 0 0 58 39 761 612 404 414 374 490 820 963 1122 961 923 703 519 738 843 810 896 1009 1127 1015 1102 1031 961 891 805 620 442 224 118 63 39 95 53 16 2 0 0 0 0 0 0
0 0 0 0 0 211 465 496 336 470 582 487 408 214 727 1038 1042 1106 902 519 527 628 504 533 775 900 796 1133 1025 853 688 558 584 500 409 310 102 51 65 148 123 119 0 3 0 0 0 0 0
0 0 0 2 0 612 510 423 284 176 350 265 176 271 595 972 968 881 707 596 347 137 49 164 236 263 455 835 746 522 421 414 422 417 368 279 199 172 144 184 171 120 80 33 0 0 0 0 4
0 0 3 0 0 584 436 324 202 131 148 299 351 393 618 979 984 748 457 289 222 71 51 101 123 207 370 477 421 326 325 328 329 302 268 216 194 214 220 191 195 156 82 10 0 0 0 3 1
0 0 14 0 0 90 437 313 240 265 39 349 385 268 465 1001 880 678 499 255 156 103 71 55 185 363 373 360 288 224 214 201 209 182 144 98 106 110 114 95 127 98 22 0 0 1 0 0 0
0 0 2 6 0 228 212 285 319 160 40 32 130 316 146 724 619 394 280 152 107 138 146 121 226 307 323 290 239 183 165 129 125 125 93 19 3 0 12 4 42 48 0 0 0 6 1 0 0
0 0 0 39 343 163 25 52 118 163 0 0 192 437 260 231 354 204 125 110 46 35 124 220 260 290 288 254 137 85 59 27 14 77 101 143 73 24 17 29 42 24 9 44 41 41 0 3 6
0 0 18 99 100 43 11 19 63 1 0 3 2 575 330 53 63 33 30 24 8 20 223 295 273 308 253 162 65 24 5 82 186 228 216 186 83 85 176 184 155 111 108 32 8 17 4 1 0
0 1 68 238 100 75 54 30 22 22 62 80 45 357 327 195 69 68 49 13 6 102 208 278 308 271 78 30 0 0 0 2 244 321 299 257 247 253 215 99 59 29 13 12 15 1 1 11 6
0 213 154 144 29 142 6 0 0 9 386 120 372 163 223 61 61 28 18 76 52 116 184 331 334 85 18 3 61 72 169 266 330 323 327 374 237 181 31 2 24 15 24 14 9 21 15 27 0
44 87 58 62 74 27 3 0 2 127 129 87 65 144 71 74 179 173 187 170 119 100 215 380 252 13 71 100 64 154 221 356 413 232 170 144 85 37 38 31 20 13 15 12 1 0 0 0 0
113 83 26 37 0 0 7 26 51 66 23 402 466 237 101 68 94 92 141 175 133 208 209 209 18 134 109 125 236 316 334 378 321 173 56 62 67 52 46 42 15 3 1 0 0 0 0 0 0
0 36 6 18 0 0 9 27 98 107 285 440 598 469 153 101 117 105 124 199 164 106 39 32 255 169 193 200 197 223 257 222 109 32 0 0 0 4 2 0 0 0 0 0 0 0 0 0 0
7 1 0 5 11 0 22 44 356 305 359 391 358 320 150 46 33 121 202 118 106 7 2 169 329 247 245 251 224 174 109 16 0 0 0 0 0 0 0 0 0 0 0 0 0 0 0 0 0
0 0 0 2 7 3 0 0 286 241 335 303 343 289 159 51 27 44 252 152 19 75 46 281 411 413 294 243 226 155 79 32 15 0 4 0 0 0 0 0 1 0 0 0 0 0 0 0 0
1 0 0 0 0 7 0 3 158 322 270 229 342 220 225 82 35 100 162 59 115 253 162 331 430 504 294 236 158 79 35 44 12 1 0 0 0 0 0 0 0 0 0 0 0 0 0 0 0
0 0 0 0 0 1 16 5 91 272 282 198 231 167 182 85 60 63 59 170 201 294 337 394 509 538 386 318 150 73 79 18 0 0 0 0 0 0 0 0 0 0 0 0 0 0 0 0 0
0 0 0 0 0 8 17 15 158 203 233 214 175 132 90 49 4 2 61 291 283 345 393 389 465 428 407 334 152 72 2 0 0 0 0 0 0 0 0 0 0 0 0 0 0 0 0 0 0
0 0 0 1 0 0 5 0 1 136 219 201 116 136 135 144 161 282 275 410 397 421 452 471 489 468 374 241 92 0 0 0 0 0 0 0 0 0 0 0 0 0 0 0 0 0 0 0 0
0 0 1 7 6 5 0 0 0 0 23 145 186 179 148 153 222 494 512 495 566 598 615 638 526 391 270 74 143 28 0 0 0 0 0 0 0 0 4 0 0 0 0 0 0 0 0 0 0
0 0 8 7 11 0 0 0 0 0 0 0 34 223 232 248 307 594 732 773 801 779 792 587 457 215 81 273 213 4 0 0 0 0 0 10 22 33 19 1 0 0 0 0 0 0 0 0 0
3 3 0 2 1 3 16 1 0 0 4 0 1 243 332 364 518 703 760 806 816 706 524 386 219 178 252 255 21 0 0 0 0 1 17 32 20 12 31 1 0 0 0 0 0 0 0 0 0
1 17 27 0 0 1 9 0 1 66 15 1 49 139 249 360 589 802 894 796 596 512 321 311 380 214 0 0 6 5 0 4 8 14 21 33 30 7 3 9 0 0 0 0 0 0 0 0 0
2 24 12 29 17 13 0 4 25 35 32 1 9 361 512 514 691 976 998 778 480 402 441 570 424 57 2 7 20 23 21 22 36 44 23 20 0 1 4 0 0 0 0 0 0 0 0 0 0
6 9 0 20 0 0 0 0 0 32 133 98 55 197 616 686 795 852 690 566 318 170 65 18 10 15 20 25 11 11 17 30 17 16 22 0 4 3 0 0 0 0 0 0 0 0 0 0 0
2 0 0 2 0 0 0 0 10 25 183 208 137 113 480 527 501 590 588 456 307 156 37 8 8 10 8 0 4 25 20 8 0 0 13 5 0 2 0 0 0 0 0 0 0 0 0 0 0
16 16 0 0 5 0 0 0 12 22 37 253 240 255 459 463 411 340 338 369 116 5 0 0 0 2 10 19 31 32 50 16 0 33 20 5 17 0 0 0 0 0 0 0 0 0 0 0 0

GFSSGP_con_mucape_063.txt.gz
CAPE
1 0 0 0 0 0 0 9 0 48 382 978 1048 1038 919 842 637 352 547 323 678 1058 992 988 892 887 912 969 1003 1077 1024 734 616 502 427 282 183 159 60 75 76 29 0 0 0 0 0 0 0
0 0 0 0 0 0 0 0 228 654 592 1091 780 722 976 935 989 1074 632 587 882 1063 878 888 883 874 931 971 982 1089 1000 859 661 409 258 192 160 99 15 32 126 89 0 0 0 0 0 0 0
0 0 0 0 0 0 0 58 637 534 630 538 826 813 836 1159 826 838 876 727 1331 892 813 978 810 862 986 982 1034 1133 1113 1072 861 552 264 183 138 65 36 108 174 108 0 0 0 0 0 0 6
0 0 0 0 0 0 6 354 406 659 432 485 487 722 810 946 994 1026 905 818 1137 1042 937 773 692 943 1008 1043 1045 983 1036 932 687 424 354 187 104 71 51 211 208 92 0 0 0 0 0 0 0
0 0 0 0 0 20 534 578 664 425 523 411 348 512 673 1188 1192 1120 667 911 1005 875 773 509 643 818 1038 1137 1061 979 912 796 610 435 355 276 149 84 139 273 240 176 18 0 0 0 12 0 0
0 0 0 0 0 564 515 460 415 329 217 237 378 509 737 1322 1304 1166 1030 756 739 581 344 177 264 265 367 611 754 610 648 620 504 422 351 265 236 198 219 257 243 163 79 59 12 25 63 61 21
0 0 0 0 0 15 482 378 300 190 235 376 365 242 681 1032 1065 1061 814 578 408 330 137 25 64 172 275 458 346 363 402 410 433 402 305 253 230 191 209 226 223 145 96 73 47 11 19 87 58
0 0 0 0 0 1 391 394 302 311 300 508 357 187 529 976 910 933 795 492 392 198 42 50 81 105 245 274 271 277 273 292 290 234 172 138 124 133 166 147 155 148 130 120 72 57 48 28 58
0 0 0 0 0 47 416 445 321 336 272 286 336 285 536 795 906 725 489 389 261 111 55 50 116 197 271 303 269 221 229 189 140 121 85 26 21 16 0 40 94 106 111 121 146 60 10 0 0
0 0 0 3 172 240 291 217 219 323 258 98 789 590 878 806 679 650 386 166 41 41 34 11 94 276 306 268 182 127 113 46 39 36 5 3 0 10 14 15 61 98 92 106 11 0 3 2 0
0 0 0 117 389 145 61 51 99 109 59 20 755 1078 900 638 390 252 133 124 37 7 68 96 156 280 254 192 89 46 21 15 27 71 108 72 78 63 153 119 106 63 41 22 13 10 9 0 0
0 0 0 62 144 103 54 113 117 29 23 41 455 311 415 193 80 125 151 76 66 55 63 126 166 274 225 101 19 0 0 8 165 189 185 180 77 184 134 94 115 54 25 11 5 6 13 2 0
35 108 147 289 177 91 13 5 0 11 218 106 491 271 107 59 66 53 33 1 4 17 105 157 224 302 138 11 0 0 104 196 285 316 290 268 258 244 105 81 47 19 30 27 13 7 13 12 2
101 139 166 133 144 45 11 0 7 197 340 353 234 151 85 60 17 14 27 4 0 35 128 165 294 206 0 0 0 13 131 239 356 310 359 365 252 87 19 17 25 23 25 26 8 0 0 0 0
168 115 177 156 89 21 14 50 102 14 203 163 78 108 113 42 44 7 11 31 63 37 160 263 301 34 25 9 65 131 278 353 366 282 152 131 85 35 38 35 41 27 19 0 0 0 0 0 0
128 112 108 66 13 2 49 68 74 33 438 490 174 140 122 94 62 53 112 119 122 75 122 294 328 26 74 15 62 194 314 393 369 297 156 55 38 28 22 12 8 0 0 0 0 0 0 0 0
4 2 17 81 26 12 19 135 202 145 529 518 395 171 161 180 184 131 161 142 182 183 264 286 287 62 87 115 240 352 391 389 325 142 50 3 0 0 2 0 2 1 0 0 0 0 0 0 0
11 1 0 6 2 20 16 54 339 304 473 573 615 360 190 152 141 140 106 128 214 239 210 210 100 82 149 202 258 264 247 189 67 19 8 0 0 0 0 0 0 0 0 0 0 0 0 0 0
3 0 0 1 1 0 3 4 227 320 480 414 485 534 269 165 52 66 199 228 205 231 166 180 156 172 236 243 216 196 184 104 41 18 14 14 0 0 0 0 0 0 0 0 0 0 0 0 0
0 0 0 0 0 0 0 2 7 237 277 447 422 428 321 171 39 29 190 294 173 169 41 107 251 230 271 263 212 176 156 38 45 24 25 0 0 0 0 0 0 0 0 0 0 0 0 0 0
0 0 0 0 0 0 0 0 1 120 234 264 355 314 290 151 86 20 94 321 240 153 109 87 238 388 402 353 240 162 81 80 44 36 0 0 0 0 0 0 0 0 0 0 0 0 0 0 0
0 0 0 0 0 0 0 0 0 6 142 178 382 251 190 102 47 30 63 288 107 48 166 250 264 392 477 373 298 205 161 83 35 1 0 0 0 0 0 0 0 0 0 0 0 0 0 0 0
0 0 0 0 8 0 0 0 0 38 97 159 146 188 110 145 77 44 51 139 202 138 159 316 361 403 508 380 249 210 41 0 0 0 0 0 0 0 0 0 4 0 2 2 0 0 0 0 0
0 0 0 2 13 4 0 0 0 0 3 117 132 133 111 124 122 91 95 224 204 124 170 321 421 444 457 404 221 48 10 0 0 0 0 0 0 3 12 4 10 4 5 1 0 0 0 0 0
0 0 0 0 0 0 0 0 1 0 0 0 15 81 78 90 91 320 148 195 191 162 259 365 430 480 464 266 27 96 208 0 0 0 1 0 1 2 0 10 3 0 5 0 0 0 0 0 0
0 0 0 0 0 0 0 0 0 0 0 5 0 0 68 134 140 346 370 252 275 348 483 482 502 414 198 43 146 249 223 5 4 3 0 22 29 17 15 18 6 1 0 0 0 0 0 0 0
0 0 0 0 0 0 0 0 0 0 29 18 25 0 21 210 300 421 568 626 721 703 588 447 287 150 151 223 250 118 60 12 49 30 9 0 0 0 0 12 5 2 0 0 0 0 0 0 0
15 1 0 0 0 0 0 0 0 0 45 70 44 250 195 282 413 498 621 792 856 755 470 367 222 261 248 5 3 17 56 33 23 34 34 12 0 1 9 4 4 0 0 0 0 0 0 0 0
29 15 11 0 0 0 0 0 0 0 25 107 42 82 347 366 507 607 749 947 887 614 361 335 299 417 123 21 15 66 35 18 28 10 32 48 0 3 2 8 1 0 0 0 0 0 0 0 0
3 5 16 0 0 0 0 0 0 0 3 8 7 12 288 638 695 750 909 1035 721 414 456 493 549 256 14 14 12 0 0 1 19 33 2 20 25 4 5 2 0 0 0 0 0 0 0 0 0

GFSSGP_con_mucape_066.txt.gz
CAPE
0 0 0 0 0 0 0 0 0 0 12 1078 1077 1031 836 776 636 415 698 671 983 1282 1031 894 803 875 889 925 975 949 945 856 606 370 257 216 158 68 78 111 96 54 0 0 0 0 186 244 242
0 0 0 0 0 0 0 0 410 546 636 946 790 848 1138 996 989 882 743 930 1235 1212 950 831 863 921 973 981 996 993 995 811 658 325 189 158 59 56 38 74 99 52 0 0 0 30 235 269 465
0 0 0 0 0 0 0 0 164 385 741 743 875 801 838 1009 1034 1039 668 962 1168 1071 840 902 826 882 1010 1071 1066 1050 957 777 574 368 225 187 79 27 46 217 122 69 41 0 0 18 227 273 293
0 0 0 0 0 0 0 238 306 610 546 566 616 692 877 1086 1108 932 797 1074 1133 1069 965 837 814 906 1171 1294 1255 1176 944 750 486 403 333 173 54 51 105 236 147 121 46 0 0 0 0 105 248
0 0 0 0 0 0 459 548 663 566 562 464 380 602 699 1132 1153 1031 936 1076 1156 1019 765 641 651 995 1271 1231 1220 1092 902 661 509 402 285 208 166 124 225 260 214 140 64 3 0 3 12 25 13
0 0 0 0 0 22 646 541 608 603 413 421 621 629 766 1258 1243 1179 951 963 1009 738 519 484 556 605 608 449 598 906 776 570 528 429 297 265 273 268 258 232 211 162 120 97 51 75 40 13 3
0 0 0 0 0 20 405 523 446 309 332 383 407 585 898 1186 1152 1294 942 851 808 496 404 275 207 211 173 325 652 639 503 467 437 377 304 276 258 251 225 212 210 182 143 123 98 93 86 7 0
0 0 0 0 2 41 303 605 480 373 355 490 356 342 793 1121 1170 1137 958 643 471 347 296 134 69 69 138 263 389 389 344 350 291 231 169 134 148 159 172 124 231 217 226 218 157 16 47 0 0
0 0 0 0 13 135 436 587 490 442 374 582 525 433 768 1096 1119 937 652 456 406 291 266 133 82 72 187 275 239 268 311 260 184 143 103 45 39 16 19 95 150 244 244 129 3 0 0 0 0
0 0 0 0 19 266 341 556 397 396 400 422 912 1085 1131 1132 898 831 286 252 182 128 97 16 83 90 257 205 168 176 170 87 60 42 28 18 15 1 0 25 156 179 21 0 0 0 0 0 0
0 0 0 0 70 349 183 171 111 151 240 225 538 877 784 962 679 566 364 205 85 72 26 3 58 92 193 226 150 101 51 42 25 5 1 13 26 33 45 18 22 9 0 0 0 0 7 4 0
11 1 2 37 187 185 138 185 213 145 127 106 490 643 715 1115 521 397 186 21 15 1 3 4 22 70 255 140 53 26 7 0 54 22 58 129 117 174 150 125 54 25 19 20 12 19 0 2 5
39 54 95 164 225 201 96 41 52 215 354 415 564 885 309 282 213 84 53 42 33 7 5 0 0 118 208 63 4 0 0 31 94 228 209 125 181 161 73 74 60 40 30 26 20 21 20 6 0
128 198 333 244 225 78 39 50 157 430 630 779 622 138 69 105 73 61 79 0 1 0 0 7 97 160 159 33 0 0 0 139 251 282 294 277 273 169 48 35 31 26 39 41 39 30 0 0 0
161 169 174 152 154 44 47 107 114 515 401 263 377 154 87 104 56 31 18 2 9 2 52 66 67 170 77 0 0 3 94 289 398 389 364 283 168 91 53 33 25 34 40 52 10 0 0 0 0
149 131 118 115 50 14 22 57 90 383 258 26 56 199 143 109 57 13 0 0 3 12 40 125 180 230 10 0 0 72 233 344 406 295 204 158 109 52 42 40 37 37 24 1 0 0 0 0 0
25 16 24 40 71 9 0 108 117 405 387 242 125 154 202 130 22 8 4 10 19 19 58 176 256 126 6 0 19 170 342 355 280 288 239 70 22 40 31 19 2 0 1 0 0 0 0 0 0
22 17 11 19 10 0 0 18 136 362 483 421 243 192 219 163 47 113 142 131 65 36 77 129 252 249 22 9 50 189 293 297 283 238 50 16 12 12 0 0 0 0 0 0 0 0 0 0 0
12 17 0 0 8 0 0 0 244 146 484 475 436 325 244 244 173 195 144 131 147 109 196 253 357 370 44 54 139 238 242 281 199 110 51 51 47 2 0 0 0 0 0 0 0 0 0 0 0
1 1 2 3 0 0 0 0 0 266 432 484 529 502 367 218 206 210 208 169 152 195 253 245 179 147 51 81 158 207 214 190 135 67 50 62 38 0 0 0 0 0 0 0 0 0 0 0 0
0 0 1 0 0 0 0 0 0 0 242 463 414 429 458 297 179 138 130 194 207 132 267 287 175 43 64 119 179 188 167 130 85 64 82 78 3 0 0 0 0 0 0 0 0 0 0 0 0
0 0 0 0 0 0 0 0 0 0 24 268 283 387 380 381 246 101 0 89 275 181 234 243 180 69 83 167 233 276 144 67 58 94 72 3 0 0 0 0 0 0 0 0 0 0 0 0 0
0 0 0 0 0 0 0 0 0 0 8 105 208 296 339 338 299 138 34 44 187 254 204 215 126 67 119 176 259 177 121 98 107 34 4 0 0 0 0 2 0 4 3 6 1 0 0 0 0
0 0 0 0 0 0 0 0 0 0 0 2 37 177 216 326 296 149 75 42 60 219 266 190 106 140 147 227 236 177 166 84 4 0 0 0 0 2 12 12 3 11 12 12 8 0 0 0 0
0 0 0 0 0 0 0 0 0 0 0 0 9 86 172 320 228 116 74 48 81 117 241 57 143 163 202 211 321 198 120 17 0 0 0 0 1 11 21 2 5 8 1 15 4 0 0 0 0
0 0 0 0 0 0 0 0 0 0 0 0 0 9 60 176 185 113 72 98 149 82 56 144 233 248 263 249 317 220 127 47 30 0 0 1 1 14 13 8 1 0 9 14 10 1 0 0 0
0 0 0 0 0 0 0 0 0 0 0 0 0 0 0 12 101 151 111 183 260 200 110 214 280 260 296 416 403 183 60 131 58 0 1 4 4 8 14 5 0 0 5 15 1 0 0 0 0
0 0 0 0 0 0 0 0 0 0 0 8 26 56 6 0 18 105 253 248 311 327 306 421 444 460 480 473 263 109 110 85 99 27 1 15 17 14 0 0 0 3 9 2 0 0 0 0 0
0 0 0 0 0 0 0 0 0 0 0 70 33 5 65 38 64 170 254 326 361 371 463 615 508 438 326 122 191 170 95 76 92 42 30 53 37 23 18 2 0 1 0 2 0 0 0 0 0
0 0 0 0 0 0 0 0 0 0 0 0 0 0 0 154 198 274 346 418 481 575 647 589 446 212 117 203 194 73 22 30 43 18 25 0 22 0 1 1 0 0 0 0 0 0 0 0 0

GFSSGP_con_mucape_069.txt.gz
CAPE
0 0 0 0 0 0 0 0 0 0 0 1118 1206 1053 1040 953 800 813 751 667 1112 1015 733 880 915 992 926 941 937 992 1068 944 598 414 489 336 160 125 111 113 86 54 3 36 212 277 157 330 363
0 0 0 0 0 0 0 0 214 515 431 1130 856 1095 1396 1360 1134 959 894 1031 1222 1132 811 864 882 965 1052 1031 1017 1030 955 722 579 423 328 230 159 161 165 106 35 98 129 142 359 416 380 304 543
0 0 0 0 0 0 0 1 51 229 578 777 974 934 1072 1282 1093 898 822 1323 1455 1175 844 855 882 939 1132 1071 1028 962 865 692 494 400 249 196 185 162 154 76 88 144 80 234 389 326 446 489 506
0 0 0 0 0 0 0 0 621 791 678 714 824 899 1243 1392 1492 1096 1035 1513 1627 1191 957 844 881 991 1126 1183 1103 934 751 524 402 323 252 201 198 134 194 136 93 109 96 103 284 218 318 419 362
0 0 0 0 0 0 51 462 612 694 601 631 440 895 1158 1468 1285 1116 1386 1514 1407 1318 1094 996 722 1000 1287 1353 1158 879 649 531 389 272 225 229 260 201 244 142 118 127 133 31 33 98 163 236 129
0 0 0 0 0 17 342 722 674 628 569 637 848 871 1026 1213 1395 1412 1315 1457 1329 1118 1108 943 695 812 1030 948 914 684 512 462 366 288 252 268 305 257 215 184 167 177 177 152 102 93 93 40 26
0 0 0 0 16 67 81 625 618 451 389 567 619 804 1150 1263 1337 1126 1119 1168 908 721 587 375 534 441 294 624 545 370 358 335 323 318 281 253 255 217 195 177 166 177 173 150 141 54 33 35 7
0 0 0 0 4 84 127 646 559 501 414 586 540 676 942 1310 1251 1297 1055 1011 945 528 320 285 278 142 81 153 339 302 250 239 241 227 179 141 153 166 166 168 202 194 154 118 31 0 0 0 0
0 0 0 0 25 2 461 644 585 465 425 725 669 567 993 1236 1261 1329 1043 763 627 351 279 147 33 8 42 105 179 246 261 166 157 161 120 60 72 59 57 149 232 166 31 1 0 0 0 0 0
0 0 0 0 0 50 383 576 430 419 421 592 763 897 1391 1135 1160 872 571 395 366 305 245 45 33 20 18 191 161 230 200 94 133 103 83 65 97 109 83 143 170 1 0 0 0 0 0 0 0
0 0 0 0 0 212 240 294 235 278 267 386 658 1138 1177 967 708 612 432 379 297 229 154 138 5 58 99 149 113 95 82 92 100 79 84 129 99 157 212 215 0 0 0 0 0 0 0 0 0
8 8 7 4 153 191 154 206 253 191 244 341 666 874 976 696 580 488 266 202 166 87 36 4 51 124 160 111 99 47 56 46 59 60 170 246 228 220 54 48 14 25 5 1 8 11 2 8 9
33 24 139 37 150 176 73 29 109 430 586 434 825 898 639 444 307 249 259 205 102 19 22 0 39 60 96 64 20 16 43 39 73 133 306 320 176 226 181 145 61 55 14 25 27 22 22 4 0
82 186 266 226 209 99 48 48 98 352 954 658 732 565 420 290 190 180 48 36 1 6 7 4 0 45 120 30 0 6 41 53 69 170 266 170 188 162 115 71 55 41 30 33 29 32 3 0 0
129 159 183 164 176 82 72 115 164 458 535 441 271 139 201 142 115 88 12 2 3 9 0 0 1 106 185 49 7 18 63 189 223 284 276 150 168 78 50 49 60 35 24 34 25 0 0 0 0
124 113 114 125 94 65 59 64 158 535 306 380 369 157 83 101 78 63 51 24 11 2 0 0 57 180 203 11 0 41 188 200 253 282 249 223 115 60 42 42 41 33 21 5 0 0 0 0 0
18 25 40 59 59 73 20 54 89 399 233 48 278 204 148 149 65 60 44 19 0 11 36 103 171 141 226 0 15 116 191 269 272 230 199 188 106 47 47 37 18 6 0 0 0 0 0 0 0
0 1 18 8 1 0 8 12 120 382 493 139 169 232 277 168 94 28 15 17 10 14 46 88 217 306 89 0 3 92 250 279 261 171 166 116 42 38 18 1 0 0 0 0 0 0 0 0 0
0 0 0 0 0 5 2 6 106 315 474 491 305 215 235 200 145 72 74 70 30 41 31 81 236 264 68 15 17 69 227 249 188 48 77 30 17 20 7 0 0 0 0 0 0 0 0 0 0
0 0 1 1 0 11 6 6 10 144 312 489 418 357 229 277 235 167 162 208 200 145 109 140 183 212 289 14 14 25 152 178 89 69 50 43 21 4 0 0 0 0 0 0 0 0 0 0 0
0 0 0 0 0 0 1 0 0 31 184 313 372 448 430 333 306 279 214 256 204 219 129 152 276 339 427 145 42 75 144 107 86 91 59 19 11 11 0 0 0 0 0 0 0 0 0 0 0
0 0 0 0 0 0 0 2 0 0 40 216 338 420 591 487 334 241 153 203 247 181 130 219 304 300 186 189 95 121 161 91 54 61 49 14 19 0 0 0 0 0 0 0 0 0 0 0 0
0 0 0 0 0 0 0 0 0 0 0 46 147 349 396 570 474 313 160 91 162 134 113 85 216 295 190 71 87 131 173 80 99 63 21 4 4 0 0 0 1 7 3 12 5 2 0 1 0
0 0 0 0 0 2 0 0 2 0 1 4 13 103 314 304 475 407 319 113 54 24 179 169 143 226 254 125 65 102 175 75 79 58 13 3 0 0 0 0 2 11 4 5 0 0 1 0 0
0 0 0 0 0 2 0 0 5 0 2 1 0 26 65 204 300 369 389 283 70 24 56 224 219 216 214 131 85 171 112 150 77 58 4 0 0 0 0 1 15 20 30 0 1 0 7 0 0
0 0 0 0 0 0 0 0 3 0 0 0 0 1 8 4 162 269 338 372 171 89 53 72 219 266 127 153 105 205 232 226 69 0 0 0 0 0 0 2 21 7 11 0 0 0 0 0 0
0 0 0 0 0 0 0 0 0 0 0 0 1 3 2 0 0 100 274 349 249 143 105 115 130 265 292 260 288 284 272 281 87 53 7 1 9 0 8 15 17 2 0 0 0 0 0 0 0
0 0 1 2 0 0 0 0 0 0 0 34 11 60 16 0 0 0 60 321 275 226 250 231 190 266 420 367 363 369 328 236 96 101 37 25 24 15 31 20 3 0 0 0 0 0 0 0 0
0 0 0 0 0 0 0 0 0 0 0 0 1 0 10 12 3 17 184 197 280 343 369 256 315 432 371 432 505 402 379 208 105 137 53 53 50 28 0 1 0 0 0 0 0 0 0 0 0
0 0 0 9 0 0 0 0 0 0 0 0 0 0 0 28 112 153 324 414 386 400 309 230 331 484 508 540 528 464 322 162 131 74 70 91 35 2 4 3 0 0 6 1 0 0 0 0 0

GFSSGP_con_mucape_072.txt.gz
CAPE
0 0 0 0 0 0 0 2 0 5 95 37 389 1329 1473 1529 1078 1132 1311 1021 1374 1207 591 972 972 1116 1152 1174 1155 1173 1115 1002 755 472 352 171 148 148 162 133 165 211 122 159 323 556 424 364 380
0 0 0 0 0 11 47 0 53 294 347 1034 1022 1198 1186 1199 1632 1234 1246 1236 1660 1159 623 652 957 1029 1071 1071 1174 1172 1038 843 627 428 206 188 198 218 174 157 241 333 373 388 334 483 465 438 470
0 0 0 0 0 5 34 0 43 728 677 1164 341 845 1246 1547 1408 1325 1261 1516 1648 1172 563 782 984 1003 1122 1191 1173 1003 807 629 504 268 215 252 270 211 181 258 281 393 490 545 592 484 553 510 443
0 0 0 0 4 0 0 0 585 1277 996 1178 1191 457 1437 1429 1752 1200 1300 1823 1582 1247 811 814 956 1064 1185 1212 1081 846 639 465 282 165 238 308 240 217 258 240 255 483 642 393 589 561 509 427 311
0 0 0 0 0 0 1 52 507 1212 1199 1178 919 863 440 1128 1634 1309 1660 1795 1448 1254 1101 1094 931 1009 1156 1265 1032 730 540 396 179 163 245 284 291 282 225 211 244 265 374 302 376 472 385 208 110
0 0 1 9 0 30 12 189 756 1122 1098 1160 1106 711 217 1114 1636 1616 1871 1858 1603 1271 1285 1011 748 893 1079 1023 778 545 432 273 167 188 275 325 281 266 264 268 270 257 218 275 322 346 196 88 64
0 0 0 0 2 62 61 869 1034 1013 920 1122 1134 1205 1536 1693 1674 1812 1790 1383 1136 853 1178 1139 869 798 556 609 497 382 283 210 202 244 276 227 173 173 212 211 244 253 217 199 148 144 88 16 0
0 0 0 0 32 97 228 970 1121 1012 976 1018 981 1031 1353 1533 1464 1484 1471 1028 982 554 436 356 279 63 51 206 295 263 202 170 180 184 138 96 112 163 203 204 279 308 258 34 3 27 0 0 0
0 7 2 1 58 19 405 791 992 910 993 999 1163 1120 1521 1495 1425 1538 1192 779 507 424 315 227 206 10 16 112 203 202 204 164 149 90 64 17 13 12 22 174 238 194 58 0 0 0 0 0 0
0 10 1 0 0 0 188 833 906 880 846 958 1056 1207 1616 1396 1163 1017 895 702 613 468 265 194 79 11 3 71 130 262 186 68 61 40 24 10 37 38 46 92 31 0 0 0 0 0 0 0 0
4 13 2 0 0 2 231 647 646 576 475 564 925 1309 1360 1435 1039 897 745 567 454 427 327 186 97 41 1 3 0 203 131 184 119 80 42 96 140 122 182 10 0 0 0 0 0 0 0 6 8
14 5 0 0 108 402 554 546 494 513 737 759 673 1150 1136 956 738 531 472 378 321 250 163 123 52 31 0 1 11 134 135 158 143 189 176 237 245 320 399 198 7 0 0 0 3 18 25 15 8
7 21 216 51 317 514 259 330 431 531 838 833 734 1050 773 532 430 426 358 248 212 79 45 44 20 1 73 144 140 142 166 164 191 290 319 389 481 526 348 85 7 15 20 14 20 19 14 1 0
77 213 453 523 557 371 200 265 327 734 564 572 653 507 601 584 311 302 101 84 91 20 3 4 1 6 7 21 171 158 146 169 253 392 589 682 591 383 139 124 68 42 43 22 17 12 0 0 0
150 278 361 427 449 281 204 418 414 611 622 619 505 365 469 626 146 76 44 26 8 0 0 40 80 125 233 177 148 118 157 199 312 511 620 305 218 199 86 45 40 34 15 10 12 0 0 0 0
162 194 181 207 196 145 177 171 467 618 644 456 446 419 158 202 55 33 53 62 16 86 107 182 65 273 370 196 93 68 193 378 529 630 697 352 197 75 30 38 19 10 9 3 0 0 0 0 0
99 91 60 76 70 106 106 88 491 511 138 139 278 166 204 220 88 200 177 28 123 31 19 29 111 390 440 346 96 156 356 593 645 604 681 490 170 38 21 3 3 5 0 0 0 0 0 0 0
67 47 34 54 53 28 49 65 308 670 351 162 102 193 411 285 237 141 184 272 197 1 9 23 267 437 515 393 286 382 516 572 508 580 548 219 102 32 22 2 0 0 0 0 0 0 0 0 0
3 34 56 53 5 6 29 58 129 692 571 289 212 208 523 297 245 162 204 154 137 98 108 284 485 677 636 353 137 230 422 389 446 403 261 65 67 19 3 1 0 0 0 0 0 0 0 0 0
8 22 38 24 0 0 39 52 67 542 700 655 465 336 250 479 182 199 187 224 192 186 240 348 469 621 592 200 142 378 564 307 421 362 55 57 19 9 2 0 0 0 0 0 0 0 0 0 0
5 11 8 4 2 0 10 62 71 124 519 629 622 589 510 308 384 226 220 229 229 200 240 293 456 541 592 452 214 398 468 248 266 161 48 66 45 5 0 0 0 0 0 0 0 0 0 0 0
17 1 0 0 6 84 1 54 49 92 212 390 677 837 754 696 364 424 276 310 389 388 299 290 375 548 668 618 378 264 284 350 234 55 55 56 24 3 1 0 0 0 0 0 0 0 0 9 0
7 0 1 0 19 20 27 19 76 41 94 128 338 699 950 979 825 426 460 420 380 446 544 676 632 742 756 697 546 479 456 386 49 39 37 58 25 1 10 0 0 0 0 0 5 1 1 0 0
0 3 5 22 58 56 30 41 66 64 49 90 113 186 706 994 1101 966 616 447 476 840 795 689 613 595 563 499 553 541 509 107 93 74 47 49 1 0 10 0 0 0 0 10 7 9 0 3 0
0 42 146 104 84 90 4 35 79 18 33 35 44 59 179 566 997 1186 1050 858 529 628 776 702 689 619 635 536 497 379 325 114 91 83 104 45 23 17 3 0 0 2 7 13 5 0 0 0 0
0 65 100 16 37 45 0 1 23 29 19 6 57 96 59 188 441 950 1148 1123 735 621 669 710 752 719 647 590 458 352 327 280 146 107 85 43 30 3 0 0 0 0 5 4 3 0 0 0 0
32 42 13 44 2 29 4 0 0 0 0 34 134 205 344 112 223 472 837 1140 973 790 753 736 664 704 598 455 490 447 303 211 256 173 100 16 0 0 0 0 1 4 7 1 0 0 0 0 0
26 16 39 51 2 10 12 7 9 0 0 7 0 4 357 114 121 268 438 779 934 1012 915 805 745 702 658 587 415 335 326 329 275 305 88 5 0 1 13 37 15 13 0 8 0 0 0 0 0
14 37 17 37 16 23 1 43 0 0 0 0 1 75 91 394 240 185 294 445 696 913 946 871 820 758 865 650 398 509 472 351 441 325 105 62 43 36 49 32 2 0 0 0 0 0 0 0 0
27 45 88 38 37 22 15 0 0 2 12 5 0 5 71 144 555 491 524 590 658 899 943 887 917 924 835 639 497 380 376 259 354 124 81 89 76 4 33 18 32 13 0 0 0 0 0 0 0

GFSSGP_con_mucape_075.txt.gz
CAPE
0 0 0 0 0 2 0 41 39 5 2 140 34 0 411 605 745 711 1631 1608 1738 1214 980 1436 1429 1516 1489 1448 1395 1329 1225 1139 856 494 396 257 221 170 230 249 299 604 797 684 587 407 405 319 250
0 0 0 0 1 35 25 7 6 25 217 419 143 20 137 384 27 480 1724 1628 1763 1150 1005 1424 1313 1437 1489 1390 1341 1248 1174 984 668 434 324 274 259 264 338 387 404 485 595 742 639 532 441 317 306
0 0 0 43 40 71 31 1 14 193 547 798 443 273 441 1231 1168 1548 1710 1893 1833 1095 924 1435 1238 1274 1359 1322 1245 1145 966 681 457 372 406 407 306 303 474 516 681 924 644 638 693 580 455 355 388
0 0 0 0 19 21 0 21 85 379 436 511 710 117 380 1525 1744 1879 1548 1951 1873 1134 835 954 1078 1106 1298 1324 1164 915 745 451 333 373 461 384 322 482 412 556 866 897 984 933 780 617 372 354 212
0 0 10 54 34 19 18 130 319 384 276 590 912 542 378 644 367 1401 1489 1649 1555 986 1035 1153 976 1109 1201 1226 995 718 512 289 314 415 324 331 420 354 367 354 597 657 964 1117 723 418 246 205 167
0 0 27 11 19 5 170 51 25 643 512 906 876 376 28 50 0 484 1770 1712 1584 1119 1204 896 964 1080 1063 947 700 487 312 297 350 376 370 381 315 322 320 296 319 464 633 754 522 329 186 153 67
0 46 48 26 20 138 244 641 706 653 352 145 934 826 1071 750 10 772 1532 1470 1133 589 266 746 994 929 818 536 396 277 204 249 324 330 277 240 236 259 289 258 293 324 373 403 279 162 109 27 0
0 6 27 34 22 70 269 633 878 1033 842 944 1016 610 871 1470 1598 1243 1328 1000 657 221 298 509 287 508 362 184 171 179 155 196 211 195 165 172 184 224 255 282 328 292 266 242 89 34 0 0 0
0 1 12 26 52 12 151 444 1176 1017 821 809 1071 1231 1748 1752 1719 1447 1093 694 453 204 251 193 286 109 63 49 219 215 238 220 144 128 97 34 55 34 123 283 276 141 88 87 3 0 0 0 0
0 56 25 4 10 11 2 273 572 673 732 649 995 1351 1822 1652 1622 1092 870 780 745 492 379 186 178 69 25 3 143 213 161 135 66 56 88 16 67 139 110 148 98 17 0 0 0 0 0 0 0
20 19 5 3 14 17 24 350 575 546 324 587 543 1243 1616 1609 1378 1014 729 650 515 469 345 206 183 137 1 87 93 145 138 114 107 162 126 163 195 225 211 73 18 0 0 0 0 0 0 0 0
0 18 13 22 15 208 337 379 314 320 519 640 569 999 1524 1425 955 699 510 490 453 326 265 176 141 4 4 5 0 17 118 125 129 171 374 482 293 403 306 122 57 7 0 2 0 3 4 2 0
2 8 23 127 57 412 251 225 229 268 665 1068 936 934 1125 856 559 509 361 330 265 268 176 176 128 31 8 3 1 2 52 131 224 306 401 407 411 617 537 483 88 29 3 7 5 9 0 0 0
46 21 89 189 298 349 178 222 198 866 783 732 783 762 528 516 385 322 206 138 199 110 163 83 19 8 4 80 81 113 190 227 291 335 506 728 826 625 614 229 57 28 20 9 0 2 0 0 0
74 42 48 124 191 229 178 77 20 556 560 771 563 389 201 346 300 189 83 72 64 29 20 34 4 3 0 2 3 1 146 233 267 549 885 599 613 492 412 194 165 38 2 0 4 1 0 0 0
64 67 67 28 141 130 80 44 127 639 549 403 437 296 221 167 48 23 35 8 2 2 2 7 1 1 3 28 58 57 160 301 484 511 749 640 549 457 452 273 106 0 3 0 0 0 0 0 0
72 44 62 104 26 67 58 56 300 528 413 374 405 42 104 138 0 7 1 0 3 15 3 3 25 13 99 188 200 190 348 633 591 669 618 565 490 430 328 197 5 0 0 0 0 0 0 0 0
77 83 60 21 9 54 35 40 111 513 339 266 334 144 0 6 78 67 51 18 94 92 62 75 137 194 270 408 356 319 364 576 677 788 711 597 512 361 268 98 0 0 0 0 0 0 0 0 0
29 24 71 67 35 14 32 46 29 521 522 418 111 437 78 8 109 144 85 68 54 71 31 26 147 213 457 491 305 199 232 485 655 611 649 616 431 310 231 45 3 0 0 0 0 0 0 0 0
9 26 45 67 35 0 17 48 19 300 462 567 444 201 360 187 143 128 163 165 72 21 1 19 200 407 526 398 169 75 224 568 713 665 516 329 43 45 175 37 0 0 0 0 0 0 0 0 0
22 36 45 54 22 1 0 30 54 142 451 561 609 345 376 304 216 160 230 252 198 72 76 122 313 525 716 383 73 132 550 417 477 497 366 182 67 84 57 0 0 0 0 0 0 0 0 2 0
36 18 1 11 10 11 56 13 82 60 195 480 584 624 376 411 245 196 260 275 269 270 308 366 505 640 742 956 238 313 583 521 508 528 232 30 54 24 44 3 0 0 0 0 0 0 0 0 0
30 0 0 21 78 109 91 2 31 15 50 137 346 668 651 473 459 302 283 266 328 392 385 426 522 591 740 827 781 495 479 449 554 449 94 64 53 49 15 2 0 0 0 0 0 0 5 3 0
7 0 15 72 124 151 43 99 32 26 3 13 74 330 601 736 569 429 432 319 331 1025 1010 987 530 575 796 1129 1065 875 667 556 478 204 38 50 0 0 23 1 3 2 0 0 0 3 1 1 2
0 54 166 140 188 165 84 48 42 63 8 4 10 74 259 590 880 727 432 470 434 643 1023 1111 842 822 883 1192 1245 1272 1082 887 479 143 30 71 63 35 58 1 1 2 0 0 1 2 14 8 13
7 74 168 168 115 177 33 32 39 24 2 0 1 23 55 230 669 988 990 665 531 944 1183 1012 1000 935 849 925 1060 1010 997 783 404 202 73 56 55 85 47 0 6 1 0 0 1 1 2 16 19
58 61 94 145 93 143 144 123 90 25 0 0 27 78 157 297 251 527 899 1245 1045 985 1113 1379 1152 972 916 1030 1288 1153 798 677 635 514 258 63 69 55 2 0 9 1 1 8 12 1 1 12 0
13 54 61 73 50 123 136 106 120 14 0 16 20 11 243 278 296 364 545 986 1315 1305 992 1338 1143 984 1003 1029 1116 867 661 646 603 485 235 158 85 62 5 0 0 13 20 1 0 0 0 0 0
1 45 63 91 69 127 162 132 39 1 14 0 5 0 3 153 325 374 524 731 1041 1409 1288 1238 1110 912 911 1093 1073 774 810 572 393 323 229 159 110 90 11 13 29 21 7 0 0 0 0 0 0
44 24 54 84 57 75 75 129 63 17 42 17 4 0 2 38 212 391 466 528 760 1191 1352 1435 1333 1052 947 1065 1082 541 543 334 375 297 342 190 120 52 75 9 0 0 2 0 0 0 0 0 0

GFSSGP_con_mucape_078.txt.gz
CAPE
0 0 0 0 0 0 0 0 8 2 4 13 27 5 4 264 565 654 304 302 251 1094 1471 1697 1490 1500 1433 1368 1321 1302 1308 1222 984 760 569 460 442 437 488 646 875 983 976 516 408 242 102 37 22
0 0 0 0 0 0 0 0 6 8 226 240 90 77 29 239 130 75 47 2 5 1053 1598 1814 1467 1445 1500 1361 1345 1375 1360 1112 804 605 492 403 424 455 560 761 959 1080 1019 452 421 218 117 61 149
0 0 0 0 0 0 0 0 0 1 250 247 39 42 40 387 479 506 665 338 222 834 1460 1768 1319 1248 1363 1371 1350 1333 1142 804 579 490 498 444 520 591 708 721 772 1079 1133 579 465 258 197 192 138
0 0 0 0 0 0 0 0 0 43 195 71 223 124 1036 965 302 12 5 1227 983 841 1439 1313 1137 1195 1159 1176 1287 1130 801 494 424 443 479 522 667 692 919 1028 918 1021 1166 687 474 263 185 153 31
0 0 0 3 1 2 30 25 19 0 126 62 0 83 607 830 601 730 1344 1611 1027 782 1170 1041 973 1026 1099 1330 1154 827 563 471 489 441 415 593 654 803 879 788 1019 1105 1191 804 347 175 124 102 39
0 0 0 16 23 8 33 38 312 162 168 7 0 134 138 353 100 253 1633 1611 1303 833 1067 956 899 849 976 1016 817 523 472 498 436 416 484 494 440 452 563 647 897 1055 878 612 333 210 168 104 44
0 0 2 10 13 42 1 64 282 257 126 14 3 174 386 564 345 1214 1498 994 488 321 697 888 691 650 564 514 361 265 348 376 391 364 291 243 183 214 310 438 667 707 530 365 241 180 117 50 0
0 0 0 0 13 9 18 114 302 581 464 260 150 215 0 502 1423 1019 599 521 203 22 0 309 362 421 339 340 157 196 224 228 197 159 132 123 126 172 226 266 380 424 366 248 105 66 22 0 0
0 0 0 6 12 0 0 9 17 505 434 231 362 731 856 1566 1309 756 370 370 226 7 36 67 32 89 64 70 137 153 160 124 94 100 79 24 22 80 136 189 256 311 262 156 29 2 0 0 0
0 0 0 3 0 0 0 0 15 243 127 43 0 561 1396 1394 1023 712 853 546 544 212 27 56 15 61 32 27 51 65 93 65 53 29 37 16 121 143 158 127 152 183 124 47 13 0 0 0 0
0 0 1 0 0 0 0 99 165 182 235 188 52 649 1179 1233 924 696 703 486 372 146 108 113 69 43 60 55 2 24 10 18 19 29 91 83 129 164 99 28 12 1 2 0 0 0 0 0 0
1 0 0 1 6 0 0 58 157 235 640 509 817 1268 1119 728 621 786 659 464 316 263 180 158 144 116 71 37 0 1 6 25 3 86 147 164 190 188 123 93 10 1 0 0 0 0 0 0 0
3 0 0 2 7 0 60 16 159 373 577 708 809 868 797 581 395 499 322 273 237 210 153 146 80 92 56 3 3 0 58 55 79 140 259 270 250 207 195 155 49 3 0 0 2 0 2 0 0
0 0 1 1 28 34 75 108 184 1 71 558 639 600 284 186 222 115 107 103 49 156 171 33 88 51 23 6 5 5 26 109 185 251 291 339 275 335 355 267 158 0 0 10 0 0 0 0 0
1 0 16 20 16 23 17 55 0 0 79 243 410 317 220 21 8 28 55 25 59 42 164 46 23 41 13 5 0 4 82 143 149 252 266 298 397 372 366 176 75 0 31 4 0 0 0 0 0
0 0 26 33 1 28 44 5 0 0 207 406 247 207 222 58 4 6 12 11 26 28 22 20 25 9 4 4 3 0 0 120 192 198 273 206 282 347 300 195 91 50 14 0 0 0 0 0 0
0 6 23 29 52 19 25 31 0 13 136 347 112 166 133 13 14 3 0 7 2 4 9 6 0 0 0 0 0 3 14 159 135 210 207 227 364 417 346 244 128 27 0 0 0 0 0 0 0
4 27 54 19 39 33 32 18 135 232 125 323 121 57 8 0 11 1 1 0 0 1 5 0 0 0 0 0 0 16 134 126 177 229 295 337 419 448 219 156 41 0 0 0 0 0 0 0 0
5 7 4 43 12 8 20 0 0 241 189 247 119 46 3 0 19 5 10 6 0 0 0 0 0 0 0 15 9 75 73 199 295 222 215 361 398 403 332 96 34 0 0 0 0 0 0 0 0
0 0 0 22 28 1 0 0 20 160 215 305 279 176 92 82 40 47 79 58 18 0 0 1 9 2 0 51 98 24 85 166 255 259 359 363 380 350 247 68 16 0 0 0 0 0 0 0 0
0 0 9 29 24 34 10 0 3 5 86 428 233 316 167 82 116 48 40 81 50 22 15 13 36 52 134 161 231 29 148 226 321 328 368 318 214 143 103 120 19 0 0 0 0 0 0 0 0
4 2 18 0 10 26 3 2 2 11 67 281 560 257 293 120 155 138 95 90 22 18 20 14 23 223 366 368 63 6 42 172 264 319 303 243 141 34 76 53 8 0 0 0 0 0 0 0 0
0 8 0 0 7 21 17 48 6 29 37 166 430 592 306 311 216 120 169 259 182 31 12 31 104 292 394 513 497 110 326 260 343 367 312 179 51 20 62 3 26 15 0 2 0 0 0 0 0
0 2 1 0 8 62 67 55 14 5 33 62 184 444 513 360 267 202 212 232 217 251 160 167 359 479 505 645 678 525 427 340 347 345 281 178 65 39 48 43 0 3 6 4 1 0 0 0 8
0 0 37 45 91 168 27 61 156 24 61 11 19 146 528 543 431 228 227 235 291 295 347 469 432 374 622 679 778 633 605 415 410 303 196 120 39 59 50 23 5 53 6 2 1 0 0 2 2
0 0 94 33 0 81 59 75 18 31 1 0 2 1 239 477 689 525 314 261 281 362 524 476 480 434 463 946 949 797 966 647 554 357 238 52 7 66 82 75 47 34 4 1 6 4 0 0 1
12 7 17 88 24 161 109 10 176 50 0 0 0 1 46 140 461 805 679 453 306 354 598 731 776 700 712 1095 1111 970 864 991 662 352 219 113 47 174 99 71 95 36 2 3 13 3 12 13 0
1 6 75 69 52 27 6 67 24 8 2 2 4 29 195 401 362 346 755 896 469 458 575 821 863 838 920 910 999 1050 735 934 711 468 340 224 198 180 110 74 37 40 9 13 5 6 10 0 0
0 4 71 65 54 92 106 87 1 3 1 12 17 30 4 24 348 366 438 616 1176 750 723 1000 1095 1120 1051 949 1014 1014 981 791 628 561 403 323 267 177 111 34 9 8 0 1 1 0 4 0 0
6 9 37 91 35 107 134 118 49 9 10 16 9 7 3 18 75 231 395 549 816 1335 982 1047 1135 1132 1027 938 1064 1034 868 645 557 588 455 587 229 136 45 1 0 3 0 0 0 0 1 7 0

GFSSGP_con_mucape_081.txt.gz
CAPE
0 0 0 0 0 0 0 0 0 0 127 99 61 123 304 597 695 538 301 242 498 1029 667 1648 1641 1626 1532 1457 1443 1439 1381 1314 1134 903 758 719 750 883 1027 1066 924 897 743 86 0 0 0 0 10
0 0 0 0 0 0 0 0 0 73 163 197 168 108 277 496 279 225 208 201 373 617 457 988 1540 1593 1651 1506 1503 1444 1417 1218 963 796 737 676 781 948 1180 1074 898 819 700 84 0 0 0 0 58
0 0 0 0 0 0 0 5 26 89 5 14 84 117 699 649 574 749 303 220 114 289 206 344 1109 1208 1576 1537 1440 1311 1156 920 776 645 684 692 857 1070 1168 1104 895 744 679 89 0 0 0 10 6
0 0 0 0 0 0 9 201 131 160 48 6 0 46 92 480 479 284 124 123 222 0 0 170 739 901 1474 1540 1420 1193 924 742 621 599 755 827 879 954 1014 1072 997 948 750 137 0 0 0 0 0
0 0 0 0 0 0 45 36 161 90 43 0 0 0 39 174 237 219 853 653 382 63 36 129 700 833 1392 1555 1290 929 758 681 636 701 775 888 1096 1102 977 1005 1047 907 654 176 10 0 21 0 0
0 0 0 0 0 6 29 122 200 190 2 76 1 0 12 52 75 879 1390 1098 770 304 354 358 418 779 1094 1104 792 638 629 597 585 702 810 1100 1028 974 1049 1021 997 799 518 247 142 83 44 0 0
0 0 0 0 0 6 31 167 165 194 214 79 3 12 35 61 547 765 971 904 389 146 34 144 572 518 631 536 416 427 450 446 496 449 467 510 519 687 995 1000 850 603 308 198 142 83 4 0 0
0 0 0 0 0 6 29 5 85 303 238 43 19 78 34 89 762 535 588 509 175 0 92 3 58 335 436 285 309 327 296 277 192 102 69 164 194 519 753 657 569 345 246 196 128 27 2 0 0
0 0 0 0 0 0 6 18 56 334 177 113 92 6 17 716 509 469 347 300 133 6 0 0 13 149 258 228 255 191 127 24 11 7 5 27 43 172 452 392 308 288 216 171 96 20 0 0 0
0 0 0 0 1 0 0 87 25 136 100 12 12 51 183 698 565 571 404 329 196 37 0 47 116 93 61 176 133 20 0 0 0 0 0 5 24 84 166 189 212 213 161 98 55 0 0 0 0
0 0 0 0 0 9 0 36 394 310 314 359 264 424 912 769 481 754 556 358 335 83 21 9 4 54 50 106 1 0 0 0 0 0 32 49 62 68 77 120 111 57 50 4 2 0 0 0 0
0 0 0 0 0 19 6 29 290 440 564 579 847 866 695 544 605 340 190 248 271 69 65 45 52 4 15 27 0 0 0 0 0 0 60 71 58 42 15 8 9 8 4 0 0 0 0 0 0
0 1 0 0 14 32 23 42 92 19 159 552 692 534 585 294 199 143 205 368 128 151 81 71 62 18 16 37 32 0 0 1 1 27 116 101 76 76 66 9 8 2 3 2 0 0 0 0 0
0 0 0 0 0 1 31 32 66 6 26 571 731 323 243 180 159 91 152 126 87 81 13 12 16 29 4 23 6 2 0 4 36 86 122 126 143 140 125 32 20 5 13 2 4 0 0 0 0
0 0 0 0 1 0 0 10 16 0 0 387 465 237 105 84 74 114 58 41 6 18 79 4 20 17 4 25 1 1 46 84 78 87 96 127 228 210 212 88 78 52 17 17 24 0 0 0 0
0 0 0 0 8 14 0 0 18 4 107 364 328 290 29 6 45 60 61 49 53 25 13 9 18 36 5 6 5 2 0 3 28 37 43 96 256 204 232 161 60 31 2 29 0 0 0 0 0
0 0 0 0 0 5 0 0 0 3 95 147 171 197 19 35 22 19 59 17 22 22 20 18 27 18 7 6 4 4 2 0 7 17 101 33 150 226 175 114 61 67 24 1 0 0 0 0 0
0 0 7 4 0 1 13 2 3 9 92 253 173 28 2 0 17 8 4 0 19 53 23 11 0 2 3 1 2 4 1 1 21 26 92 33 32 106 162 90 89 43 11 0 0 0 0 0 0
0 0 0 0 4 2 10 8 16 50 105 147 115 28 1 0 44 29 32 9 4 9 0 0 0 0 0 0 0 0 0 23 7 32 64 64 80 99 110 171 61 26 0 0 0 0 0 0 0
0 0 0 0 0 1 2 0 0 29 101 163 79 45 26 2 2 1 0 0 0 0 0 0 0 0 0 0 0 0 2 15 35 32 26 33 88 145 133 89 63 17 0 0 0 0 0 0 0
0 0 0 0 1 0 0 5 3 12 38 117 203 83 64 9 0 0 0 2 0 0 0 0 0 0 0 0 0 0 3 27 15 5 10 99 176 216 181 101 49 2 0 0 0 0 0 0 0
0 0 0 3 2 0 0 0 0 0 107 103 208 159 132 95 0 0 0 0 0 0 0 0 0 0 0 0 0 0 0 0 3 40 69 157 219 168 126 82 56 16 0 8 0 0 0 0 0
0 0 7 0 0 0 0 0 4 4 0 171 167 211 136 156 73 2 1 0 0 0 0 0 0 0 0 0 0 0 0 0 93 149 151 240 189 172 99 42 22 20 3 0 0 0 0 0 0
0 0 1 1 0 0 0 1 2 0 0 36 196 243 193 166 128 65 0 0 0 0 0 0 0 0 6 8 38 82 27 28 75 173 170 217 218 137 34 30 22 21 3 0 1 0 0 3 0
0 0 0 0 0 3 16 8 0 2 0 0 223 279 265 237 210 137 71 0 1 0 0 0 0 0 59 118 137 159 39 27 144 163 234 266 215 155 63 47 66 67 33 5 3 13 1 6 3
0 0 0 0 0 2 19 21 12 13 2 11 22 268 272 234 227 244 168 102 37 48 2 0 0 0 95 209 242 248 205 151 111 225 264 287 229 204 101 42 89 74 65 90 47 39 0 11 24
0 0 0 18 12 1 15 3 0 9 0 0 0 0 210 252 230 262 301 320 277 164 98 55 26 3 133 365 388 358 280 193 370 358 307 282 277 199 117 51 91 92 81 33 18 0 0 18 13
0 0 16 23 22 0 18 17 28 0 4 0 0 22 58 219 257 270 281 347 351 323 274 227 129 209 197 163 439 529 526 512 383 373 381 414 219 176 111 90 76 110 53 51 4 2 0 0 2
0 1 6 10 27 13 0 2 8 0 0 0 0 0 0 157 188 123 199 304 408 419 332 318 242 243 313 230 634 762 690 556 757 751 399 351 272 161 129 127 86 42 13 1 1 0 0 0 0
0 0 0 2 22 41 31 11 1 16 0 0 0 0 0 0 112 55 98 139 335 463 433 394 364 325 425 436 665 1010 981 804 583 740 742 545 351 207 171 140 71 18 11 23 4 8 0 0 0

GFSSGP_con_mucape_084.txt.gz
CAPE
0 0 0 0 0 0 0 0 0 9 64 121 74 203 320 381 688 512 770 726 1027 1568 1937 1852 1663 1613 1664 1713 1593 1555 1506 1334 1214 1118 1157 1223 1213 1237 1121 992 669 338 97 42 0 0 0 0 13
0 0 0 0 0 0 0 0 3 6 7 15 37 245 551 449 599 392 311 459 1291 1099 1433 1619 1658 1716 1701 1683 1590 1529 1452 1237 1080 1050 1105 1215 1372 1322 1287 1087 596 360 178 154 0 0 0 0 18
0 0 0 0 0 0 0 0 11 26 22 4 4 119 540 470 760 870 559 322 1332 1071 1080 1257 1323 1475 1403 1704 1599 1414 1190 996 856 855 1076 1235 1453 1382 1331 973 565 389 191 41 0 0 0 4 12
0 0 0 0 0 0 0 0 32 87 51 42 94 9 7 98 589 613 765 332 412 600 808 521 1072 714 1134 1733 1596 1282 976 730 676 764 1035 1317 1446 1424 1172 940 654 456 222 45 0 0 0 15 0
0 0 0 0 0 0 0 0 47 103 121 217 98 19 22 89 113 813 779 768 826 345 265 412 695 1113 1361 1589 1477 1006 717 624 658 779 992 1318 1553 1459 1227 972 748 396 209 31 0 0 7 8 0
0 0 0 0 0 0 0 33 147 91 182 168 31 20 118 138 914 639 952 625 763 372 315 161 146 534 829 1261 993 633 525 563 615 737 930 1180 1339 1392 1285 1061 730 403 200 95 54 1 0 0 0
0 0 0 0 0 0 2 27 166 86 169 62 43 17 3 533 570 537 611 604 592 301 198 174 16 195 290 723 480 339 412 492 522 662 860 923 956 1143 1125 929 699 337 106 82 66 4 0 0 0
0 0 0 0 0 0 0 7 49 180 154 49 36 93 0 40 470 200 411 313 251 212 144 31 11 1 195 337 233 157 384 418 549 557 548 718 956 995 799 606 382 154 121 138 64 8 2 0 0
0 0 0 0 0 0 0 8 189 153 62 39 60 7 0 459 440 432 230 110 54 24 0 0 27 63 44 130 133 181 187 195 215 237 366 584 720 748 468 233 187 166 154 109 60 18 0 0 0
0 0 0 0 0 0 2 14 50 139 121 188 61 69 2 176 284 415 250 184 128 73 22 69 47 58 41 108 33 114 110 0 19 74 129 396 552 487 350 151 172 176 112 70 55 10 0 0 0
0 0 0 0 0 0 0 42 283 251 292 448 420 281 125 629 360 214 218 220 116 84 41 228 46 37 42 45 78 106 4 0 0 0 0 234 425 318 150 132 74 46 27 4 2 0 0 0 0
0 0 0 0 0 3 0 24 156 295 460 686 715 616 694 638 431 424 200 89 166 40 25 42 18 19 39 50 78 22 0 0 0 0 0 1 56 117 119 99 65 0 0 5 0 0 0 0 0
0 0 0 0 0 0 0 0 19 282 537 669 466 481 400 541 413 360 296 105 219 126 21 12 10 4 0 0 36 0 0 0 4 0 0 0 28 79 112 86 13 0 6 1 10 0 0 0 0
0 0 0 0 0 0 0 0 12 0 267 572 333 165 178 179 69 95 74 28 79 94 26 28 23 6 4 5 21 2 0 0 0 1 0 0 2 8 8 2 0 7 11 11 14 0 0 0 0
0 0 0 0 0 0 0 0 0 0 69 615 307 103 15 1 41 92 102 85 92 64 15 4 9 36 7 18 13 0 0 0 13 14 14 18 23 29 5 0 7 14 7 19 8 0 0 0 0
0 0 0 0 0 0 0 0 0 0 24 372 262 137 4 13 43 75 93 86 153 31 27 15 17 5 22 4 7 3 0 18 36 69 70 64 67 85 13 10 23 5 5 17 25 1 0 0 0
0 0 0 0 0 1 0 0 0 0 13 196 204 122 12 0 2 3 45 41 52 36 22 63 32 23 8 18 4 5 4 5 4 23 47 78 96 138 72 43 41 50 11 8 13 0 0 0 0
0 0 0 0 0 3 0 0 0 0 0 71 99 124 18 1 0 0 0 21 12 49 30 23 3 22 38 34 28 6 3 8 3 7 21 67 53 123 138 92 54 46 36 14 0 0 0 0 0
0 0 0 0 0 7 1 0 0 1 3 41 112 56 9 1 21 16 2 4 14 9 18 17 27 11 11 12 2 3 3 0 1 1 3 45 23 75 144 107 69 51 43 9 0 0 0 0 0
0 0 0 0 0 0 0 0 2 0 7 24 52 31 18 0 46 6 0 0 0 0 0 0 0 0 2 3 11 2 0 0 0 1 6 2 0 17 49 89 70 46 27 0 0 0 0 0 0
0 0 0 0 0 0 0 0 0 0 24 54 87 62 26 0 0 0 0 0 0 0 0 0 0 0 0 0 0 0 0 0 5 10 0 0 0 9 48 65 118 36 10 14 1 0 0 0 0
0 0 0 0 0 0 0 0 0 0 35 61 93 80 90 28 0 0 0 0 0 0 0 0 0 0 0 0 0 0 0 0 0 0 0 0 23 43 50 59 81 66 23 50 6 4 0 0 0
0 0 0 0 0 0 0 0 0 0 7 86 132 97 123 77 10 0 0 0 0 0 0 0 0 0 0 0 0 0 0 0 0 0 0 0 1 32 55 70 108 76 45 45 6 20 1 0 0
0 0 0 0 0 0 0 0 0 0 0 8 90 118 133 151 66 41 0 0 0 0 0 0 0 0 0 0 0 0 0 0 0 5 2 14 4 26 73 104 123 113 81 50 48 12 9 3 4
0 0 0 0 0 0 0 0 13 0 0 1 96 125 158 183 148 111 14 0 0 0 0 0 0 0 0 0 0 0 0 0 0 13 22 9 13 80 127 126 111 118 75 64 76 95 63 46 29
0 0 0 0 0 0 0 0 0 0 0 0 45 134 167 228 215 158 116 39 6 0 0 0 0 0 0 16 23 0 0 0 26 26 17 19 10 75 145 110 67 89 86 75 90 80 24 19 0
0 0 0 0 1 0 0 0 0 0 0 0 0 12 89 246 277 209 221 176 131 57 11 0 0 0 0 0 11 50 48 39 89 157 39 57 51 60 120 163 90 68 100 132 136 128 28 5 1
0 0 0 5 0 0 0 0 0 0 0 0 0 77 107 181 262 258 253 244 258 213 180 46 12 0 0 0 34 77 164 153 139 206 116 79 110 149 128 147 128 104 116 159 135 64 15 4 2
0 0 15 19 0 0 0 0 0 0 0 0 0 0 26 104 138 198 244 240 233 212 215 185 121 66 18 4 12 106 177 211 290 220 175 127 155 167 176 161 129 67 71 107 47 28 24 9 9
0 0 0 0 0 0 0 0 0 0 0 0 0 0 25 62 92 141 157 146 167 221 221 254 205 174 143 98 138 119 245 351 370 397 217 175 278 273 181 140 79 40 45 51 46 18 29 10 7

GFSSGP_con_mucape_087.txt.gz
CAPE
0 0 0 0 0 0 0 0 0 0 7 17 17 103 166 301 502 279 955 958 1254 1851 1665 1721 1672 1851 1852 1766 1526 1617 1738 1798 1635 1422 1370 1306 1249 1015 681 402 146 315 309 11 22 26 8 5 15
0 0 0 0 0 0 0 0 0 0 1 0 0 48 439 410 435 469 502 443 1391 1829 1775 1646 1641 1840 1878 1693 1565 1593 1739 1700 1619 1515 1413 1380 1246 1025 691 336 204 434 471 151 56 75 119 72 10
0 0 0 0 0 0 0 0 0 0 7 19 59 72 322 285 758 923 617 740 1411 2142 1682 1758 1501 1669 1784 1689 1662 1545 1496 1426 1485 1399 1467 1402 1352 1112 756 368 297 545 581 183 24 1 0 0 0
0 0 0 0 0 0 0 0 0 0 12 51 64 15 0 69 657 614 464 323 1377 1334 1376 1531 1356 990 947 1073 1321 1570 1313 1222 1283 1302 1497 1497 1493 1191 768 423 327 552 431 12 0 0 0 0 0
0 0 0 0 0 0 0 0 0 1 31 152 78 45 98 196 227 820 450 282 1121 1026 994 1249 848 877 875 1060 1233 1115 1225 1098 1166 1363 1426 1481 1401 1045 674 432 304 269 199 34 0 0 22 44 3
0 0 0 0 0 0 0 0 6 21 45 188 110 84 169 240 718 742 914 547 396 467 508 917 735 775 593 615 993 899 732 912 994 1198 1284 1346 1121 966 734 475 301 169 87 0 0 0 5 15 7
0 0 0 0 0 0 0 0 9 55 132 164 93 60 106 684 582 511 567 447 510 453 216 416 373 637 630 623 558 443 451 721 862 1157 1263 1034 928 806 684 470 275 92 4 0 0 0 0 9 12
0 0 0 0 0 0 0 0 4 61 216 84 80 180 18 76 478 315 510 334 388 197 164 72 108 380 345 394 348 242 220 669 774 1065 1137 1063 959 670 506 253 69 0 0 0 0 0 14 31 11
0 0 0 0 0 0 0 0 25 141 81 38 116 79 122 662 705 352 339 313 318 256 104 84 52 61 166 259 169 208 243 619 682 854 892 899 677 457 112 8 37 35 0 0 0 0 0 0 1
0 0 0 0 0 0 0 0 25 42 40 112 134 170 186 425 360 338 274 176 116 76 85 98 70 54 28 178 135 92 113 255 374 497 752 629 545 202 0 3 65 51 0 0 0 0 0 0 0
0 0 0 0 0 0 0 7 19 14 97 289 327 472 227 623 449 422 249 180 192 80 60 139 65 11 9 9 69 26 86 156 210 380 373 904 503 84 0 0 0 0 0 0 0 0 0 0 0
0 0 0 0 0 0 0 7 22 21 82 621 777 460 601 633 776 489 352 223 91 102 63 51 7 21 3 98 75 16 48 115 166 153 234 547 265 39 0 0 0 0 0 0 0 0 0 0 0
0 0 0 0 0 0 0 1 0 86 523 574 593 555 519 401 135 63 129 94 175 68 36 26 0 1 15 11 3 8 19 134 115 134 201 220 213 53 25 7 0 0 0 0 0 0 0 0 0
0 0 0 0 0 0 0 0 0 2 413 433 284 189 162 226 67 26 83 60 37 65 12 18 1 4 2 42 32 29 10 45 39 118 236 169 150 77 74 34 0 0 0 2 8 4 0 0 0
0 0 0 0 0 0 0 0 0 0 367 375 153 59 47 182 23 13 58 73 60 36 14 44 7 9 24 0 4 13 0 6 19 20 98 109 62 93 66 41 0 0 3 6 22 9 0 0 0
0 0 0 0 0 0 0 0 0 0 399 406 148 46 35 91 9 9 27 41 61 10 4 2 19 17 4 21 5 5 0 0 20 35 29 25 72 81 51 11 0 6 12 10 25 29 0 0 0
0 0 0 0 0 0 0 0 0 0 68 290 163 71 40 7 3 10 29 11 44 7 27 24 31 35 43 7 8 8 0 18 64 53 22 39 32 16 5 1 0 12 5 12 27 28 0 0 0
0 0 0 0 0 0 0 0 0 0 0 101 145 70 29 7 1 0 5 7 26 8 5 21 37 58 61 9 9 2 7 0 40 58 48 68 77 56 2 3 6 9 0 10 30 22 0 0 0
0 0 0 0 0 0 0 0 0 0 0 0 55 55 36 8 0 4 16 8 15 5 25 4 10 15 17 24 0 2 28 0 0 49 64 41 74 136 110 21 34 48 30 33 18 2 0 0 0
0 0 0 0 0 0 0 0 0 0 0 0 7 31 71 10 0 0 1 5 14 7 5 0 8 11 24 5 30 36 22 6 11 5 2 36 42 68 93 70 63 52 59 65 52 8 0 0 0
0 0 0 0 0 0 0 0 0 0 0 0 0 13 56 37 0 3 1 4 0 1 3 0 0 9 6 13 4 4 10 4 1 8 7 2 32 13 27 87 62 75 67 71 61 22 2 2 0
0 0 0 0 0 0 0 0 0 0 0 0 0 10 27 28 0 0 1 1 2 0 0 0 0 0 0 5 4 1 1 0 0 1 6 3 0 5 2 7 44 70 84 65 69 26 5 4 0
0 0 0 0 0 0 0 0 0 0 0 0 0 0 8 23 34 0 0 0 0 0 0 0 0 0 0 0 0 0 0 0 0 0 0 0 0 0 0 2 11 49 89 120 76 8 22 19 37
0 0 0 0 0 0 0 0 0 0 0 0 0 4 22 32 60 3 0 0 0 0 0 0 0 0 0 0 0 0 0 0 0 0 0 0 0 0 0 0 16 46 86 119 101 31 35 32 42
0 0 0 0 0 0 0 0 0 0 0 0 0 0 11 46 46 64 2 0 0 0 0 0 0 0 0 0 0 0 0 0 0 0 0 0 0 0 0 2 22 42 87 118 105 49 41 45 59
0 0 0 0 0 0 0 0 0 0 0 0 1 1 16 60 72 92 76 12 14 0 0 0 0 0 0 0 0 0 0 0 0 0 0 0 0 0 4 1 7 32 106 147 87 28 43 66 16
0 0 0 0 0 0 0 0 0 0 0 0 0 1 2 70 88 95 176 122 140 88 14 0 0 0 0 0 0 0 0 0 0 0 0 0 0 1 1 2 1 26 154 161 133 76 72 72 64
0 0 0 0 0 0 0 0 0 0 0 0 0 3 10 27 49 87 122 191 164 177 146 72 23 0 0 0 0 0 0 0 0 0 0 0 12 23 8 20 18 31 120 87 104 89 126 116 73
0 0 0 0 0 0 0 0 0 0 0 0 0 0 0 6 17 46 112 207 191 178 174 168 115 16 3 3 0 0 5 10 14 0 6 29 54 120 153 50 60 80 53 46 79 61 82 108 27
0 0 0 0 0 0 0 0 0 0 0 0 0 0 0 27 35 45 84 152 198 149 118 140 168 127 80 3 8 1 0 0 0 46 129 170 177 158 173 86 56 25 37 114 73 88 108 137 40

GFSSGP_con_mucape_090.txt.gz
CAPE
0 0 0 0 0 0 0 0 0 0 0 0 0 0 50 166 262 115 745 1098 1036 1809 1611 1661 1796 1927 1927 1892 1873 1831 1904 1937 1918 1837 1655 1563 1299 1072 755 462 354 299 276 6 8 11 6 6 7
0 0 0 0 0 0 0 0 0 0 0 0 0 0 142 312 324 228 476 433 1446 1847 1731 1662 1711 1915 1999 1963 1919 1895 1907 1878 1836 1817 1742 1526 1291 935 590 582 407 474 476 234 46 17 5 2 5
0 0 0 0 0 0 0 0 0 0 0 0 5 4 289 171 349 576 385 333 1569 1947 1748 1790 1781 1867 1953 1952 2016 1904 1747 1640 1643 1673 1685 1468 1125 782 728 562 448 628 695 291 137 53 5 26 4
0 0 0 0 0 0 0 0 0 0 0 0 50 4 0 1 438 537 275 490 1338 1666 1794 1664 1753 1806 1849 1936 1941 1797 1652 1499 1482 1488 1564 1413 1115 805 785 575 574 664 685 506 53 1 15 1 0
0 0 0 0 0 0 0 0 0 0 0 0 59 16 9 0 308 307 625 277 1183 1196 1323 1518 1531 1774 1837 1775 1637 1495 1532 1421 1419 1466 1452 1263 1088 794 749 652 559 455 325 102 0 0 94 0 0
0 0 0 0 0 0 0 0 0 0 0 0 66 16 1 129 651 425 431 505 390 939 684 732 1167 982 1582 1474 1334 1204 1280 1259 1318 1385 1391 1235 929 673 619 522 329 191 34 15 130 127 19 0 0
0 0 0 0 0 0 0 0 0 0 4 6 81 2 0 497 391 379 308 426 276 214 344 675 697 895 914 920 955 852 867 909 1280 1328 1213 1026 678 517 444 347 245 16 11 51 119 65 0 0 0
0 0 0 0 0 0 0 0 0 0 0 49 24 16 0 45 277 296 319 334 202 173 182 215 627 677 622 659 653 435 362 402 649 892 1095 842 578 394 298 161 20 0 0 13 69 22 0 0 0
0 0 0 0 0 0 0 0 0 0 25 22 25 20 44 393 257 396 425 334 210 342 232 84 252 407 500 351 424 308 226 228 333 748 916 887 448 223 52 0 0 0 0 0 52 57 0 0 0
0 0 0 0 0 0 0 0 0 0 23 24 13 30 458 341 127 203 307 190 238 224 119 105 49 84 165 212 112 130 103 19 106 541 668 523 265 79 0 0 0 0 0 1 71 21 0 0 0
0 0 0 0 0 0 0 0 0 0 7 17 95 88 274 185 309 455 555 316 97 42 36 68 108 77 38 92 164 62 39 2 98 384 396 316 217 36 0 0 0 0 0 0 8 0 0 0 0
0 0 0 0 0 0 0 0 0 0 12 143 274 726 161 515 435 239 178 106 58 62 3 26 35 54 29 18 108 58 1 5 23 126 259 364 162 24 0 0 0 0 0 0 0 2 0 0 0
0 0 0 0 0 0 0 0 0 0 75 558 629 352 626 472 281 212 101 49 80 168 72 35 1 3 2 11 76 6 5 7 6 110 160 262 136 10 0 0 0 0 0 0 0 6 2 0 0
0 0 0 0 0 0 0 0 0 0 325 398 426 419 328 144 65 22 28 43 70 53 33 17 3 3 12 10 30 9 6 0 14 39 136 274 130 37 4 0 0 1 0 0 1 9 5 0 0
0 0 0 0 0 0 0 0 0 0 398 345 201 171 281 8 17 14 9 76 49 38 34 18 15 11 8 34 31 4 7 0 21 87 149 212 158 46 7 0 0 0 8 10 21 31 7 1 0
0 0 0 0 0 0 0 0 0 0 207 312 254 339 284 0 6 12 30 12 88 33 134 50 34 18 2 30 36 43 28 14 30 110 152 189 189 119 23 0 0 0 12 19 40 27 19 0 0
0 0 0 0 0 0 0 0 0 0 113 207 266 223 86 0 6 1 5 1 9 15 49 24 11 11 3 25 21 19 0 7 58 96 120 137 157 159 101 29 2 8 6 36 45 48 20 4 0
0 0 0 0 0 0 0 0 0 0 0 75 225 105 20 0 4 29 7 3 19 1 32 28 27 40 10 2 15 31 8 56 96 100 128 126 150 168 125 58 5 9 18 34 30 35 36 17 0
0 0 0 0 0 0 0 0 0 0 0 0 11 99 0 0 2 2 0 2 33 12 9 9 40 46 17 10 17 12 0 40 75 73 51 27 58 85 79 35 14 13 23 28 22 13 30 0 0
0 0 0 0 0 0 0 0 0 0 0 0 0 3 0 0 2 7 0 0 1 3 3 0 59 14 18 16 5 7 2 83 66 20 35 42 45 65 28 31 20 23 22 15 8 43 52 7 0
0 0 0 0 0 0 0 0 0 0 0 0 0 0 0 0 6 1 7 0 1 0 1 4 6 1 1 0 5 4 4 49 65 81 56 29 72 115 130 98 40 28 59 29 21 46 53 41 0
0 0 0 0 0 0 0 0 0 0 0 0 0 0 0 2 7 0 1 3 0 0 4 0 14 13 16 11 0 10 18 8 5 0 55 85 67 50 107 103 98 86 51 45 37 47 45 53 11
0 0 0 0 0 0 0 0 0 0 0 0 0 0 0 2 31 1 0 2 0 1 2 0 2 2 11 0 0 0 0 11 9 0 3 2 9 38 30 32 49 43 46 61 63 67 55 42 40
0 0 0 0 0 0 0 0 0 0 0 0 0 0 0 1 19 17 0 0 0 0 0 0 0 0 0 0 0 0 0 0 0 0 0 0 0 0 0 0 0 2 20 43 77 59 55 73 44
0 0 0 0 0 0 0 0 0 0 0 0 0 0 0 1 21 36 7 0 0 0 0 0 0 0 0 0 0 0 0 0 0 0 0 0 0 0 0 0 0 0 20 42 50 61 71 74 64
0 0 0 0 0 0 0 0 0 0 0 0 0 0 0 12 15 52 50 24 0 0 2 0 0 0 0 0 0 0 0 0 0 0 0 0 0 0 0 0 0 0 1 9 16 31 69 86 80
0 0 0 0 0 0 0 0 0 0 0 0 0 0 0 4 16 47 68 91 71 33 11 0 0 0 0 0 0 0 0 0 0 0 0 0 0 0 0 0 0 0 0 5 11 11 46 90 85
0 0 0 0 0 0 0 0 0 0 0 0 0 0 0 0 2 31 75 65 101 105 72 44 4 0 0 0 0 0 0 0 0 0 0 0 1 1 0 0 5 3 6 9 23 39 83 99 90
0 0 0 0 0 0 0 0 0 0 0 0 0 0 0 0 0 16 47 73 77 104 150 125 106 24 0 0 0 0 0 0 0 0 0 0 0 0 0 0 5 11 51 80 58 60 63 92 77
0 0 0 0 0 0 0 0 0 0 0 0 0 0 0 0 0 0 0 26 57 68 118 110 82 111 118 14 0 0 0 0 0 0 0 0 0 0 7 23 32 59 53 116 78 56 42 0 0

GFSSGP_con_mucape_093.txt.gz
CAPE
0 0 0 0 0 0 0 0 0 0 0 0 0 0 9 44 136 37 341 867 1043 1442 1360 1653 1809 1932 1883 2058 2208 2121 2189 2168 2042 1889 1761 1650 1565 1468 1306 1014 846 683 507 33 15 15 14 13 10
0 0 0 0 0 0 0 0 0 0 0 0 0 0 16 173 167 248 312 780 1013 1835 1657 1426 1758 1866 2013 2033 2261 2226 2300 2199 2124 2000 1805 1662 1423 1190 986 714 578 522 450 51 10 5 8 7 6
0 0 0 0 0 0 0 0 0 0 0 0 0 0 128 183 287 552 309 283 1247 1995 1918 1601 1713 1766 2027 2036 2211 2236 2190 2066 2027 1918 1766 1547 1223 1042 794 606 474 574 598 92 13 3 2 2 3
0 0 0 0 0 0 0 0 0 0 0 0 0 0 0 0 479 499 291 418 1142 1691 1847 1411 1465 1711 1979 2109 2207 2203 2079 1916 1848 1718 1602 1382 1157 1121 900 711 720 786 687 528 49 0 0 0 0
0 0 0 0 0 0 0 0 0 0 0 0 0 0 3 4 156 539 616 210 876 1056 891 1006 1295 1380 1958 2158 2164 2018 1895 1753 1675 1531 1294 1052 1133 1038 852 796 751 660 727 542 187 169 0 0 1
0 0 0 0 0 0 0 0 0 0 0 0 0 0 7 230 472 544 384 582 199 491 376 264 868 1206 1110 2011 1888 1689 1616 1521 1450 1259 1027 917 976 816 832 808 752 584 399 214 347 36 0 0 0
0 0 0 0 0 0 0 0 0 0 0 0 0 0 4 178 504 252 200 230 208 181 159 137 140 295 537 689 1172 1436 1416 1338 1259 987 757 602 607 631 692 597 398 206 212 203 272 10 0 0 0
0 0 0 0 0 0 0 0 0 0 0 0 0 96 76 64 362 238 77 101 115 100 244 180 326 165 489 486 538 1187 1228 1209 1154 854 634 379 374 403 321 226 126 168 419 364 180 9 0 0 0
0 0 0 0 0 0 0 0 0 0 0 0 0 5 26 448 245 254 260 124 124 71 110 111 274 512 590 461 670 850 989 1089 1096 817 470 339 650 498 239 50 51 168 308 211 73 3 0 0 0
0 0 0 0 0 0 0 0 0 3 14 21 1 11 448 345 183 119 200 260 105 62 80 108 129 239 238 366 517 455 1043 1473 1250 1092 676 546 566 458 63 24 32 72 190 104 50 15 0 0 0
0 0 0 0 0 0 0 0 0 0 0 0 0 4 245 305 262 220 197 78 524 66 59 87 82 42 96 129 187 171 182 315 409 1202 360 325 292 93 77 16 0 48 152 102 37 2 0 0 0
0 0 0 0 0 0 0 0 0 0 0 151 2 418 355 116 214 290 303 180 55 58 29 29 40 77 124 81 167 56 13 68 420 377 437 114 94 75 40 0 0 0 75 114 23 0 0 0 0
0 0 0 0 0 0 0 0 0 0 0 264 554 231 108 478 612 379 293 80 42 51 24 23 24 42 56 57 86 71 33 20 94 122 236 82 79 30 0 0 0 0 0 1 10 0 0 0 0
0 0 0 0 0 0 0 0 0 0 0 379 483 352 444 365 204 128 23 38 40 64 20 39 16 52 12 13 29 98 9 11 53 92 33 108 130 10 0 0 0 0 0 3 6 0 0 0 0
0 0 0 0 0 0 0 0 0 0 171 332 242 143 99 36 1 13 9 8 21 30 17 36 1 16 1 0 3 22 34 13 31 65 94 83 80 4 0 0 0 0 0 10 8 0 6 1 0
0 0 0 0 0 0 0 0 0 0 64 232 234 127 70 5 0 0 7 2 11 7 11 21 0 9 0 7 26 3 13 18 18 38 71 106 73 5 11 0 15 2 1 11 11 14 15 17 8
0 0 0 0 0 0 0 0 0 0 8 44 207 146 49 5 0 0 9 2 2 4 0 9 0 4 10 12 33 17 31 21 11 85 72 95 71 15 0 7 0 0 2 11 20 33 34 55 27
0 0 0 0 0 0 0 0 0 0 0 1 143 144 14 4 0 0 4 9 5 14 14 8 7 11 6 32 11 2 25 24 16 28 59 83 81 45 18 10 12 2 2 14 27 41 57 71 52
0 0 0 0 0 0 0 0 0 0 0 0 23 172 7 6 0 0 1 0 20 14 10 6 29 12 4 25 24 4 26 12 12 71 49 60 77 89 63 35 44 21 21 37 31 43 51 74 75
0 0 0 0 0 0 0 0 0 0 0 0 0 12 67 0 0 0 11 0 0 12 0 1 0 4 6 9 9 25 6 2 1 56 48 68 72 97 118 92 60 59 28 30 31 23 48 56 44
0 0 0 0 0 0 0 0 0 0 0 0 0 0 21 0 0 2 9 1 1 0 0 0 0 12 3 4 17 14 6 2 1 49 21 47 45 64 68 87 90 74 53 23 20 31 31 46 43
0 0 0 0 0 0 0 0 0 0 0 0 0 0 0 0 0 6 3 1 4 0 0 1 0 19 2 1 24 9 19 0 1 5 19 1 32 53 65 39 63 74 67 30 16 26 17 44 36
0 0 0 0 0 0 0 0 0 0 0 0 0 0 0 0 0 13 0 2 0 0 0 0 0 4 0 5 7 3 4 21 11 12 22 11 21 40 50 89 74 128 83 48 49 65 33 46 50
0 0 0 0 0 0 0 0 0 0 0 0 0 0 0 0 0 18 3 4 0 0 0 0 0 3 1 9 6 0 0 6 11 13 1 0 1 0 41 35 79 114 101 44 65 68 62 57 57
0 0 0 0 0 0 0 0 0 0 0 0 0 0 0 0 0 10 33 0 0 0 0 0 0 0 1 2 3 0 0 1 0 0 2 0 0 1 0 49 74 83 73 51 57 47 56 58 59
0 0 0 0 0 0 0 0 0 0 0 0 0 0 0 0 3 4 47 28 0 0 0 0 0 0 0 0 0 0 0 0 0 1 3 0 0 7 0 6 34 38 41 35 12 2 5 17 34
0 0 0 0 0 0 0 0 0 0 0 0 0 0 0 0 9 10 52 72 53 9 1 0 0 0 0 0 0 0 0 0 0 0 0 0 0 0 0 0 0 1 1 5 8 17 4 1 2
0 0 0 0 0 0 0 0 0 0 0 0 0 0 0 0 0 7 31 76 108 105 55 3 0 1 0 0 0 0 0 0 0 0 0 0 0 0 0 0 0 0 0 0 0 1 0 0 5
0 0 0 0 0 0 0 0 0 0 0 0 0 0 0 0 0 2 26 56 83 109 127 121 38 0 0 0 0 0 0 0 0 0 0 0 0 0 0 0 0 0 2 0 0 0 11 67 59
0 0 0 0 0 0 0 0 0 0 0 0 0 0 0 0 0 1 31 49 78 90 91 91 120 103 57 11 0 0 0 0 0 0 0 0 0 0 0 0 0 3 2 3 0 0 20 45 68

GFSSGP_con_mucape_096.txt.gz
CAPE
0 0 0 0 0 0 0 0 0 0 0 0 0 0 0 0 0 6 526 1317 1537 1653 1447 1575 1880 2096 2276 2189 2018 2017 2091 2044 1960 1790 1802 1748 1873 1766 1614 1383 1038 937 672 57 18 13 15 16 11
0 0 0 0 0 0 0 0 0 0 0 0 0 0 0 0 134 234 406 917 1704 1821 1680 1608 1799 1959 2320 2219 2081 2218 2276 2151 1965 2029 1962 1918 1876 1748 1569 1195 822 714 534 15 12 8 12 9 7
0 0 0 0 0 0 0 0 0 0 0 0 0 0 0 0 280 464 841 601 1145 1445 1932 1636 1736 1838 2157 2320 2226 2287 2263 2037 1974 1951 1976 1909 1759 1586 1324 914 569 540 435 51 11 7 3 3 11
0 0 0 0 0 0 0 0 0 0 0 0 0 0 0 0 128 657 742 655 955 1417 1929 1466 1598 1745 2069 2398 2364 2331 2166 1942 1907 1798 1839 1778 1605 1360 989 654 535 593 470 51 4 1 2 6 4
0 0 0 0 0 0 0 0 0 0 0 0 0 0 0 5 29 670 865 727 1017 1360 1749 985 933 1376 1833 2477 2414 2227 2052 1913 1763 1725 1540 1468 1309 1080 748 592 587 472 354 128 4 1 1 1 0
0 0 0 0 0 0 0 0 0 0 0 0 0 0 0 252 396 472 842 882 923 951 1062 280 169 182 425 1946 2156 2046 1913 1732 1587 1473 1281 1297 1095 882 781 725 600 614 383 156 52 3 3 0 0
0 0 0 0 0 0 0 0 0 0 0 0 0 0 0 232 586 783 697 909 872 709 575 174 73 86 79 596 1721 1582 1720 1567 1393 1121 1017 983 854 742 825 660 850 626 377 346 57 1 0 0 0
0 0 0 0 0 0 0 0 0 0 0 18 6 0 0 295 731 782 735 824 459 476 626 258 36 29 132 295 282 294 867 1175 1141 818 845 672 642 638 648 521 396 336 409 231 63 10 0 0 0
0 0 0 0 0 0 0 0 0 0 0 12 26 13 143 432 431 497 640 954 724 415 318 426 21 0 39 382 255 58 192 714 813 682 743 624 1025 817 581 328 230 326 345 152 66 2 0 0 0
0 0 0 0 0 0 0 0 0 0 0 4 2 43 143 532 499 446 624 620 778 732 323 294 144 101 98 151 261 102 78 742 1199 811 1042 609 1000 724 348 175 254 374 290 106 68 29 0 0 0
0 0 0 0 0 0 0 0 0 0 0 0 0 0 72 603 632 634 569 626 585 456 474 115 335 277 586 646 878 450 215 514 761 698 520 601 909 757 330 75 162 386 162 128 23 0 0 0 0
0 0 0 0 0 0 0 0 0 0 0 0 0 12 303 575 622 478 584 549 518 455 256 277 146 402 486 386 470 302 202 638 458 706 462 1077 902 651 154 16 93 235 161 143 63 23 38 9 0
0 0 0 0 0 0 0 0 0 0 0 0 1 445 422 424 518 665 347 128 195 257 84 191 250 301 236 424 466 215 665 156 462 321 371 561 348 86 66 74 111 119 169 168 138 100 48 11 0
0 0 0 0 0 0 0 0 0 0 0 0 122 385 626 671 595 421 168 39 16 40 30 123 175 107 153 189 178 91 68 169 317 444 220 221 163 34 30 59 38 104 179 184 138 82 9 0 0
0 0 0 0 0 0 0 0 0 0 0 0 138 469 556 409 316 162 76 9 69 4 5 12 8 40 21 31 40 137 85 71 190 184 150 45 13 15 14 69 2 1 50 76 77 24 0 0 0
0 0 0 0 0 0 0 0 0 0 0 0 2 362 371 291 206 37 0 10 14 3 31 2 28 0 9 49 12 26 73 39 62 163 141 27 5 33 70 36 2 0 10 29 3 0 5 5 0
0 0 0 0 0 0 0 0 0 0 0 0 0 154 323 318 162 24 2 15 2 17 6 10 1 0 1 0 4 20 18 32 43 92 87 23 11 44 82 79 7 0 0 0 0 2 8 16 7
0 0 0 0 0 0 0 0 0 0 0 0 0 50 272 248 150 43 0 5 5 6 41 43 4 8 0 10 10 28 3 14 24 9 59 6 4 31 76 38 33 3 0 0 2 3 24 47 53
0 0 0 0 0 0 0 0 0 0 0 0 0 32 254 238 136 20 1 5 0 0 4 11 5 0 4 0 4 16 8 7 17 8 6 25 8 79 98 42 50 25 10 16 9 11 24 63 62
0 0 0 0 0 0 0 0 0 0 0 0 0 0 107 221 143 14 0 4 0 0 0 4 2 4 7 5 9 9 22 15 22 14 10 19 49 100 84 58 90 87 46 37 20 18 27 59 69
0 0 0 0 0 0 0 0 0 0 0 0 0 0 0 144 188 54 0 6 10 0 0 0 0 0 21 3 2 11 31 31 36 25 15 11 34 81 78 79 84 109 109 71 53 21 14 48 76
0 0 0 0 0 0 0 0 0 0 0 0 0 0 0 75 128 118 15 1 0 0 0 0 0 0 10 0 2 2 29 0 3 5 8 24 15 37 93 101 111 123 113 107 73 18 27 34 43
0 0 0 0 0 0 0 0 0 0 0 0 0 0 13 155 185 164 95 0 6 1 0 0 0 0 0 3 7 2 13 4 7 6 9 37 2 44 35 61 62 93 107 131 139 75 55 45 66
0 0 0 0 0 0 0 0 0 0 0 0 0 0 3 123 187 197 101 27 3 10 13 0 0 0 0 0 6 9 2 10 0 0 2 53 47 105 56 40 63 71 131 157 193 212 167 86 54
0 0 0 0 0 0 0 0 0 0 0 0 0 0 0 125 221 227 103 33 51 4 9 13 0 0 3 0 0 5 1 0 11 19 6 2 0 6 12 55 70 88 128 153 183 218 203 222 127
0 0 0 4 0 0 0 0 0 0 0 0 0 0 0 96 236 256 176 93 46 9 6 10 14 5 0 0 1 4 0 0 3 2 23 20 2 28 72 67 64 75 33 173 225 335 245 266 232
0 0 0 0 0 0 0 7 0 0 0 0 0 0 0 40 212 273 223 140 53 38 2 8 10 9 0 0 1 1 0 0 0 17 2 4 9 29 62 67 72 66 95 111 150 147 192 286 284
0 0 0 0 0 0 0 0 0 0 0 0 0 0 0 0 94 244 259 174 85 43 21 4 5 6 10 11 9 0 0 0 0 11 6 1 0 1 10 36 39 54 48 47 66 105 137 158 309
0 0 0 0 0 0 0 0 3 0 0 0 0 0 0 26 77 185 300 229 119 56 35 9 1 0 2 8 15 14 12 11 8 2 1 0 0 1 2 4 13 20 23 35 124 110 90 107 144
0 0 0 0 0 0 0 0 6 0 0 0 0 0 0 30 115 120 223 258 165 102 66 57 65 66 6 0 1 4 8 9 7 5 2 0 0 0 1 3 3 5 6 64 133 152 53 70 75

GFSSGP_con_mucape_099.txt.gz
CAPE
0 0 0 0 0 0 0 0 0 0 0 0 0 0 0 0 0 5 579 1083 1704 1709 1716 1583 1925 2060 2305 2188 2049 2020 2054 2121 2042 1920 1978 1833 1814 1681 1498 1390 1212 1027 699 144 74 21 21 20 8
0 0 0 0 0 0 6 0 0 0 0 0 0 0 0 1 0 1 208 1167 1768 1828 1818 1962 1828 2070 2349 2264 2105 2114 2304 2258 2007 2002 2113 2063 1871 1803 1704 1377 1070 855 803 178 143 20 19 17 13
0 0 0 0 0 0 0 0 0 0 0 0 0 0 0 0 27 77 968 832 1241 1274 1692 1888 1766 1966 2335 2284 2138 2137 2212 2104 1933 2006 2203 2238 2006 1941 1625 1207 892 798 643 101 36 18 17 12 1
0 0 0 0 0 0 0 0 0 0 0 0 0 0 0 0 2 429 755 711 780 1069 1372 1624 1625 1825 2112 2273 2143 2181 2101 1798 1853 1958 2184 2233 2022 1704 1415 918 760 697 542 170 10 9 10 4 0
0 0 0 0 0 0 0 0 0 0 0 0 0 0 0 22 77 664 866 779 905 1013 1488 2168 1541 1642 1839 1900 1770 2022 1924 1715 1828 1929 2031 1946 1506 1508 1052 728 592 494 351 190 7 7 5 1 0
0 0 0 0 0 0 0 0 0 0 0 0 0 0 0 314 327 384 1017 919 1002 1134 1623 1516 869 743 691 613 326 1268 1652 1579 1624 1745 1770 1735 1417 1168 863 709 520 304 206 118 12 9 2 0 0
0 0 0 0 0 0 0 0 0 0 0 0 0 0 0 85 679 1018 851 946 1221 1207 1138 1101 426 173 52 170 40 84 1338 1407 1453 1488 1405 1239 944 759 838 723 461 245 152 59 4 3 0 0 0
0 0 0 0 0 0 0 0 0 0 0 0 0 0 0 785 982 853 897 1073 895 906 777 832 45 3 146 169 10 3 931 1032 1078 1151 1032 818 634 662 652 678 490 257 140 64 2 0 0 0 0
0 0 0 0 0 0 0 0 0 0 0 0 0 0 0 282 527 640 860 1164 1139 787 638 677 330 27 16 119 113 190 493 543 858 833 750 663 941 735 660 457 432 346 90 46 24 2 0 0 0
0 0 0 0 0 0 0 0 0 0 0 0 2 5 30 451 600 553 669 741 962 1136 496 595 384 27 46 150 1 89 34 171 820 1227 1053 882 928 668 469 386 332 213 48 34 15 0 0 0 0
0 0 0 0 0 0 0 0 0 0 0 0 0 0 1 76 586 723 749 740 717 674 608 258 404 110 16 103 278 574 16 78 227 990 1081 525 918 832 928 643 460 248 22 0 0 0 0 0 0
0 0 0 0 0 0 0 0 0 0 0 0 0 0 1 103 574 789 769 879 665 491 381 403 415 417 401 374 754 684 208 2 183 1258 909 981 903 656 954 636 284 287 71 0 0 0 6 3 0
0 0 0 0 0 0 0 0 0 0 0 0 0 0 8 271 424 679 921 689 470 373 275 287 351 493 554 431 810 713 331 579 219 452 926 660 475 551 275 312 318 204 172 34 41 0 51 43 2
0 0 0 0 0 0 0 0 0 0 0 0 0 0 26 450 592 841 869 545 402 359 280 156 180 194 309 513 529 663 168 222 204 207 513 858 847 497 108 282 367 312 267 125 98 92 62 43 1
0 0 0 0 0 0 0 0 0 0 0 0 0 0 166 464 617 606 534 417 366 231 168 49 48 130 148 161 274 512 502 383 355 81 218 630 251 255 146 211 340 220 288 431 229 160 36 2 0
0 0 0 0 0 0 0 0 0 0 0 0 0 0 143 452 462 408 353 330 207 268 80 32 3 13 57 66 171 299 108 398 149 130 85 83 73 175 139 100 111 243 232 297 202 115 5 0 0
0 0 0 0 0 0 0 0 0 2 0 0 0 0 8 388 550 443 279 201 123 118 8 1 0 22 35 12 4 112 152 128 169 114 81 80 30 46 18 35 56 240 237 224 178 70 23 0 0
0 0 0 0 0 3 0 0 0 0 0 0 0 0 2 38 438 546 280 180 37 22 9 0 1 0 0 0 11 10 1 89 79 119 40 11 22 13 29 16 84 168 184 181 74 52 10 0 0
0 0 22 3 5 0 0 0 0 0 0 0 0 0 1 19 320 423 223 134 45 12 9 0 0 0 0 0 0 0 18 50 55 89 68 28 11 19 2 18 102 176 74 35 40 61 129 19 24
0 0 0 0 0 3 0 0 0 0 0 0 0 1 0 11 315 366 235 134 20 7 3 0 1 2 0 0 0 7 6 7 39 43 46 19 4 5 5 40 129 144 82 84 115 160 61 34 9
0 0 0 0 0 1 0 0 0 0 0 0 0 0 0 2 243 411 198 133 129 13 4 0 0 9 2 7 1 29 24 32 26 38 27 23 23 16 3 66 147 161 161 149 174 177 126 54 18
0 0 0 0 0 0 2 0 1 0 0 0 0 0 0 0 3 445 298 63 157 40 11 16 0 3 1 4 0 0 3 22 17 9 25 21 5 12 66 88 172 208 193 176 157 128 156 148 35
0 0 0 0 0 0 0 0 0 0 0 0 0 0 0 0 18 374 366 87 88 138 10 0 0 0 0 8 8 0 2 16 15 4 10 13 33 7 85 121 190 252 180 223 231 175 151 125 139
0 1 0 0 0 0 0 0 0 0 0 1 0 0 0 0 114 309 415 107 71 67 52 11 0 0 0 6 1 2 2 3 0 8 0 20 24 53 82 94 179 197 217 218 209 172 117 163 223
1 0 0 0 0 0 3 1 0 0 0 0 0 0 0 0 174 376 425 204 84 62 14 6 2 0 0 0 0 5 6 14 4 2 9 12 2 2 0 50 79 114 157 169 203 166 256 227 232
0 0 0 0 0 0 36 0 0 0 0 0 0 0 0 11 257 421 436 303 180 163 115 7 5 6 0 0 0 0 3 1 5 4 15 4 9 116 2 2 0 0 66 76 174 320 174 190 303
0 0 27 0 0 0 0 6 5 0 0 0 0 0 0 23 280 437 448 408 224 233 146 68 31 8 3 0 7 11 12 0 0 4 1 73 70 84 102 80 55 61 72 104 66 107 126 193 264
1 3 0 0 0 0 0 0 0 11 0 0 1 1 0 0 186 410 464 504 329 225 171 93 66 50 10 9 2 0 11 18 10 33 43 66 77 47 55 71 60 66 68 86 115 133 178 192 251
0 0 0 26 2 0 0 0 6 28 0 0 12 7 19 1 117 366 501 536 425 277 180 137 92 52 37 21 10 15 12 15 15 31 49 41 51 64 63 68 82 93 108 132 173 174 163 163 217
52 1 16 0 0 0 0 0 0 2 0 0 37 28 32 0 71 252 512 551 508 306 194 170 117 68 70 45 20 9 12 11 12 15 24 47 50 55 40 35 20 37 52 90 117 170 136 199 253

GFSSGP_con_mucape_102.txt.gz
CAPE
0 0 0 0 0 0 0 0 0 0 0 0 0 0 0 0 0 0 718 1487 1410 1695 1720 1621 1960 2249 2049 2006 2014 2023 2014 1960 1996 1949 1902 1845 1700 1517 1368 1338 1175 963 913 353 196 69 14 11 7
0 0 0 0 0 0 0 0 0 0 0 0 0 0 0 0 0 13 1028 1464 1589 1220 1826 1808 1802 2094 2282 2134 2087 2062 2217 2080 2061 2086 1910 1813 1816 1640 1634 1401 1058 877 858 269 126 71 15 14 116
0 0 0 0 0 0 0 0 0 0 0 0 0 0 0 0 8 438 898 1057 988 1112 1209 2272 1773 1906 2265 2216 2114 2080 2177 2039 2011 1959 1588 1602 1485 1699 1682 1239 921 934 887 157 102 89 50 16 19
0 0 0 0 0 0 0 0 0 0 0 0 0 0 0 0 0 521 714 553 680 899 1720 1528 1664 1804 2119 2149 2178 2077 1835 1933 1759 1338 758 1527 1448 1706 1484 1065 904 868 661 118 107 74 11 5 0
0 0 0 0 0 0 0 0 0 0 0 0 0 0 0 0 338 674 826 728 873 899 1906 2011 1614 1685 2040 2267 2107 2030 1828 1792 1691 1566 1429 1350 1186 1297 1243 960 801 598 463 163 41 9 0 0 0
0 0 0 0 0 0 0 0 0 0 0 0 0 0 0 95 197 538 1211 973 1276 1229 2118 2168 1237 1286 1619 1970 1820 1710 1656 1182 1521 1660 1333 920 953 786 868 847 706 410 183 107 55 21 0 0 0
0 0 0 0 0 0 0 0 0 0 0 0 0 0 0 288 891 1177 1098 1057 1491 1662 1546 1652 1359 747 685 1192 1189 983 636 97 879 1264 862 307 472 684 783 723 507 231 124 91 48 13 0 0 0
0 0 0 0 0 0 0 0 0 0 0 0 0 0 0 1005 1070 1008 1157 1270 1104 1311 1231 1214 886 386 187 289 192 299 282 0 9 804 612 598 613 519 533 337 252 124 83 4 0 0 0 0 0
0 0 0 0 0 0 0 0 0 0 0 0 0 0 0 430 655 850 1133 1477 1365 1122 1086 1055 775 368 209 32 69 73 39 15 16 460 493 592 456 506 314 186 118 85 26 4 0 0 0 0 0
0 0 0 0 0 0 0 0 0 0 0 0 0 0 15 353 399 488 769 984 1574 1523 998 1072 820 390 58 28 1 37 2 2 18 330 364 440 455 410 276 130 86 29 4 0 0 0 0 0 0
0 0 0 0 0 0 0 0 0 0 0 0 0 0 2 312 566 681 782 840 901 1216 1257 722 605 311 0 96 20 62 0 3 1 185 209 331 472 259 260 181 7 0 0 0 0 0 0 0 0
0 0 0 0 0 0 0 0 0 0 0 0 0 0 0 0 36 644 975 1081 899 1166 888 680 469 102 6 123 15 61 50 84 141 320 269 392 277 219 251 139 1 0 0 0 0 0 0 0 0
0 0 0 0 0 0 0 0 0 0 0 0 0 0 0 0 58 450 981 1064 870 732 653 543 431 365 219 127 89 93 22 17 94 126 239 224 122 259 186 140 53 0 0 0 0 0 0 0 0
0 0 0 0 0 0 0 0 0 0 0 0 0 0 0 0 166 599 1204 955 518 576 554 415 345 412 443 278 129 103 60 5 16 139 235 221 178 267 154 116 102 1 0 0 0 0 6 0 0
0 0 0 0 0 0 0 0 0 0 0 0 0 0 0 0 136 518 787 724 536 445 343 149 269 296 267 211 251 208 151 18 104 64 135 245 236 195 70 72 110 70 8 18 0 0 16 3 0
0 0 0 0 0 0 0 0 0 0 0 0 0 0 0 43 154 470 535 373 376 376 146 39 9 55 113 130 244 222 189 153 66 7 64 85 182 136 55 62 75 99 73 85 38 59 5 0 0
0 0 0 1 0 0 0 0 0 0 0 0 0 0 0 101 498 419 383 328 302 301 44 9 9 8 36 32 54 156 161 113 92 12 21 31 67 66 93 74 116 155 111 121 110 81 0 0 0
0 0 0 4 0 0 3 0 0 0 0 0 0 0 0 6 538 517 391 332 128 190 22 6 5 11 8 0 0 16 64 135 132 28 5 22 13 42 51 76 114 62 80 110 70 45 0 0 0
0 0 0 0 0 0 27 28 0 0 0 0 0 0 3 3 143 673 420 351 74 30 3 5 2 2 0 0 0 5 1 10 114 76 32 14 15 25 44 68 49 38 51 60 71 31 10 0 0
0 0 0 0 0 0 0 0 0 0 0 0 0 0 0 11 353 643 410 301 18 0 9 1 3 0 0 0 3 0 0 0 34 99 45 32 5 12 23 31 42 65 14 1 45 33 22 23 14
0 0 0 0 0 0 0 0 0 0 0 0 0 0 0 0 326 559 396 289 29 0 40 13 0 0 0 0 0 0 0 27 51 88 45 11 10 7 8 4 4 1 22 42 62 58 51 53 38
0 0 0 0 0 0 0 0 0 0 0 0 0 0 0 0 10 546 391 311 77 1 21 12 46 0 0 0 0 0 0 2 6 55 20 31 20 9 14 10 11 2 26 60 63 99 122 82 59
2 0 0 0 0 0 0 0 0 0 0 0 0 0 0 0 0 582 360 278 177 1 22 141 13 33 0 0 0 16 0 34 29 28 6 27 3 14 24 8 10 2 7 96 93 118 113 81 63
9 3 0 0 0 0 0 0 0 0 0 0 2 0 6 0 0 454 425 225 130 62 26 46 60 73 0 0 0 0 13 4 11 18 27 23 20 17 6 8 2 36 49 76 93 116 100 113 67
0 2 0 0 0 0 0 0 0 0 0 0 0 10 9 2 194 352 413 210 46 56 8 14 20 13 3 0 0 6 3 1 1 6 11 10 7 9 7 7 0 3 2 13 89 130 98 82 106
0 24 0 0 0 0 0 0 4 9 0 0 7 6 11 26 320 306 441 212 57 37 3 16 37 12 3 0 0 0 0 0 4 0 0 0 0 4 3 2 3 0 37 70 70 48 89 111 112
0 17 3 4 0 0 0 3 28 6 0 0 1 37 17 123 186 353 472 283 124 41 13 21 22 17 10 1 0 0 0 0 3 2 0 0 1 0 3 3 2 33 3 24 54 45 52 84 65
0 0 18 60 0 0 0 0 1 14 13 6 10 39 14 19 247 416 451 434 277 151 78 14 9 2 0 0 0 0 0 0 0 0 0 1 0 8 13 11 1 5 12 12 39 34 48 57 52
0 0 0 0 16 0 0 0 12 18 58 32 9 17 44 17 99 435 450 522 329 231 173 53 26 6 2 8 4 3 0 0 0 0 0 1 1 0 19 22 15 12 6 13 17 10 21 16 19
77 0 0 0 0 54 16 0 0 0 1 0 1 1 17 30 53 395 467 621 428 254 172 83 59 44 18 7 37 5 0 1 5 0 0 0 13 6 2 5 12 4 0 2 6 15 26 39 39

GFSSGP_con_mucape_105.txt.gz
CAPE
0 0 0 0 0 0 0 0 0 0 0 0 0 0 0 0 0 6 1068 1038 1706 1568 1940 2032 1809 1844 1922 2023 1969 1954 1959 2110 2102 2003 1829 1716 1552 1396 1279 1195 1118 1073 1027 577 507 419 246 29 122
0 0 0 0 0 0 0 0 0 0 0 0 0 0 0 0 322 894 1153 1261 1751 1670 1748 2044 1993 1934 2017 2071 2105 2070 2109 2184 2121 2107 1986 1820 1682 1598 1500 1288 1107 1002 958 348 238 231 71 58 109
0 0 0 0 0 0 0 0 0 0 0 0 0 0 0 0 201 741 934 1166 1038 1707 1708 1793 2066 2015 2054 2099 2127 2115 2086 2117 2007 1984 2045 1814 1729 1760 1650 1253 1077 1010 910 272 192 138 116 228 134
0 0 0 0 0 0 0 0 0 0 0 0 0 0 0 0 191 704 673 609 644 1116 1892 1867 1892 2135 2077 2169 2154 2153 2171 1997 1852 1743 1780 1635 1575 1460 1325 1213 1054 959 814 502 146 107 235 71 28
0 0 0 0 0 0 0 0 0 0 0 0 0 0 0 34 573 572 436 462 527 1370 1483 1583 1629 1888 2214 2317 2244 2043 2114 1905 1830 1031 1047 660 1009 1067 714 815 1121 840 691 548 249 130 66 30 0
0 0 0 0 0 0 0 0 0 0 0 0 0 0 0 274 386 512 519 558 655 1329 1807 1601 1502 1651 1972 2291 2182 1945 1888 1746 1454 1014 689 646 546 559 710 638 801 658 448 284 148 66 32 33 0
0 0 0 0 0 0 0 0 0 0 0 0 0 0 64 231 560 737 665 777 1095 1176 1682 1620 1316 1091 1422 1739 2184 2002 1713 1416 1069 446 661 679 403 522 773 801 693 416 220 185 131 35 15 15 0
0 0 0 0 0 0 0 0 0 0 0 0 0 0 0 544 701 627 675 891 1079 1133 950 997 991 790 365 592 1394 1689 1662 1329 670 476 350 320 356 476 576 534 394 234 183 158 121 22 0 0 0
0 0 0 0 0 0 0 0 0 0 0 0 0 0 0 700 622 686 649 855 745 841 671 617 625 298 21 0 74 352 736 710 434 253 138 141 168 339 347 222 215 188 134 95 36 9 0 0 0
0 0 0 0 0 0 0 0 0 0 0 0 0 0 61 567 566 630 687 929 1070 984 938 829 640 293 106 4 0 6 21 127 213 193 16 114 143 176 137 154 162 106 58 31 3 0 0 0 0
0 0 0 0 0 0 0 0 0 0 0 0 0 0 190 436 449 407 457 561 1041 1159 1102 920 589 290 90 14 0 0 15 39 41 102 3 123 244 196 109 34 26 10 2 0 0 0 0 0 0
0 0 0 0 0 0 0 0 0 0 0 0 0 0 0 127 213 229 231 303 673 1065 973 547 410 138 0 0 0 1 0 2 10 5 17 147 209 189 103 0 3 0 0 0 0 0 0 0 0
0 0 0 0 0 0 0 0 0 0 0 0 0 0 0 7 12 164 307 593 629 850 562 428 286 146 0 0 0 8 34 20 30 3 103 166 159 145 50 0 0 0 0 0 0 0 0 0 0
0 0 0 0 0 0 0 0 0 0 0 0 0 0 0 0 0 246 677 739 678 550 457 298 217 198 6 0 0 5 12 10 12 23 96 127 93 110 18 0 0 0 0 0 0 0 0 0 0
0 0 0 0 0 0 0 0 0 0 0 0 0 0 0 0 0 380 667 788 668 412 349 235 161 156 80 40 2 13 32 23 44 78 134 138 159 255 26 0 0 0 0 0 0 0 0 0 0
0 0 0 0 0 0 0 0 0 0 0 0 0 0 0 0 0 163 734 814 700 485 310 157 148 90 56 73 43 47 51 37 45 50 129 125 206 161 70 14 0 0 0 0 0 0 0 0 0
0 0 0 0 0 0 1 2 0 0 0 0 0 0 0 0 1 284 504 436 343 227 174 65 37 23 19 32 90 93 73 28 73 70 104 93 124 163 81 49 7 18 0 0 0 0 0 0 0
0 0 0 0 0 0 0 0 0 0 0 0 0 0 0 0 11 356 312 293 244 167 105 1 0 6 9 1 14 90 91 42 24 9 59 103 97 87 68 74 40 39 8 38 0 19 5 0 0
0 0 0 0 0 0 0 0 0 0 0 0 0 0 0 0 43 319 252 263 193 109 38 0 1 8 1 0 0 6 42 57 38 12 55 108 87 38 28 65 50 86 65 52 36 52 26 0 0
0 0 0 0 0 0 0 0 0 0 0 0 0 0 0 0 178 328 283 274 172 86 0 0 8 35 2 0 0 0 0 31 69 25 18 92 24 9 20 21 40 62 52 84 67 64 42 3 0
0 0 0 0 0 0 0 0 0 0 0 0 0 0 0 0 237 404 371 303 195 35 0 0 22 0 0 0 0 0 0 0 28 85 49 19 32 30 3 11 34 51 42 44 40 60 66 5 0
0 0 0 0 0 0 0 0 0 0 0 0 0 0 0 0 322 473 386 239 118 3 0 5 34 1 0 5 3 2 1 0 0 20 25 26 24 22 10 10 27 38 33 25 11 34 55 20 23
0 0 0 0 0 0 0 0 0 0 0 0 0 0 0 0 207 389 300 193 56 0 0 0 36 82 0 12 0 0 4 0 2 18 42 7 18 8 11 7 25 25 10 3 6 15 58 59 50
0 0 0 0 0 0 0 0 0 0 0 0 0 0 0 0 178 295 272 171 93 3 0 0 74 10 0 10 11 0 0 2 6 9 1 10 27 6 12 5 1 15 4 3 4 39 62 52 64
0 0 0 0 0 0 0 0 0 0 0 0 0 0 0 0 164 271 305 226 103 12 0 0 31 11 4 3 0 0 1 9 5 11 17 10 13 17 15 13 14 13 7 7 6 0 23 39 63
0 0 0 0 0 0 0 0 0 0 0 3 0 0 15 258 299 355 311 211 139 21 0 0 1 19 2 0 15 0 0 0 8 11 37 24 16 13 21 12 6 17 3 20 22 3 5 52 49
0 0 0 9 0 0 0 0 0 34 3 0 0 0 23 267 457 393 312 233 139 32 2 0 0 1 1 0 3 0 0 0 3 4 31 10 26 11 26 8 6 2 8 24 0 95 3 36 46
0 0 0 8 1 0 0 0 0 1 4 1 0 0 0 218 330 360 327 250 220 84 17 0 0 1 1 0 1 0 0 0 0 1 0 0 0 6 21 1 3 11 8 0 0 0 24 0 0
11 0 0 0 21 0 0 0 74 0 0 0 0 0 0 6 217 409 361 338 325 208 5 0 0 0 1 0 0 0 0 0 0 1 0 0 0 0 4 11 20 13 11 11 12 15 10 43 26
6 1 46 0 0 0 0 0 3 0 0 0 0 0 0 9 122 409 464 408 359 284 71 0 0 0 0 1 0 0 0 0 0 0 0 0 0 0 0 4 12 2 10 11 5 0 0 13 1

GFSSGP_con_mucape_108.txt.gz
CAPE
0 0 0 0 0 0 0 0 0 0 0 0 0 0 0 0 0 0 639 1442 1364 1596 1627 1582 1687 1868 1892 1911 1864 1973 2159 2208 2023 1855 1686 1592 1520 1402 1335 1349 1389 1397 1274 654 507 531 642 524 519
0 0 0 0 0 0 0 0 0 0 0 0 0 0 0 0 543 911 937 1551 1418 1680 1719 1618 1654 1857 2001 2006 2009 2137 2248 2248 2037 1894 1735 1625 1536 1513 1518 1358 1215 1262 1170 785 887 486 362 370 417
0 0 0 0 0 0 0 0 0 0 0 0 0 0 0 0 617 950 720 1612 1607 1627 1894 1728 1621 1783 1988 2095 2086 2151 2246 2136 2017 1897 1835 1721 1703 1650 1506 1247 1077 1111 1062 631 621 420 175 258 140
0 0 0 0 0 0 0 0 0 0 0 0 0 0 0 129 568 648 952 1449 1706 1448 1704 1924 1597 1688 1952 2176 2220 2207 2231 2007 1915 1927 1855 1917 1889 1764 1487 1254 1169 1095 954 600 406 307 414 299 245
0 0 0 0 0 0 0 0 0 0 0 0 0 0 0 55 318 629 967 819 1404 1532 1610 1773 1764 1714 1973 2273 2296 2179 2127 1951 1887 1783 1289 883 1351 1549 1335 1184 1071 933 850 692 593 527 330 129 47
0 0 0 0 0 0 0 0 0 0 0 0 0 0 0 267 446 667 409 324 641 1235 1729 1621 1871 1974 2030 2168 2151 2086 1835 1868 1590 1052 593 465 856 1234 1147 1105 992 774 657 466 439 241 52 2 12
0 0 0 0 0 0 0 0 0 0 0 0 0 0 113 350 273 338 327 373 1258 1275 1365 1454 1499 1718 2032 2206 2182 2028 1821 1373 1076 609 341 653 594 539 826 878 901 698 483 396 292 99 31 6 13
0 0 0 0 0 0 0 0 0 0 0 0 0 0 112 171 332 401 454 731 1501 1618 1529 1429 1280 1194 1395 1735 1871 2086 1850 1263 755 312 288 252 34 173 577 632 725 568 390 283 189 67 15 0 0
0 0 0 0 0 0 0 0 0 0 0 0 0 0 0 149 564 575 789 853 925 947 990 1060 1004 814 549 378 1009 1725 1688 1350 668 304 242 156 48 129 580 446 354 318 205 178 146 54 22 1 0
0 0 0 0 0 0 0 0 0 0 0 0 0 0 336 445 674 603 613 632 694 741 580 608 682 466 370 206 15 141 875 823 600 272 211 141 46 164 284 292 173 166 141 121 86 26 0 0 0
0 0 0 0 0 0 0 0 0 0 0 0 0 0 415 461 554 460 348 448 578 638 685 809 710 616 420 180 58 6 0 82 269 185 152 168 140 156 180 182 77 43 53 4 4 0 0 0 0
0 0 0 0 0 0 0 0 0 0 0 0 0 0 390 535 533 351 306 476 657 827 876 962 861 524 398 97 49 0 0 0 106 185 120 109 102 82 157 136 23 0 0 0 0 0 0 0 0
0 0 0 0 0 0 0 0 0 0 0 0 0 0 43 337 380 240 174 237 413 753 968 993 588 431 253 0 0 0 1 4 21 62 20 54 111 92 73 132 30 0 0 0 0 0 0 0 0
0 0 0 0 0 0 0 0 0 0 0 0 0 0 0 0 119 160 258 237 717 807 980 567 478 279 29 0 0 0 1 12 8 8 6 38 76 91 49 70 1 0 0 0 0 0 0 0 0
0 0 0 0 0 0 0 0 0 0 0 0 0 0 0 0 0 173 282 415 701 717 554 431 196 148 69 7 2 0 5 6 24 5 5 0 93 87 67 98 1 0 0 0 0 0 0 0 0
0 0 0 0 0 0 0 0 0 0 0 0 0 0 0 0 0 37 290 511 613 515 431 323 281 178 111 54 25 0 0 36 45 26 81 76 50 71 77 101 0 0 0 0 0 0 0 0 0
0 0 0 0 0 0 0 0 0 0 0 0 0 0 0 0 0 49 338 578 570 558 447 353 199 129 19 54 41 0 10 8 34 17 80 110 103 82 53 76 0 0 0 0 0 0 0 0 0
0 0 0 0 0 0 0 0 0 0 0 0 0 0 0 0 0 12 442 647 662 532 444 303 97 65 3 31 86 45 55 7 54 66 39 109 111 88 46 49 0 0 0 0 0 0 0 0 0
0 0 0 0 0 0 0 0 0 0 0 0 0 0 0 0 0 146 586 621 555 489 333 196 17 9 12 0 88 139 80 0 31 39 41 72 78 130 74 4 0 0 0 0 0 0 0 0 0
0 0 0 0 0 0 0 0 0 0 0 0 0 0 0 0 85 250 689 560 453 350 253 46 0 0 4 0 2 51 49 24 8 6 38 93 66 56 21 1 0 0 0 1 0 12 15 0 1
0 0 0 0 0 0 0 0 0 0 0 0 0 0 0 0 119 320 650 506 376 301 154 0 0 2 0 0 0 5 39 52 26 22 61 45 24 47 23 15 2 1 0 0 0 5 9 15 11
0 0 0 0 0 0 0 0 0 0 0 0 0 0 0 0 149 331 561 448 347 282 114 0 0 2 12 0 0 0 0 4 82 30 39 62 74 38 39 41 11 11 7 7 0 0 17 22 17
0 0 0 0 0 0 0 0 0 0 0 0 0 0 0 0 154 330 516 468 380 313 50 0 0 1 2 0 0 0 0 0 9 79 107 26 83 79 71 70 47 28 34 20 13 4 52 66 16
0 0 0 0 0 0 0 0 0 0 0 0 1 0 0 0 67 269 361 498 453 284 1 0 0 1 1 0 2 4 3 0 18 2 8 58 35 71 64 8 30 4 29 43 43 53 47 63 4
0 0 0 0 0 0 0 0 0 0 0 0 0 0 0 0 0 232 393 585 441 151 0 0 1 1 16 13 1 4 0 0 0 8 12 16 7 38 47 15 17 11 38 37 61 47 31 18 6
0 0 0 0 0 0 0 0 0 0 0 0 0 0 0 0 0 209 338 577 382 135 1 0 0 1 1 14 15 0 0 0 4 0 22 27 12 18 10 18 11 12 41 44 39 31 21 7 17
0 0 0 0 0 0 0 0 0 0 0 3 14 0 0 252 122 251 334 533 328 146 0 0 0 0 0 4 35 2 0 0 0 0 8 31 12 20 42 33 4 8 15 23 33 23 23 16 21
11 0 0 0 0 0 0 0 0 0 0 0 9 16 0 15 288 290 448 474 347 150 0 0 0 0 0 2 30 11 0 0 0 0 0 2 9 17 40 32 33 26 20 17 9 14 29 21 2
64 11 16 0 26 0 0 0 117 38 24 0 0 10 0 0 3 306 485 486 310 182 24 0 0 0 0 3 3 70 0 0 0 0 0 0 7 18 27 25 5 36 13 22 36 24 1 3 7
6 0 0 1 0 1 9 0 0 144 109 0 0 0 0 0 0 66 404 411 366 236 118 0 0 0 0 1 1 11 0 0 0 0 0 0 0 0 12 41 28 21 11 11 8 2 9 6 14

GFSSGP_con_mucape_111.txt.gz
CAPE
0 0 0 0 0 0 0 0 0 0 0 0 0 0 0 0 0 0 40 539 1236 1311 1305 1463 1719 1781 1780 1770 1959 1978 2063 2049 1952 1998 1945 1907 1863 1772 1717 1778 1729 1700 1285 1206 1051 1155 1162 893 776
0 0 0 0 0 0 0 0 0 0 0 0 0 0 0 0 242 429 621 1141 1209 1356 1324 1436 1658 1786 1921 1878 2019 2127 2164 2077 2002 1975 1937 1892 1853 1786 1785 1748 1642 1582 1462 1011 1189 1216 991 706 747
0 0 0 0 0 0 0 0 0 0 0 0 0 0 0 0 424 664 575 1423 1281 1518 1385 1399 1595 1739 1956 1982 2113 2191 2165 2045 1964 1906 1937 1859 1832 1857 1870 1654 1470 1386 1265 810 1015 904 826 756 434
0 0 0 0 0 0 0 0 0 0 0 0 0 0 0 0 328 751 634 1499 1303 1585 1586 1465 1523 1705 1938 2048 2155 2271 2142 1991 1875 1822 1850 1890 1939 1876 1767 1503 1438 1375 976 860 896 690 692 424 327
0 0 0 0 0 0 0 0 0 0 0 0 0 0 0 0 264 600 1028 1625 1442 1406 1680 1534 1431 1654 1988 2203 2201 2225 2069 1931 1830 1780 1740 1671 1720 1401 1338 1372 1350 1203 1225 1250 907 626 417 457 178
0 0 0 0 0 0 0 0 0 0 0 0 0 0 0 5 260 706 989 1631 1501 1308 1467 1620 1402 1574 1882 2112 2085 2089 1972 1852 1693 1423 1535 1423 1001 918 865 1309 1238 1029 957 779 622 500 427 127 1
0 0 0 0 0 0 0 0 0 0 0 0 0 0 6 161 200 768 714 1141 1510 1315 1368 1490 1509 1560 1779 2049 2036 2003 1851 1691 1454 965 703 768 474 515 758 949 826 950 735 674 541 278 54 23 0
0 0 0 0 0 0 0 0 0 0 0 0 0 1 2 117 254 694 649 559 963 1137 1499 1519 1649 1747 1805 1769 1879 1959 1787 1637 1178 809 338 353 375 323 424 541 744 781 592 571 333 75 29 14 0
0 0 0 0 0 0 0 0 0 0 0 0 0 0 0 41 247 372 459 881 1149 1107 1161 1297 1372 1572 1725 1829 1800 1907 1883 1503 998 530 301 412 281 243 215 505 651 684 482 370 158 33 36 30 16
0 0 0 0 0 0 0 0 0 0 0 0 0 0 147 253 307 364 590 721 997 1136 1205 1198 1172 1081 1038 1176 1548 1568 1721 1669 806 474 354 248 163 142 116 362 492 354 311 244 82 27 36 13 0
0 0 0 0 0 0 0 0 0 0 0 0 0 0 111 303 385 481 541 602 647 742 792 847 925 677 411 297 241 480 1162 1263 1018 370 183 221 134 92 268 254 284 176 158 104 8 13 8 0 0
0 0 0 0 0 0 0 0 0 0 0 0 0 0 54 339 437 528 530 524 480 523 637 638 537 488 450 397 294 34 0 154 431 340 223 144 102 111 90 108 148 127 59 43 1 0 0 0 0
0 0 0 0 0 0 0 0 0 0 0 0 0 0 0 274 372 467 517 486 351 365 431 522 537 649 596 369 249 32 4 0 19 120 235 87 97 47 53 131 123 96 12 0 0 0 0 0 0
0 0 0 0 0 0 0 0 0 0 0 0 0 0 0 27 272 349 424 527 319 294 537 704 790 803 508 381 15 0 0 1 15 70 84 145 97 61 121 95 87 69 0 0 0 0 0 0 0
0 0 0 0 0 0 0 0 0 0 0 0 0 0 0 0 0 145 294 501 370 248 451 718 883 728 398 42 0 0 0 0 0 7 13 91 61 50 112 52 33 93 0 0 0 0 0 0 0
0 0 0 0 0 0 0 0 0 0 0 0 0 0 0 0 0 0 57 264 307 396 550 797 915 469 153 35 1 0 0 0 16 56 12 37 59 72 100 39 49 69 0 0 0 0 0 0 0
0 0 0 0 0 0 0 0 0 0 0 0 0 0 0 0 0 0 0 128 303 475 674 927 541 281 139 50 44 7 0 0 14 37 7 5 45 25 54 36 36 78 0 0 0 0 0 0 0
0 0 0 0 0 0 0 0 0 0 0 0 0 0 0 0 0 0 0 239 331 591 772 623 355 248 113 129 98 43 20 1 5 11 5 2 56 22 22 12 44 60 0 0 0 0 0 0 0
0 0 0 0 0 0 0 0 0 0 0 0 0 0 0 0 0 0 139 392 352 667 727 514 393 228 64 93 505 42 26 85 3 8 4 27 50 52 33 57 74 14 0 0 0 0 0 0 0
0 0 0 0 0 0 0 0 0 0 0 0 0 0 0 0 0 10 152 391 461 675 646 490 378 205 34 32 239 174 64 34 16 37 59 55 61 16 10 15 37 11 0 0 0 0 0 0 0
0 0 0 0 0 0 0 0 0 0 0 0 0 0 0 0 0 3 198 291 495 666 620 496 331 131 9 10 44 37 62 26 35 25 60 73 77 25 14 7 31 12 0 0 0 0 0 0 0
0 0 0 0 0 0 0 0 0 0 0 0 0 0 0 0 0 11 242 271 503 658 604 414 293 19 0 10 8 20 95 1 6 129 22 64 83 64 39 45 38 44 0 0 0 0 0 0 0
0 0 0 0 0 0 0 0 0 0 0 0 0 0 0 0 0 8 192 261 400 578 548 380 236 0 0 3 6 0 8 172 14 5 49 59 64 71 78 58 65 46 0 0 0 0 3 0 7
0 0 0 0 0 0 0 0 0 0 0 0 0 0 0 0 0 0 73 182 278 491 504 343 203 0 1 5 0 0 0 0 18 33 26 23 65 79 86 90 74 28 0 3 0 0 15 39 39
0 0 0 0 0 0 0 0 0 0 0 0 0 0 0 1 0 11 40 197 258 452 458 351 141 0 3 71 4 0 0 0 0 1 18 98 65 70 30 56 95 59 40 4 29 0 31 60 94
0 0 0 0 0 0 0 0 0 0 0 0 0 0 0 0 0 79 50 137 215 384 447 391 73 0 1 6 11 0 2 0 0 0 0 3 39 74 33 43 37 62 43 17 4 19 22 54 73
0 0 0 0 0 0 0 0 0 0 0 0 0 9 21 3 0 0 263 144 186 346 468 401 21 0 1 3 2 6 5 0 2 16 7 6 14 10 18 36 57 45 55 42 36 42 62 56 14
6 2 0 0 0 0 0 0 0 0 0 3 2 29 32 13 0 1 284 286 166 264 483 249 0 0 0 5 2 2 1 0 0 0 1 4 13 21 0 13 49 33 35 28 51 49 53 61 43
0 7 18 2 11 0 0 0 30 46 28 3 0 8 1 17 0 12 87 250 172 293 419 181 0 0 0 1 2 1 0 22 0 0 0 17 12 11 17 18 45 15 35 22 47 31 36 39 14
0 0 0 5 0 0 0 0 0 0 90 11 0 0 0 3 1 1 19 157 284 420 315 152 0 0 0 0 2 1 0 6 0 0 0 0 9 28 27 38 23 24 32 36 52 31 44 5 1